GFSSGP_925_thetae_000.txt.gz
Theta_e
308 307 315 315 317 316 317 319 330 332 334 335 336 337 338 337 340 346 341 340 341 341 340 339 340 339 338 338 337 337 337 337 335 334 333 333 333 331 327 322 320 314 312 313 314 316 319 322 324
307 315 316 313 317 319 321 326 334 334 332 333 334 337 340 344 341 341 341 340 340 340 340 339 338 338 337 338 338 337 337 336 334 333 333 332 329 324 321 319 314 308 310 311 312 313 314 317 318
309 315 312 315 315 316 325 326 327 329 330 332 333 331 333 337 339 340 341 340 340 340 340 339 339 338 337 336 335 334 333 334 335 332 328 326 323 320 319 318 312 309 310 311 311 311 310 310 310
314 313 310 314 314 314 326 325 329 334 333 332 331 332 328 334 339 342 342 340 339 340 339 340 340 339 337 335 333 332 334 333 330 325 323 321 321 320 319 318 312 308 308 309 309 309 308 308 308
318 311 313 314 314 326 326 326 327 328 334 333 331 332 331 338 343 343 343 338 339 341 339 341 341 340 339 338 338 335 331 328 324 321 321 321 319 317 317 315 310 307 308 308 308 308 308 307 307
313 311 314 314 324 324 321 325 327 335 332 330 331 331 329 337 343 343 341 338 340 343 341 341 341 339 337 335 331 327 324 322 320 320 319 317 317 314 312 311 312 311 307 309 311 311 309 308 307
314 313 314 319 328 323 319 317 323 328 332 334 329 330 326 330 342 334 334 334 336 338 337 336 333 331 328 326 323 321 320 319 319 318 317 320 321 319 317 318 320 319 319 318 316 317 317 315 314
312 312 315 319 325 318 316 314 317 321 325 328 328 330 328 323 336 332 332 329 327 325 324 324 323 320 320 321 320 318 317 318 319 318 325 325 324 322 323 323 322 320 321 319 319 319 319 318 317
312 312 313 315 317 316 314 316 314 317 323 325 325 327 325 327 332 334 333 330 326 325 324 329 328 323 316 317 317 317 318 322 324 327 328 327 323 324 325 325 324 322 322 321 320 320 319 319 318
312 311 313 313 315 313 312 312 313 318 327 329 328 327 324 324 327 327 328 331 333 332 330 332 330 326 323 322 318 325 325 327 327 329 329 327 326 326 326 326 323 321 321 319 320 320 320 319 318
311 311 311 311 313 310 310 312 313 315 324 330 330 326 322 321 322 324 325 329 332 333 332 332 329 329 327 326 326 328 328 328 327 328 327 327 327 327 323 323 318 317 317 317 318 319 319 318 318
313 311 312 313 311 310 310 310 312 314 315 327 328 326 324 322 322 321 322 325 329 332 331 329 327 329 329 327 327 328 329 330 329 328 327 326 326 323 320 319 318 318 318 318 317 317 317 317 318
310 311 311 310 313 311 310 311 311 314 312 328 327 327 326 325 324 323 323 324 328 331 330 329 327 329 327 325 327 328 328 329 329 328 327 322 323 321 320 320 320 319 320 320 319 318 318 318 318
311 310 311 311 314 315 313 314 315 313 311 328 329 328 327 327 325 325 323 323 326 331 331 330 324 326 327 328 327 327 326 325 327 326 324 319 319 321 321 321 319 317 318 318 318 319 318 317 318
310 311 312 312 315 315 314 316 314 313 312 327 329 328 327 327 327 325 325 322 325 331 332 329 330 331 326 329 328 327 321 323 324 323 321 321 321 321 319 315 313 313 314 316 316 316 317 316 313
314 312 313 314 314 316 313 313 313 310 310 314 321 325 324 324 325 326 326 325 323 332 332 331 325 324 328 328 327 328 320 321 320 321 318 316 316 316 315 314 314 312 312 313 314 313 312 311 311
312 313 315 316 314 316 316 317 313 311 311 310 310 313 317 320 321 323 323 323 326 332 332 331 325 329 325 326 324 321 320 320 317 316 314 313 314 313 312 312 312 311 312 312 311 310 308 307 307
314 315 314 315 315 317 314 316 315 313 316 319 320 320 321 320 318 319 323 321 330 332 331 331 326 326 326 323 322 319 316 314 313 313 313 312 311 311 311 311 310 311 311 310 308 307 306 305 306
316 316 315 315 315 316 315 316 315 318 321 321 321 322 321 318 316 319 320 322 326 327 326 327 327 325 318 315 316 314 313 313 312 311 311 311 311 311 310 309 309 308 308 306 305 305 305 304 304
318 319 318 317 317 314 316 315 317 320 319 319 320 321 319 318 316 315 315 315 315 315 314 315 315 315 315 315 314 313 312 312 312 312 312 311 309 307 307 306 305 305 305 305 304 303 304 305 305
320 319 319 319 317 313 317 316 318 316 316 315 315 316 318 318 316 315 314 314 314 313 314 313 313 313 312 312 312 311 311 312 312 311 310 309 307 305 304 303 302 302 302 302 302 302 302 304 305
323 321 320 319 317 314 315 318 318 318 318 318 318 317 318 317 316 315 314 315 314 313 313 313 313 312 312 312 311 311 311 311 308 306 307 307 304 303 302 301 301 301 301 301 301 301 301 301 303
322 320 320 320 318 318 318 318 318 318 318 317 315 316 315 315 314 313 315 315 315 314 314 313 313 312 312 311 311 311 310 306 306 307 305 304 302 301 300 300 300 301 300 300 299 300 301 300 301
319 321 320 320 319 321 322 321 320 319 319 318 316 315 314 313 313 314 316 316 315 314 314 313 313 313 311 311 310 310 307 306 306 303 302 301 301 300 300 300 300 299 299 298 297 297 297 296 296
318 321 325 324 320 321 323 324 323 320 318 318 317 315 313 312 313 313 314 315 315 314 314 313 313 313 312 311 309 308 306 304 302 302 303 302 300 300 299 300 299 299 298 297 297 296 294 293 293
320 319 320 326 321 323 319 323 319 316 318 317 316 314 314 313 312 312 313 312 312 312 312 312 311 310 310 306 304 303 303 303 304 304 303 301 300 300 299 299 298 297 294 293 292 292 292 291 290
321 316 316 318 315 318 319 319 317 316 316 315 316 316 313 311 309 310 310 310 310 310 309 309 309 307 305 304 304 306 306 305 305 303 302 300 300 299 296 295 295 295 294 292 291 290 289 289 289
315 316 320 315 319 318 318 321 321 318 317 313 313 312 311 310 309 308 309 309 308 306 306 306 307 307 306 306 306 304 303 302 301 301 301 300 299 297 295 294 294 293 291 290 289 289 289 289 290
318 319 318 316 314 316 315 316 314 318 315 314 313 311 310 309 308 307 307 306 305 305 305 304 304 305 303 302 304 304 305 303 301 300 299 297 296 295 294 294 293 291 290 289 289 289 289 289 289
318 319 316 313 321 312 311 315 314 313 313 314 313 311 310 308 308 307 306 305 303 303 300 298 298 297 296 296 299 303 304 303 300 299 297 297 295 293 293 291 290 290 289 289 289 289 288 288 286

GFSSGP_925_thetae_003.txt.gz
Theta_e
309 307 315 315 316 314 316 316 331 332 338 336 336 337 341 341 342 345 340 340 340 340 340 341 341 340 338 337 335 335 335 335 333 331 332 332 329 324 320 317 312 308 311 311 310 312 316 318 319
307 313 315 311 315 316 318 322 336 337 336 332 334 338 343 347 342 342 340 342 341 340 340 340 340 339 338 337 336 337 336 335 333 332 331 327 322 319 318 316 310 309 309 310 309 310 310 311 312
309 314 312 313 313 314 318 328 334 334 333 331 332 329 334 346 341 340 340 341 341 340 339 339 338 337 337 337 337 337 336 334 333 331 326 321 319 318 318 316 309 308 309 309 309 309 309 309 309
312 312 309 313 315 313 320 324 329 331 332 332 331 333 329 339 340 341 341 341 340 339 339 338 337 337 337 336 336 335 333 333 328 323 320 319 319 317 317 315 308 307 308 308 307 307 307 307 307
316 308 312 313 313 315 316 325 330 333 332 332 330 332 333 343 340 340 341 341 340 340 339 339 338 336 335 333 333 334 332 328 322 319 318 318 316 315 314 308 307 306 306 307 309 310 308 307 307
310 308 313 313 316 320 317 324 333 333 331 332 335 332 329 342 341 343 341 341 341 340 341 340 339 337 336 336 333 329 326 323 319 317 317 316 315 313 312 315 316 313 315 315 316 315 315 313 312
311 310 313 314 323 319 319 319 333 331 331 331 328 329 328 340 341 342 340 343 344 344 340 340 339 337 334 330 327 324 322 318 317 317 316 320 318 317 318 320 318 318 317 317 317 316 315 315 315
309 310 314 318 320 318 314 316 322 332 332 327 325 328 334 332 342 341 341 344 345 341 340 337 332 330 328 326 322 320 318 317 318 318 321 323 322 322 322 322 320 319 319 318 318 317 316 316 316
310 311 312 313 314 311 312 317 316 321 329 326 325 325 334 339 339 339 340 340 338 334 328 323 323 322 322 322 319 317 317 318 319 325 325 324 323 324 324 324 323 321 319 318 318 319 318 316 316
312 309 312 312 312 310 312 323 322 327 329 329 324 322 330 332 335 334 335 335 335 330 327 323 322 317 319 317 316 318 322 323 326 328 327 325 325 325 325 324 322 321 319 318 318 319 319 318 317
310 310 311 311 312 312 311 313 314 327 330 328 325 322 326 329 330 329 329 328 328 326 328 327 325 319 319 316 321 323 325 327 325 327 326 325 326 326 323 321 318 317 318 317 317 317 319 318 318
312 310 309 311 310 309 309 310 316 317 328 326 324 321 323 324 325 326 327 329 330 329 330 330 327 324 324 322 325 326 327 327 327 326 324 324 325 323 319 319 318 318 318 319 320 318 318 318 318
310 310 310 309 309 309 309 310 312 313 319 325 323 321 322 322 322 325 328 329 331 332 331 331 329 326 326 326 325 327 328 328 328 327 324 320 321 320 319 320 320 319 318 318 318 318 319 318 317
309 309 309 311 311 310 310 313 313 311 325 325 324 322 321 321 321 321 322 326 328 331 331 330 328 327 327 326 326 327 328 328 329 328 327 325 323 322 321 320 315 313 312 312 312 313 316 316 314
308 310 311 311 313 313 312 315 312 311 326 327 326 324 323 322 322 321 321 322 328 330 331 329 327 328 327 327 327 327 327 326 328 329 328 323 321 322 318 314 314 312 312 312 312 313 313 312 311
312 310 311 312 314 312 311 311 313 309 326 327 326 325 324 321 320 322 323 321 324 328 329 329 329 330 328 328 327 325 322 323 326 323 318 317 316 315 314 312 311 310 310 311 311 310 309 308 307
309 311 313 315 312 314 314 315 311 307 319 314 318 318 319 318 318 320 322 323 321 326 330 331 331 327 323 324 325 320 316 317 316 313 313 313 312 311 311 310 310 309 310 310 307 306 305 306 305
312 314 312 313 313 313 314 314 313 316 316 318 318 316 316 317 317 316 320 326 326 329 330 328 330 328 326 322 318 315 314 313 312 311 311 311 310 310 309 309 309 309 308 306 305 304 304 303 303
315 314 313 312 313 315 315 317 318 318 320 320 318 316 316 315 314 315 319 323 326 326 329 327 325 317 318 314 314 314 313 311 311 311 310 309 308 307 307 306 305 305 304 303 302 302 302 302 302
317 316 317 314 315 316 318 317 316 316 318 319 318 316 315 314 314 314 314 317 319 316 318 318 318 314 315 315 314 314 312 311 311 309 309 308 307 306 306 305 303 302 301 301 301 301 301 301 301
319 317 318 316 316 316 319 318 315 315 315 316 315 315 314 314 314 314 312 313 314 315 314 313 312 312 312 314 312 311 311 311 310 307 306 305 304 304 302 301 300 300 301 300 300 300 301 301 302
321 319 318 315 318 320 315 320 318 317 317 317 317 316 316 316 313 312 311 311 312 311 312 312 312 312 312 311 311 310 310 310 307 305 304 303 302 300 300 299 299 299 299 299 297 298 299 300 298
321 319 318 318 315 315 317 318 318 316 319 318 316 316 315 314 312 311 312 313 313 313 312 312 312 312 311 311 310 310 309 306 305 303 301 301 300 299 299 300 299 299 298 298 297 297 297 296 295
318 319 319 318 317 319 320 318 318 317 317 316 315 315 315 312 311 312 313 313 311 310 310 309 310 310 310 310 309 308 307 304 303 302 304 304 302 302 301 300 299 298 298 297 297 296 294 292 292
317 320 322 322 318 320 319 321 319 316 315 316 316 314 312 311 312 313 311 310 310 311 311 311 312 312 310 309 307 306 304 302 302 304 304 302 302 302 300 299 298 297 296 295 292 291 291 290 289
317 318 320 324 319 320 317 322 319 315 315 315 314 313 312 314 310 307 308 309 308 309 309 309 308 307 306 305 304 303 304 304 304 304 303 302 301 301 299 298 296 294 294 293 291 289 289 289 289
319 315 315 317 313 317 317 317 316 315 316 315 315 313 309 308 307 306 307 307 306 306 306 306 306 305 305 305 305 304 303 303 302 301 300 300 300 299 298 296 295 293 293 291 290 289 289 289 289
315 315 317 313 316 317 317 319 318 315 316 313 311 310 308 306 306 305 305 304 304 304 304 305 305 303 300 300 300 301 302 301 301 301 300 299 299 297 297 296 294 293 291 290 290 289 289 288 288
317 317 314 315 312 314 314 318 312 314 313 312 311 309 308 306 305 304 303 303 302 300 300 299 298 296 295 294 294 294 293 293 293 294 298 299 297 296 295 294 292 292 290 289 289 289 288 288 289
316 317 312 310 318 310 308 313 311 312 311 311 310 308 306 305 304 303 303 301 299 296 296 295 295 294 294 293 292 292 292 291 292 295 296 295 294 292 292 292 292 290 289 288 288 288 288 288 287

GFSSGP_925_thetae_006.txt.gz
Theta_e
311 308 310 311 310 313 316 316 324 331 338 336 337 341 344 344 343 344 340 340 340 341 341 340 339 337 336 335 334 333 334 333 331 331 332 328 323 319 316 311 309 311 322 324 323 319 314 314 315
308 310 313 309 312 314 313 316 336 337 336 333 334 336 342 344 342 340 340 340 340 341 341 340 339 337 336 335 334 335 335 333 332 331 326 321 318 317 315 310 309 310 310 311 312 309 309 310 310
308 313 309 310 310 312 314 330 336 334 332 332 332 330 334 343 341 339 340 341 340 341 341 340 338 337 336 336 336 336 335 332 331 326 321 318 317 316 315 310 308 308 308 308 308 307 307 307 307
312 310 306 311 313 313 317 328 334 334 331 331 332 336 331 336 339 340 341 341 340 340 339 339 338 337 337 336 336 335 332 331 327 322 318 318 316 316 314 308 306 307 306 309 311 311 308 307 307
313 305 309 311 312 312 313 326 328 333 332 331 330 334 335 341 340 341 341 340 340 339 338 337 337 337 336 336 334 332 331 327 321 318 318 316 314 313 308 310 309 311 314 315 315 315 314 312 313
309 305 310 312 313 317 321 327 333 332 331 332 335 333 334 341 341 342 341 340 339 339 338 337 337 336 335 332 332 332 328 322 319 318 316 315 313 311 316 316 316 316 315 315 315 315 315 314 314
309 307 311 314 320 319 318 329 331 331 332 332 329 332 337 340 341 341 340 339 339 340 338 338 336 335 333 334 331 327 324 320 318 317 317 318 314 318 319 318 317 317 316 316 316 315 315 315 315
307 307 314 319 319 323 313 322 327 330 332 326 326 339 342 337 340 340 339 338 338 341 342 342 337 336 335 332 327 323 321 318 318 317 321 321 321 322 322 320 319 318 317 317 317 316 316 316 316
307 309 312 317 323 322 315 321 316 324 328 326 324 330 336 340 339 337 337 336 337 337 342 338 337 334 329 327 323 321 319 318 317 321 323 322 323 323 323 322 321 319 318 317 318 318 318 317 317
310 309 311 311 314 324 324 322 324 329 329 326 324 332 338 340 337 335 335 335 336 339 341 335 331 327 326 323 319 317 317 318 322 325 324 324 324 324 323 321 319 318 317 318 318 318 319 319 318
310 312 309 313 312 311 317 317 320 328 330 326 330 334 333 337 337 335 335 334 330 326 330 327 324 322 320 318 317 317 320 322 326 327 326 325 325 324 320 318 317 317 318 318 319 319 318 318 318
311 309 309 310 311 310 316 311 326 320 325 325 329 332 330 332 332 332 331 330 329 328 326 324 323 319 317 317 318 320 324 325 325 326 325 324 324 322 319 318 318 319 319 318 317 317 317 318 317
311 310 310 308 308 307 308 313 320 313 322 321 325 329 328 329 328 328 326 325 327 327 328 327 325 321 320 319 322 324 325 327 327 327 326 325 325 323 319 320 320 318 316 315 314 313 314 315 315
310 308 309 309 307 307 309 311 313 313 322 321 324 326 324 326 324 325 325 326 327 328 328 329 328 325 323 325 323 324 326 328 328 328 327 327 324 323 320 320 315 312 311 311 311 312 312 312 311
308 309 309 309 311 311 310 313 312 316 323 322 321 321 319 320 320 320 322 325 328 330 330 330 330 329 325 326 325 326 327 327 328 329 329 326 322 321 316 313 311 310 310 310 311 310 309 308 307
309 308 309 310 313 311 309 309 308 318 324 324 322 323 320 317 318 321 322 321 323 326 329 329 329 328 327 327 326 323 323 325 322 319 316 315 314 312 311 310 310 309 309 309 307 306 305 305 304
308 310 312 314 312 313 311 313 312 310 322 319 318 318 318 317 317 319 321 321 321 322 328 329 328 328 325 323 325 321 315 314 313 313 312 311 311 310 310 310 308 308 307 306 304 303 302 302 302
310 311 311 313 313 313 313 318 316 315 316 317 315 315 315 314 314 316 322 323 323 327 330 330 327 326 324 323 321 311 312 312 313 312 311 310 310 309 307 306 306 305 305 304 302 301 300 300 300
312 312 312 312 312 316 317 317 316 317 316 315 314 314 314 313 313 316 317 322 325 326 328 327 327 323 317 314 314 313 313 312 311 310 308 307 306 305 305 304 303 302 301 300 299 298 298 298 300
314 314 314 315 315 316 317 315 313 314 315 316 315 314 314 313 312 313 313 317 321 323 324 319 317 316 315 315 315 316 314 311 309 306 305 304 303 303 302 301 300 299 299 298 297 296 296 298 300
318 315 316 316 318 316 318 318 315 315 316 316 315 314 314 313 313 311 310 311 313 313 314 313 313 312 312 311 311 311 310 310 308 305 303 302 302 301 300 299 300 300 298 298 297 297 296 298 298
320 317 315 317 318 321 315 323 318 317 319 317 317 314 314 313 310 309 309 310 310 310 310 311 311 311 311 310 310 310 310 309 306 304 301 302 302 301 302 302 301 300 298 298 297 297 296 297 296
320 315 315 314 314 314 317 319 316 317 320 318 316 315 314 312 310 309 310 310 310 310 311 310 310 310 310 310 309 309 308 305 304 302 303 303 303 302 301 301 301 299 298 297 296 296 296 294 293
317 318 317 316 316 317 317 317 317 317 318 317 315 315 313 312 310 310 310 310 310 310 310 310 311 310 309 308 307 307 306 304 303 303 303 303 302 302 301 300 299 298 296 295 294 292 291 290 289
316 318 321 321 317 320 318 318 317 316 315 317 316 314 312 311 310 310 308 308 308 309 309 309 308 305 304 304 303 303 303 303 302 302 302 302 301 301 300 299 297 295 293 293 292 290 290 289 288
316 318 319 322 319 320 317 321 318 314 313 314 314 313 310 311 308 307 306 306 307 306 306 305 303 302 303 303 302 302 302 301 301 301 301 301 300 300 299 298 296 294 296 292 291 289 289 288 288
317 315 314 316 312 317 316 317 316 314 314 314 313 311 310 307 305 304 305 305 305 305 304 304 304 301 299 298 297 297 298 296 293 293 293 293 296 299 298 297 295 295 293 292 291 290 289 288 288
316 313 315 312 316 317 316 318 318 317 316 314 312 310 307 305 305 303 302 302 302 303 304 303 298 296 296 295 295 294 293 292 290 290 290 292 296 297 297 296 294 292 292 291 290 289 289 288 288
316 315 313 313 310 312 312 316 312 314 315 312 310 308 306 305 303 301 301 300 300 300 299 298 297 296 295 294 293 293 292 291 291 290 290 293 297 296 295 294 294 293 291 290 289 288 288 288 288
315 315 310 308 313 308 306 311 309 309 310 310 309 307 305 303 302 301 301 298 296 296 296 296 295 295 294 293 293 292 292 292 291 291 291 293 295 295 295 293 292 293 291 289 288 288 288 288 287

GFSSGP_925_thetae_009.txt.gz
Theta_e
312 308 309 313 316 317 318 318 325 337 342 339 340 342 344 342 342 346 340 340 339 341 341 339 337 335 334 333 333 334 334 332 332 332 329 323 319 316 312 312 317 323 324 322 318 311 309 309 309
308 309 313 314 316 316 317 317 338 339 338 333 333 334 338 340 338 340 341 340 340 341 341 339 337 336 334 333 333 334 333 332 331 328 323 319 317 315 311 311 311 310 312 311 308 307 307 307 306
308 313 315 317 316 316 318 334 337 335 334 333 333 332 337 337 337 340 340 341 341 341 340 338 337 336 335 334 335 335 333 331 329 323 319 318 316 315 310 308 308 308 308 309 309 307 306 306 308
311 313 311 317 317 316 318 336 335 334 332 332 331 333 336 337 339 338 341 340 340 340 339 338 338 336 335 335 336 334 331 330 325 320 318 317 316 314 308 307 307 311 314 314 313 312 312 312 311
311 310 315 315 314 315 317 334 334 335 332 332 330 335 338 341 340 341 341 340 340 339 339 338 337 336 336 336 335 332 330 328 322 318 318 315 314 308 310 310 314 315 315 314 314 314 313 313 314
316 311 315 315 316 318 323 330 333 333 332 331 335 337 340 341 342 340 340 340 339 339 338 338 336 336 336 335 333 331 328 322 318 318 316 314 311 314 316 316 316 316 316 316 315 315 315 315 315
314 313 316 315 323 323 331 332 333 333 333 334 331 340 341 341 341 340 339 339 339 338 338 338 337 336 335 333 332 330 325 319 318 317 317 314 316 318 317 317 317 316 317 316 316 315 315 315 316
312 313 315 322 329 329 322 331 331 330 331 328 333 342 344 338 340 340 340 339 339 338 338 337 337 336 333 332 332 327 323 319 318 317 319 317 319 320 319 318 317 317 316 316 316 316 317 316 316
308 315 322 322 327 330 325 331 321 327 331 328 325 338 338 340 341 339 338 338 337 337 337 336 339 334 334 333 329 325 321 319 318 319 321 321 321 322 321 320 318 317 316 316 317 317 318 318 318
314 316 317 316 325 327 325 323 329 330 330 327 336 339 340 339 339 337 337 337 337 337 336 336 339 337 335 331 326 323 321 319 319 322 322 322 323 323 323 321 318 317 317 317 318 318 318 318 319
312 317 312 313 317 326 324 320 326 331 331 329 339 338 336 337 336 336 335 336 335 336 335 338 339 334 331 329 325 322 320 320 323 325 325 325 325 325 322 319 317 317 318 319 318 318 318 318 317
314 312 310 315 313 316 322 321 330 328 325 327 337 339 337 336 335 335 335 334 334 334 333 332 331 329 328 325 323 322 321 322 325 327 327 326 326 325 320 318 318 319 318 316 314 313 313 314 315
312 311 309 309 310 318 312 323 328 316 325 330 336 338 339 339 337 334 332 331 331 331 327 328 328 326 324 323 322 322 324 325 327 327 328 327 326 324 319 319 318 315 312 311 311 311 312 312 311
313 310 310 309 309 309 314 311 315 317 324 333 336 337 336 334 332 328 327 327 327 328 327 328 327 325 324 324 324 324 325 326 326 326 325 325 323 322 320 316 311 311 310 310 310 310 310 309 308
309 311 311 311 311 311 312 313 311 317 323 329 334 330 328 326 325 326 324 324 325 327 328 328 327 326 324 325 325 319 320 319 321 324 324 324 320 317 313 312 312 311 310 309 309 308 306 306 305
311 311 314 312 313 311 311 313 316 316 324 324 325 325 324 321 320 320 320 320 323 325 328 328 328 326 326 325 322 322 321 321 320 318 314 312 313 313 310 310 309 308 307 307 307 305 306 305 304
312 313 313 314 314 313 315 316 319 317 324 323 323 323 322 322 320 320 322 320 320 325 327 327 328 326 325 324 323 323 319 316 314 313 311 311 310 309 308 307 306 306 306 305 303 303 302 304 302
314 314 313 315 314 318 320 321 320 319 323 322 322 322 321 321 319 319 321 323 325 327 327 327 327 324 323 324 324 316 312 311 312 311 309 308 307 306 305 305 304 303 302 301 300 300 301 301 300
312 313 314 313 316 321 320 321 320 319 320 321 321 321 321 320 317 318 320 324 327 327 328 327 325 324 325 323 313 312 312 312 310 309 308 307 305 304 303 302 300 299 300 300 299 298 298 299 300
315 316 318 318 317 320 320 322 320 319 319 319 320 321 321 319 318 317 320 323 325 326 325 325 323 320 317 315 314 314 314 310 308 306 305 304 303 302 300 301 302 302 300 299 298 297 299 299 300
317 318 316 320 320 319 322 323 323 321 320 319 318 318 318 319 318 316 317 318 319 317 316 317 315 314 313 313 312 311 310 309 307 304 303 302 303 303 302 301 301 301 300 299 298 299 299 299 298
321 315 319 321 321 323 317 322 323 323 322 321 319 319 318 316 314 311 310 310 310 311 311 311 311 310 309 309 309 309 309 309 305 302 303 303 302 302 301 301 300 300 299 298 298 297 296 296 295
320 317 319 316 317 319 320 324 320 321 325 323 320 318 316 313 313 311 310 309 308 308 308 308 308 308 308 308 308 308 307 305 303 303 303 302 302 302 301 300 300 299 297 296 295 294 293 293 292
317 319 319 318 319 324 319 320 322 323 324 323 320 318 316 314 313 311 310 309 308 308 308 309 308 306 305 305 303 303 303 302 302 302 302 302 302 302 301 300 299 298 296 294 292 291 290 291 290
319 322 326 326 327 324 319 321 322 319 319 321 320 318 316 315 313 312 311 309 307 307 306 304 304 303 303 303 303 302 302 301 301 301 300 300 299 298 299 299 298 296 293 294 293 292 289 290 290
318 321 327 326 327 324 319 325 322 316 316 319 318 318 316 315 313 312 308 306 305 304 303 303 303 302 301 300 298 297 296 295 293 292 291 292 293 294 294 298 296 294 295 292 292 292 291 291 290
317 319 316 320 314 321 320 319 318 315 316 317 317 316 316 314 312 310 307 305 304 303 303 303 300 297 296 296 295 294 293 292 291 291 290 290 290 294 296 297 295 296 294 293 293 292 292 291 290
317 314 319 318 321 320 318 320 322 319 318 317 317 317 315 312 310 307 304 304 304 303 300 297 297 296 295 295 294 293 293 292 292 291 291 290 290 295 297 296 295 295 295 293 292 291 291 289 290
318 317 315 315 315 317 318 318 316 319 318 318 318 315 314 311 309 305 303 301 302 299 297 296 296 296 296 294 294 294 293 293 292 291 291 290 291 294 296 296 295 295 293 292 290 289 288 288 289
315 316 315 318 314 313 316 318 312 313 314 316 314 312 311 309 305 303 301 299 298 297 296 298 297 296 295 294 293 293 293 292 292 291 291 290 291 292 293 293 293 292 292 292 289 288 288 288 289

GFSSGP_925_thetae_012.txt.gz
Theta_e
318 315 311 317 321 322 325 324 332 343 344 341 342 343 343 342 346 349 342 342 342 343 342 338 332 332 332 332 333 333 332 331 332 331 326 321 317 313 311 312 315 320 323 319 310 308 307 307 307
313 311 315 319 319 323 324 321 330 342 337 333 333 336 338 336 340 342 341 343 343 343 341 340 334 333 332 333 334 334 332 332 331 326 321 317 315 312 311 312 313 312 311 309 307 306 306 308 311
311 313 319 319 319 322 320 325 339 337 334 332 331 332 334 334 335 339 341 343 343 343 341 341 335 334 334 334 334 334 332 331 327 321 318 316 315 310 309 309 308 309 312 313 312 310 310 311 309
311 315 318 319 322 319 322 334 336 335 333 332 330 332 332 330 335 338 342 342 341 341 342 339 336 335 334 334 334 333 331 329 324 319 318 317 315 309 308 307 313 315 314 313 312 312 312 313 313
313 317 319 320 320 318 319 335 335 334 332 332 332 333 333 336 339 340 341 340 340 341 342 338 337 336 335 335 335 333 330 327 322 319 318 316 311 308 309 314 315 315 314 314 313 314 315 315 315
316 318 319 322 322 323 322 333 336 333 329 332 333 335 336 342 341 342 342 342 339 340 340 340 337 335 335 335 335 331 330 326 321 319 317 314 311 314 315 315 316 316 316 315 315 315 316 315 315
318 318 320 319 325 329 329 334 335 331 333 332 334 338 343 342 341 341 342 340 340 341 341 339 338 336 335 336 333 331 327 322 319 319 316 313 316 317 317 317 317 317 317 316 316 316 316 316 317
318 317 319 324 329 336 334 329 326 329 332 333 335 340 346 342 341 341 341 341 341 341 340 339 338 338 338 336 333 331 325 321 320 319 317 316 319 318 318 318 317 317 317 317 317 317 317 317 317
317 317 320 328 332 331 330 328 327 329 332 334 332 337 339 341 340 340 340 340 340 339 339 339 337 337 336 335 334 329 324 321 319 322 320 322 325 325 325 321 317 316 316 317 317 317 318 318 321
318 319 321 327 330 329 327 325 329 333 334 332 339 340 341 341 341 340 340 339 339 339 338 338 338 338 336 332 331 330 327 326 327 328 328 327 329 328 326 323 317 317 317 318 318 318 319 321 319
319 319 321 327 326 325 325 325 326 333 335 332 340 342 340 340 340 339 337 339 337 337 337 337 334 334 334 331 329 326 325 326 328 330 330 329 330 329 327 325 324 324 320 321 320 320 319 319 318
319 318 317 324 327 327 325 324 331 331 328 330 338 341 340 339 338 338 336 332 333 334 334 335 334 334 332 328 325 325 326 328 329 330 331 330 329 328 326 324 323 323 321 319 318 317 318 318 316
318 318 315 315 321 326 324 329 330 325 331 335 338 339 340 337 335 332 330 330 330 330 332 333 332 331 330 327 326 327 329 330 330 331 328 325 326 327 326 324 322 319 317 317 316 316 315 314 313
317 315 314 314 319 319 325 325 326 323 332 335 338 338 338 336 333 331 329 328 328 329 332 332 330 329 327 326 327 328 326 321 322 323 325 324 321 319 324 320 317 317 316 315 314 313 312 312 311
315 314 314 314 319 318 320 317 320 323 329 335 335 336 337 335 332 328 327 326 326 329 332 332 330 328 328 328 324 321 322 320 320 321 322 323 322 321 315 317 316 315 313 312 311 311 310 310 310
315 316 317 315 317 315 315 316 321 325 329 335 335 335 333 330 328 327 327 326 325 328 331 331 329 328 328 322 322 320 318 322 321 320 314 313 313 313 310 313 313 311 310 309 310 309 309 309 308
315 315 316 315 318 317 316 316 321 327 329 330 332 332 331 329 327 327 327 326 326 329 332 332 330 330 327 322 323 322 322 320 318 315 313 312 310 311 312 311 310 309 309 308 308 307 306 306 306
315 314 315 315 320 317 318 322 321 327 329 329 329 330 330 329 327 326 328 329 330 330 331 332 330 329 327 324 323 322 316 315 314 313 311 310 310 309 309 309 308 307 306 306 306 305 305 304 304
316 317 316 318 321 323 322 322 322 325 329 330 329 329 329 329 326 327 329 329 330 330 330 331 329 328 326 324 321 317 317 317 313 311 309 309 308 307 307 306 306 306 306 306 305 304 304 303 303
317 316 320 320 321 323 324 325 323 323 326 329 330 330 329 328 328 328 329 330 331 331 330 329 328 327 325 322 319 319 319 316 311 309 308 307 306 306 305 306 305 305 304 304 304 303 302 301 302
320 320 322 321 321 323 324 325 325 324 323 324 326 327 327 328 329 330 329 329 328 327 326 324 322 320 319 318 317 316 315 312 311 309 307 306 306 305 305 305 304 304 303 302 302 302 302 301 300
322 320 321 322 322 321 323 322 326 326 326 326 326 327 327 328 327 324 323 323 320 319 319 318 317 316 314 313 314 314 314 314 310 307 307 306 306 305 305 304 303 302 301 301 301 300 300 298 298
323 321 323 322 323 323 323 323 327 326 327 328 327 327 326 324 322 320 318 317 315 315 314 313 312 311 312 312 312 312 310 308 307 307 306 306 306 305 304 303 302 301 301 301 301 299 297 297 297
321 322 322 322 323 324 323 323 323 328 327 328 327 324 323 321 318 316 314 313 313 313 313 312 311 310 310 309 309 308 307 306 306 305 303 301 299 298 297 297 300 301 301 300 298 297 297 296 294
323 323 324 323 325 325 323 324 322 323 324 327 327 323 321 319 318 317 315 314 313 313 311 310 309 308 308 307 306 305 303 301 299 298 296 296 295 295 295 296 297 299 299 298 298 296 296 294 293
324 323 323 322 326 321 323 322 321 321 322 325 325 322 320 320 318 317 315 314 313 311 310 309 308 307 305 302 300 299 297 297 296 296 295 295 294 294 295 297 298 299 299 297 296 296 295 293 292
321 323 322 325 322 326 322 323 323 321 321 323 324 322 321 320 319 317 314 312 311 310 310 307 305 302 301 300 298 297 297 296 296 296 295 294 294 294 295 298 299 298 298 297 296 295 294 292 291
321 320 323 324 325 323 320 321 320 323 322 322 323 322 321 320 319 316 313 311 310 309 306 304 302 301 299 298 298 297 297 297 296 296 295 294 294 294 295 297 298 298 297 296 295 293 292 291 290
321 320 318 320 322 317 315 316 321 322 323 322 323 322 321 320 318 315 312 310 309 306 304 302 301 300 297 298 297 297 297 297 296 295 294 293 293 293 294 295 296 297 296 294 293 293 291 290 290
320 320 318 318 318 320 323 317 317 320 320 322 322 321 321 320 318 314 310 309 307 304 302 301 300 300 299 297 297 297 297 296 296 295 294 293 293 293 293 294 294 295 294 293 293 293 290 290 290

GFSSGP_925_thetae_015.txt.gz
Theta_e
313 319 316 315 321 322 325 326 326 339 342 342 342 342 343 344 350 352 340 343 343 343 339 335 331 332 332 331 331 330 330 331 332 328 323 318 314 313 313 313 311 312 317 317 316 309 308 310 310
322 316 314 320 321 324 325 325 325 342 340 337 337 338 338 343 343 344 343 343 343 343 339 336 332 332 332 332 332 332 332 332 329 323 319 315 313 311 311 310 311 312 318 319 313 308 311 309 307
315 313 317 319 323 324 325 325 340 338 337 336 334 332 331 336 339 342 341 342 343 342 340 337 332 333 333 333 334 333 332 330 325 320 317 315 312 310 310 309 313 316 317 315 312 312 311 311 310
314 315 319 322 324 324 322 333 336 335 334 334 335 334 329 330 333 339 343 341 342 341 341 336 333 333 333 334 334 332 331 327 322 319 317 317 311 309 308 314 316 315 315 313 313 313 314 314 314
314 318 318 321 324 325 321 333 334 336 335 334 333 332 328 330 334 339 341 341 340 339 339 336 334 334 334 334 334 332 331 325 320 320 317 315 308 308 313 314 314 314 314 314 315 315 315 315 315
315 318 320 322 324 323 323 332 336 332 331 331 334 333 335 335 337 338 339 333 331 336 339 337 335 335 334 334 333 331 330 323 321 319 316 310 313 314 315 315 316 316 315 315 315 315 315 316 316
316 318 319 323 324 327 327 335 336 333 330 330 335 336 341 338 340 340 337 327 328 336 339 338 336 335 334 334 333 331 326 321 320 316 314 314 316 316 316 316 317 317 317 317 317 317 317 317 317
317 319 319 322 327 336 332 331 332 330 333 329 332 338 341 340 343 341 338 338 338 337 339 337 337 337 338 336 333 329 323 319 318 318 314 318 317 317 317 320 317 317 317 317 317 317 317 317 319
318 319 319 323 331 336 329 328 328 328 330 334 335 336 338 342 342 340 339 339 339 339 338 338 337 336 335 336 331 325 320 318 318 322 319 325 327 326 324 322 318 317 317 317 318 318 317 318 322
317 317 320 328 332 332 329 329 329 328 330 334 337 338 340 340 340 340 340 340 339 338 338 336 337 336 334 330 330 328 325 326 327 329 328 327 328 327 322 323 317 317 318 320 318 317 319 321 320
317 320 322 328 327 328 327 327 327 328 332 333 339 340 340 339 339 339 338 337 336 338 337 337 338 337 330 328 327 325 325 327 330 330 329 329 328 329 327 325 325 325 324 323 322 321 321 321 320
319 320 322 327 324 323 324 325 329 329 325 326 336 338 336 340 339 337 333 331 332 333 336 336 336 335 329 327 325 325 327 328 328 330 330 330 328 328 327 324 325 324 323 322 321 320 320 319 317
319 321 320 323 326 325 326 329 327 329 329 333 338 337 336 337 334 330 329 329 330 330 332 332 332 330 329 326 327 329 330 330 330 331 328 328 329 328 325 324 324 323 321 321 320 319 318 315 314
319 320 318 321 323 324 326 325 323 328 329 333 335 331 331 331 329 328 328 328 328 328 331 331 330 329 327 328 330 329 326 324 321 321 324 324 324 322 319 321 322 320 319 318 316 315 314 313 314
318 317 319 321 322 323 326 319 324 329 330 331 330 330 331 329 328 327 326 327 328 330 332 331 330 329 328 330 327 322 322 320 319 323 323 324 325 321 321 319 318 316 315 313 312 312 312 311 311
317 318 320 320 322 322 322 319 324 327 330 330 331 331 331 330 328 327 326 326 327 331 334 333 330 329 330 328 323 322 321 320 321 319 316 317 317 317 314 313 315 314 312 312 312 311 310 309 309
317 317 318 319 320 322 319 319 324 326 329 331 331 333 332 331 329 329 328 327 326 329 333 334 332 331 329 327 322 325 324 321 321 318 316 315 314 314 315 314 313 312 311 310 310 309 309 308 308
318 318 318 319 319 318 316 320 323 325 326 330 330 332 332 331 330 330 330 329 328 330 333 334 333 332 328 327 326 326 324 321 319 318 315 314 313 312 312 312 311 310 310 309 309 309 308 306 305
318 317 316 317 318 317 317 320 321 326 326 327 328 330 331 331 330 330 331 332 332 332 333 332 331 330 329 329 327 323 320 319 318 315 313 312 311 310 310 310 310 309 309 308 307 307 306 303 302
317 317 319 319 319 321 319 321 322 324 326 327 327 328 329 330 330 331 332 333 333 333 333 331 331 330 329 326 322 320 320 319 315 313 312 310 310 309 309 309 309 308 307 306 305 304 304 302 302
319 317 320 320 321 322 321 324 325 324 326 328 328 328 329 331 331 332 333 333 333 332 332 331 329 327 324 321 321 321 319 315 314 313 311 310 309 309 308 307 307 306 305 303 302 302 303 302 301
321 321 321 320 323 322 322 321 325 326 326 326 327 329 330 330 331 332 332 332 330 329 327 325 323 321 321 318 317 317 317 316 314 312 311 310 309 308 307 305 304 304 303 302 301 301 301 300 300
325 322 323 322 322 324 323 322 326 327 326 327 327 327 328 330 331 329 326 325 323 322 321 320 318 315 316 316 316 315 314 312 310 310 309 307 305 301 300 299 299 300 301 302 302 301 300 299 299
323 323 324 323 323 325 321 323 325 328 327 327 328 329 329 329 326 323 321 319 319 318 317 316 315 315 314 314 313 312 310 308 307 303 301 300 298 298 297 297 298 298 300 301 301 300 299 300 298
322 323 324 323 325 324 323 323 322 322 326 326 329 329 328 326 323 320 319 318 317 317 317 315 314 313 312 310 308 306 303 301 300 299 298 298 297 297 297 297 298 299 299 300 299 299 299 298 296
323 322 323 322 323 321 324 322 321 324 323 324 328 327 327 324 321 319 318 318 317 317 315 314 313 312 309 305 303 301 299 299 299 298 298 297 297 296 296 296 298 299 299 300 298 298 298 297 295
322 323 323 325 325 325 321 320 322 324 323 324 328 327 325 323 321 320 318 318 317 316 314 314 312 308 305 303 301 300 299 299 299 298 298 296 296 295 295 296 297 298 299 299 298 298 297 296 294
323 322 323 321 323 323 319 320 318 324 323 324 327 327 325 323 321 320 319 317 316 314 314 311 308 306 305 302 300 299 299 299 299 298 297 296 296 295 295 295 296 297 299 298 298 296 295 294 293
323 321 321 322 324 323 318 319 320 318 322 323 325 326 325 323 321 321 318 316 315 314 311 308 306 306 303 301 300 300 300 299 298 298 297 296 295 295 295 295 295 295 296 296 296 295 295 295 293
323 323 322 322 320 321 325 319 318 320 321 322 323 324 324 323 322 321 318 316 314 312 309 307 306 304 302 301 300 300 300 299 298 298 297 296 295 295 294 295 295 295 294 294 294 294 294 293 292

GFSSGP_925_thetae_018.txt.gz
Theta_e
309 313 319 319 316 321 322 323 324 334 344 341 339 340 344 346 351 352 344 343 339 337 331 330 329 329 329 328 328 329 331 332 329 323 318 315 315 314 315 313 315 318 322 320 317 313 309 308 308
316 320 320 316 317 321 323 324 333 342 341 338 338 338 340 347 344 343 344 343 340 337 334 332 331 331 331 330 331 332 333 330 324 319 316 314 313 312 311 311 314 319 323 321 319 311 310 311 311
321 320 314 316 319 322 323 326 333 339 336 336 334 334 332 342 343 342 344 343 341 337 336 334 332 332 332 332 333 333 331 325 321 317 315 312 310 309 309 315 317 321 320 317 313 313 313 313 312
316 315 315 318 321 322 323 330 337 337 333 335 334 334 330 332 338 342 342 342 341 339 337 332 333 333 333 333 332 331 326 322 319 316 316 310 308 308 315 314 314 314 313 313 314 314 314 314 314
317 315 315 317 320 321 325 333 336 335 333 335 334 330 329 333 337 342 341 341 340 339 335 333 333 334 334 333 332 329 324 320 318 315 314 307 308 314 314 314 314 314 314 314 314 315 315 315 315
315 316 317 319 319 323 326 334 334 332 332 335 334 330 335 334 337 340 340 339 337 333 331 333 333 334 334 332 331 328 322 319 317 314 309 312 313 314 315 315 315 315 315 316 316 316 316 316 315
317 316 317 320 321 325 336 334 333 331 334 334 333 335 337 336 340 334 330 330 333 331 334 324 331 334 334 332 331 326 319 317 315 313 312 315 315 315 315 315 316 316 316 316 317 317 317 316 319
316 317 318 319 320 335 333 333 331 329 330 330 327 330 340 341 336 334 329 328 326 328 332 333 333 333 334 331 328 321 317 317 316 312 316 315 316 316 323 325 318 316 316 316 317 317 316 317 317
317 316 318 320 328 331 329 330 329 331 332 327 330 336 340 342 338 331 330 329 329 329 333 335 336 334 332 330 325 319 316 316 319 317 324 326 327 327 326 323 315 315 316 317 317 316 318 321 322
316 317 319 331 332 330 329 329 328 329 335 335 332 326 341 340 339 338 337 332 329 332 335 335 335 334 334 328 327 322 323 327 327 328 327 329 326 325 320 325 324 323 324 321 323 321 321 321 320
317 317 319 328 328 328 330 328 326 327 330 334 339 339 339 338 338 337 337 337 336 336 336 336 335 334 331 329 327 326 327 328 328 328 330 328 327 328 327 327 327 325 325 324 322 322 322 320 319
317 317 320 326 329 328 329 328 327 323 325 325 330 335 338 338 337 337 335 337 337 337 336 335 333 332 328 327 326 327 328 331 331 331 331 331 330 329 327 326 325 324 322 321 321 320 318 317 314
317 320 321 327 327 328 327 327 328 325 325 325 328 331 336 336 332 330 330 332 334 335 334 334 334 330 326 326 328 330 330 329 326 327 326 325 326 327 325 320 319 321 321 320 319 316 314 313 313
318 320 321 323 327 326 327 325 329 327 325 326 332 332 333 332 329 329 328 330 329 333 332 332 331 329 328 330 330 327 323 319 320 325 322 322 326 327 322 322 321 320 318 315 313 312 313 312 311
319 319 319 322 323 326 325 328 325 328 328 332 329 330 329 329 327 327 328 328 328 332 332 331 330 328 329 331 328 321 320 320 319 319 320 321 325 323 321 319 316 316 313 313 312 312 311 310 309
318 319 320 320 321 324 325 322 323 328 328 328 328 328 328 327 326 327 327 328 329 331 331 331 330 327 331 329 325 322 322 321 320 320 318 318 318 316 315 316 315 314 312 312 311 310 310 309 309
318 318 320 321 321 322 322 321 322 327 328 329 330 329 330 328 327 327 326 326 330 334 333 331 330 330 330 327 323 324 323 323 322 319 317 316 315 315 314 314 313 311 311 310 310 310 309 309 307
318 318 319 320 319 321 319 321 323 324 329 330 329 330 330 330 329 329 328 327 327 334 335 333 331 332 329 327 324 327 326 323 320 319 316 315 313 313 313 312 311 311 310 309 308 308 308 307 304
319 319 319 318 320 319 318 320 322 324 326 328 330 331 331 330 330 330 330 330 329 334 335 333 333 330 329 328 328 327 323 320 318 315 314 313 311 310 310 311 310 309 309 308 306 305 304 305 304
318 319 318 318 317 317 317 319 320 323 324 327 328 330 331 331 332 331 332 333 332 334 335 333 331 329 329 329 326 322 321 320 316 314 312 311 311 310 309 309 308 308 307 306 304 302 303 304 303
318 320 320 319 318 316 323 319 320 321 324 325 326 327 328 331 332 332 333 334 334 334 333 331 330 329 330 326 322 322 319 316 314 314 312 311 310 309 309 308 306 305 305 304 303 302 303 303 301
321 322 321 320 322 321 322 323 323 324 323 324 326 327 328 329 331 332 333 334 333 331 331 331 331 329 323 321 321 320 317 315 314 312 311 311 310 307 303 301 299 299 300 302 303 302 302 301 301
322 322 322 321 320 325 325 325 327 326 327 325 327 329 329 331 331 332 333 333 333 332 331 327 323 322 320 318 318 317 315 313 311 309 306 303 301 299 299 298 298 298 298 299 301 302 302 300 300
323 323 323 320 322 330 325 325 327 326 325 327 326 327 329 330 331 331 330 328 326 325 322 320 317 317 317 316 315 313 310 308 304 301 300 300 299 298 298 298 297 298 299 299 301 301 300 300 299
320 320 323 331 331 330 323 324 329 325 326 331 330 327 329 331 330 328 325 323 323 321 318 317 316 316 315 313 310 306 304 302 301 300 299 299 298 298 297 297 297 298 299 300 300 300 298 299 298
324 319 327 331 331 327 324 325 322 326 326 326 328 329 330 329 327 324 322 320 319 319 318 316 315 314 312 308 304 302 302 301 299 299 299 298 297 297 296 296 296 297 299 300 300 298 299 298 297
319 322 322 323 328 329 321 319 323 323 323 322 329 329 329 328 324 322 320 319 319 318 317 316 314 312 308 305 303 302 300 300 299 299 299 297 297 296 296 296 296 296 297 298 299 299 297 297 296
321 321 325 323 325 324 320 320 324 325 323 323 327 329 328 326 323 321 319 319 319 318 316 315 314 309 306 304 302 301 300 299 299 299 298 297 297 296 296 295 295 295 296 298 299 298 297 296 295
322 321 321 320 329 334 331 320 319 320 322 323 324 329 327 326 323 321 320 319 319 317 316 315 312 307 306 303 302 301 300 300 299 299 298 297 297 296 295 295 295 295 295 295 295 295 295 294 294
322 324 321 335 325 331 333 323 319 319 319 321 323 325 327 325 323 321 320 319 317 316 316 313 310 307 305 303 301 301 300 300 299 299 298 297 297 296 295 295 295 295 295 295 294 294 295 294 294

GFSSGP_925_thetae_021.txt.gz
Theta_e
311 309 314 319 313 311 315 317 323 340 341 337 336 345 348 347 351 349 342 339 334 332 334 336 336 333 328 328 329 330 331 327 320 317 316 315 313 313 312 313 314 315 320 321 318 312 311 311 312
311 312 316 316 309 310 313 318 341 339 338 333 332 337 342 349 343 343 341 337 330 329 329 331 329 328 328 329 331 332 328 321 317 315 314 312 311 311 314 316 316 318 322 322 318 313 312 312 312
312 318 316 309 308 311 314 327 338 335 333 333 332 327 335 346 343 343 340 336 331 333 330 329 329 329 330 332 333 329 323 318 316 314 311 310 309 314 316 316 316 319 321 318 313 313 313 312 314
317 313 308 310 312 314 315 328 335 335 333 333 332 330 328 338 341 343 339 334 335 335 331 331 331 332 332 333 330 325 320 317 315 312 309 307 313 313 313 313 313 314 314 313 313 314 313 313 315
318 311 308 311 313 317 322 333 333 334 333 334 332 329 330 339 341 341 339 338 338 335 333 333 333 333 332 332 326 321 318 315 314 310 307 310 313 313 313 312 313 314 314 314 314 315 314 318 317
315 309 310 311 312 322 333 331 331 331 333 334 334 334 335 339 339 339 339 338 335 334 333 333 334 333 332 330 324 319 317 314 312 308 310 313 313 313 313 313 314 314 314 315 315 315 315 318 319
314 312 311 311 314 326 335 333 333 332 334 334 333 334 334 333 334 335 335 335 333 332 333 333 331 326 331 328 322 318 316 313 310 312 314 313 312 313 313 314 314 315 315 316 316 315 314 317 320
311 311 312 312 315 333 331 332 332 330 329 328 326 329 337 333 330 332 330 329 330 328 325 327 329 331 331 326 319 315 315 312 311 315 314 314 316 319 321 317 314 314 315 315 315 317 319 320 320
313 309 310 316 334 330 329 333 333 328 327 326 327 335 332 326 329 328 327 328 328 328 325 323 329 331 329 322 316 314 315 314 316 321 323 326 322 325 325 319 314 316 320 318 321 321 320 321 320
312 310 313 328 331 330 327 329 330 328 330 327 324 329 331 330 330 328 329 328 329 325 328 326 332 331 325 318 314 321 325 323 322 327 327 328 327 325 322 324 322 324 323 323 322 322 321 320 318
312 313 324 327 327 327 326 329 328 326 333 327 330 333 333 331 328 327 327 327 328 330 332 331 330 326 325 321 322 328 329 328 328 330 329 327 328 327 327 327 325 325 323 322 321 318 318 316 314
314 314 321 325 327 327 330 327 326 323 331 326 327 332 334 334 331 326 327 329 331 333 333 333 332 328 327 324 327 328 329 328 329 331 330 329 330 328 326 324 320 321 320 320 318 316 314 313 313
315 316 325 324 326 326 327 326 326 323 323 327 330 331 335 334 334 330 331 331 335 334 334 334 334 328 328 327 329 329 330 330 330 329 327 327 328 327 327 321 320 320 319 317 314 313 312 312 311
316 316 326 326 326 325 323 325 326 326 324 328 329 333 333 328 329 335 335 335 335 334 331 333 328 327 327 329 327 329 328 327 323 321 319 319 321 323 322 321 320 318 314 313 312 312 310 310 309
317 317 317 323 327 327 321 327 327 326 325 330 331 333 332 326 327 330 334 334 333 330 330 333 326 328 327 328 328 326 320 319 319 319 319 321 325 324 319 315 315 313 312 312 311 310 310 309 309
317 317 319 320 324 325 323 327 324 325 325 330 327 328 328 325 325 328 328 332 332 329 329 331 328 330 329 329 325 321 321 321 320 319 318 317 316 315 316 315 314 312 311 310 310 310 309 308 308
316 315 319 320 320 322 321 320 327 326 328 328 324 323 323 322 324 327 328 331 331 330 330 329 327 330 329 328 322 322 323 322 320 317 315 314 314 314 313 313 311 310 310 309 308 308 307 306 306
317 317 317 319 318 319 318 318 326 327 327 329 327 325 324 323 324 326 327 329 331 331 330 329 328 331 330 328 322 325 324 322 318 316 315 314 313 313 312 311 310 309 309 308 307 305 304 303 304
318 316 317 316 317 318 318 318 321 325 324 325 327 327 327 326 326 327 327 330 332 331 330 329 330 330 329 325 324 327 323 320 316 315 313 311 310 310 310 310 309 309 308 307 305 303 302 302 303
319 320 318 317 316 315 316 318 318 325 325 325 328 325 327 326 327 329 330 332 334 332 330 331 331 330 328 323 326 326 321 318 316 314 312 311 310 309 309 308 308 307 305 305 304 303 302 302 302
320 321 318 317 315 314 318 317 318 319 320 325 325 321 323 327 329 329 331 332 334 333 331 331 331 330 328 328 328 323 320 315 314 312 311 310 309 309 307 305 302 301 301 301 302 302 302 301 301
319 321 321 320 319 317 319 320 322 322 322 321 324 327 327 329 329 330 331 332 334 332 332 331 330 328 329 329 321 320 315 314 313 312 311 308 306 305 302 300 298 298 298 297 298 301 301 301 300
321 320 320 322 320 323 322 321 321 322 320 321 320 321 321 328 328 329 331 333 333 332 330 328 328 328 329 322 321 319 314 312 311 308 306 305 303 300 298 298 298 297 297 299 299 301 301 300 300
322 322 322 322 319 322 323 324 324 323 322 323 323 324 324 326 327 328 332 332 331 331 331 330 325 319 318 320 317 315 311 308 308 307 303 301 299 298 298 297 297 296 298 299 300 300 299 299 298
321 319 323 322 325 324 325 325 323 323 322 323 324 322 323 327 328 327 325 324 323 323 321 319 317 316 316 315 311 310 308 309 307 302 301 299 298 297 297 296 296 296 297 299 300 299 298 298 297
322 320 323 327 329 328 325 328 324 322 323 322 324 322 324 326 325 323 321 321 320 319 317 316 316 314 314 312 309 307 305 304 303 300 299 298 298 297 296 296 295 295 296 298 299 297 298 297 297
320 322 322 327 327 329 327 322 322 322 323 325 322 321 325 323 321 319 318 319 319 318 316 316 315 313 310 307 305 303 303 302 299 299 298 297 297 296 296 295 295 295 295 295 298 298 298 297 296
320 319 322 322 325 323 319 320 324 323 323 322 323 323 324 322 319 318 317 317 318 318 317 316 314 311 307 304 303 303 301 299 299 299 298 297 297 296 296 295 295 295 295 295 296 298 296 295 294
320 319 319 319 321 323 322 318 317 319 320 320 324 325 325 322 318 317 316 317 318 318 317 316 313 309 305 303 303 302 300 299 299 299 298 298 297 296 295 295 295 294 295 295 295 294 294 294 294
320 323 323 317 319 319 317 318 316 315 317 318 318 324 323 322 318 316 316 317 317 317 316 315 312 307 304 304 303 301 300 300 300 299 298 298 297 296 295 295 294 295 295 294 293 293 293 294 292

GFSSGP_925_thetae_024.txt.gz
Theta_e
312 311 313 317 312 308 312 313 315 328 338 335 342 345 347 346 350 343 339 337 337 344 342 340 338 333 328 327 329 330 324 318 315 314 312 311 311 311 312 312 314 315 317 313 312 312 312 313 315
312 311 315 312 307 308 309 312 332 338 335 331 329 340 345 349 343 341 339 337 339 340 340 339 336 328 327 329 331 327 320 316 313 312 311 310 311 313 313 312 313 314 314 313 312 312 315 316 317
312 316 318 314 304 308 309 322 337 334 332 331 330 326 339 347 342 341 338 338 339 340 339 337 329 327 330 332 330 322 317 315 313 310 309 310 315 314 313 312 313 313 313 312 312 314 315 317 317
316 311 308 308 309 309 312 317 334 334 332 332 328 330 330 339 342 339 336 334 335 337 335 329 328 329 332 332 324 318 315 314 311 309 309 314 313 312 311 311 312 312 313 313 313 318 317 316 317
317 307 307 308 310 323 331 330 332 333 333 334 329 331 335 338 337 337 334 335 336 336 331 329 330 332 332 326 320 317 314 312 309 308 312 311 311 311 311 312 312 313 314 314 314 317 319 316 316
314 305 309 308 312 333 333 331 331 333 333 333 332 335 339 335 337 336 335 335 335 334 333 332 333 332 329 322 318 316 314 310 307 310 312 312 312 312 312 313 313 314 315 315 314 315 318 320 318
314 311 312 312 313 315 335 331 332 332 332 333 329 332 336 334 335 335 333 332 333 332 334 331 328 325 327 322 319 314 312 309 309 312 312 313 313 313 313 314 315 315 315 314 315 317 320 320 319
311 310 312 311 314 328 329 331 329 329 332 326 328 331 335 332 332 331 331 330 329 327 324 325 327 329 326 320 316 314 310 310 313 313 312 312 313 314 313 314 314 315 315 319 320 319 321 320 319
308 311 310 310 332 329 328 331 329 326 326 324 326 335 331 330 330 330 329 328 326 326 325 321 328 329 324 318 315 313 310 314 314 314 314 323 323 323 315 314 316 318 318 321 321 321 321 320 318
311 309 312 319 329 328 326 326 327 329 329 326 331 330 330 328 327 328 329 329 327 324 324 320 326 329 323 317 316 314 313 316 319 323 324 326 325 324 323 317 318 323 323 322 322 321 318 315 315
312 312 320 326 326 325 324 327 327 331 333 327 334 330 329 328 328 327 329 326 326 325 323 329 330 329 320 315 317 315 317 323 325 326 327 327 325 325 325 324 324 324 321 319 317 316 314 314 313
313 312 322 325 327 326 328 326 324 322 331 324 333 331 329 328 327 326 328 327 326 325 323 328 331 326 318 318 324 327 326 327 330 329 328 328 326 325 325 321 322 321 318 317 315 314 313 312 310
312 318 322 324 326 326 327 325 323 327 323 325 332 331 328 328 327 326 327 328 328 329 328 330 332 325 321 323 328 329 329 330 330 329 329 328 327 327 322 320 319 319 318 315 313 312 311 311 310
314 322 323 325 325 324 323 325 324 325 326 328 332 332 328 328 327 326 327 328 329 331 331 330 328 327 325 326 327 329 330 329 327 326 327 327 325 323 321 320 318 316 314 312 312 311 310 309 309
317 321 324 326 324 324 322 325 326 324 326 328 330 333 333 329 327 327 328 330 333 333 332 332 330 330 327 326 329 329 329 326 322 320 319 320 322 323 319 317 314 312 311 311 310 310 309 309 308
316 317 322 324 325 324 320 324 324 324 328 330 331 331 328 333 330 330 331 333 333 332 333 334 332 328 328 329 328 324 320 319 319 319 320 322 320 315 316 314 312 310 310 310 309 308 308 306 305
314 314 317 323 324 324 321 322 323 324 327 329 325 326 326 331 332 333 332 332 332 331 332 329 329 328 329 328 323 320 321 320 318 316 315 315 314 315 313 311 310 310 309 309 308 307 305 303 303
317 316 317 318 317 322 319 319 326 325 328 327 325 324 322 326 327 332 332 331 328 328 332 329 329 328 327 325 322 322 322 318 316 315 313 313 313 313 311 311 310 309 309 308 307 305 303 302 302
319 318 315 314 315 317 317 325 327 326 326 326 325 326 324 325 324 327 331 330 328 328 331 328 329 329 328 323 323 323 322 318 315 315 313 312 311 311 311 310 309 308 307 305 304 303 302 301 302
319 318 317 316 315 314 316 323 327 325 325 324 324 326 326 324 323 323 326 329 329 329 329 328 328 329 328 327 324 324 323 318 315 312 311 310 310 310 309 309 308 306 304 303 303 302 301 302 301
320 319 320 318 313 313 314 315 326 324 323 322 325 325 326 325 325 326 326 329 329 329 329 328 329 329 329 329 324 325 321 315 312 311 311 310 309 309 308 306 304 301 299 298 298 301 301 301 300
319 318 320 319 316 314 315 317 319 320 325 324 325 324 323 324 325 327 329 330 330 329 330 329 328 329 329 326 325 325 318 313 312 311 311 309 309 308 304 300 299 298 297 297 298 299 301 301 300
319 318 319 320 318 319 319 318 317 319 319 325 326 326 320 322 326 328 330 331 330 329 329 330 329 329 328 323 327 324 318 314 312 311 310 308 302 300 298 298 297 296 296 298 299 300 300 300 299
319 321 320 320 319 320 324 318 317 321 319 320 322 326 323 323 325 327 331 331 330 330 330 330 330 329 328 328 325 323 318 313 311 309 304 300 298 298 297 297 296 295 297 298 299 299 299 298 298
320 317 319 320 320 320 323 322 320 319 320 318 318 318 320 324 326 329 328 330 330 329 329 329 328 326 327 327 318 317 314 312 310 306 302 299 298 297 296 296 295 295 296 297 299 299 297 297 297
319 318 318 322 324 323 324 326 322 320 318 319 320 319 323 325 328 329 326 324 324 324 323 324 320 315 316 318 315 311 309 309 307 302 300 298 297 296 296 295 295 295 295 295 297 298 297 297 296
321 319 319 323 324 326 324 323 319 321 321 320 320 322 325 324 325 323 320 320 319 317 318 317 315 313 311 311 309 307 305 303 302 299 298 297 297 296 296 295 295 295 295 294 295 296 298 298 296
321 318 321 320 326 327 319 318 323 322 323 322 322 319 324 322 322 321 320 317 316 316 316 316 315 314 312 310 307 304 303 301 300 299 298 297 297 296 296 295 295 294 294 295 295 296 297 294 294
320 318 318 319 317 320 321 317 312 320 320 319 319 319 322 322 321 320 319 318 317 316 315 315 314 313 310 309 307 304 303 300 299 299 298 298 297 297 296 296 295 294 294 295 294 294 293 293 294
319 319 318 315 317 315 315 318 315 314 316 317 320 320 322 322 320 319 318 317 316 316 315 314 313 313 311 307 306 304 302 300 299 299 299 298 298 297 297 296 295 294 294 294 293 293 292 292 293

GFSSGP_925_thetae_027.txt.gz
Theta_e
313 312 312 315 311 307 311 312 312 314 338 340 341 344 346 345 346 341 338 338 341 342 340 338 334 328 326 328 328 323 317 314 315 313 311 310 310 313 312 310 311 312 316 323 323 319 317 318 321
312 310 315 307 306 308 308 310 314 329 333 333 331 340 345 348 342 341 339 338 341 341 340 337 333 327 327 329 327 321 317 319 315 311 309 310 311 312 310 311 312 313 314 321 322 318 317 317 321
312 318 316 308 303 308 308 312 335 333 332 331 329 329 340 347 340 340 339 339 339 339 339 336 333 330 329 329 324 319 316 313 311 310 312 313 312 312 311 312 312 313 314 316 316 317 317 317 316
316 313 306 306 308 308 310 315 332 333 331 330 328 331 336 337 340 340 338 339 339 340 339 335 329 329 330 328 320 315 313 312 312 312 315 316 313 312 312 313 313 313 316 318 317 316 317 317 316
314 305 307 307 309 314 332 330 331 333 333 332 329 339 340 338 336 338 338 338 337 337 338 331 328 331 330 322 316 313 312 311 309 312 313 313 313 314 314 313 313 314 314 317 319 317 317 318 317
310 304 307 309 310 319 332 331 331 333 333 333 334 337 338 337 335 335 335 336 337 337 334 330 330 331 324 317 314 313 312 310 310 313 312 312 312 313 312 313 314 315 314 315 319 320 318 318 317
311 309 311 311 312 313 333 330 331 331 332 332 329 337 336 334 331 332 331 331 333 332 331 333 332 327 320 317 314 313 310 309 312 312 311 312 313 313 313 314 315 314 314 317 319 320 320 320 318
310 309 312 310 310 325 327 329 327 329 330 327 326 336 338 332 332 329 328 326 325 325 326 326 325 325 324 318 313 311 308 309 312 313 313 313 313 314 314 315 315 316 318 319 319 320 320 319 318
307 309 309 311 322 327 327 329 328 323 324 330 332 333 332 330 330 327 326 326 325 324 324 323 322 322 321 316 314 311 309 313 313 313 313 314 315 314 315 315 317 318 320 320 321 320 320 317 316
309 308 312 310 327 326 326 326 326 327 328 333 334 332 331 330 329 328 326 325 325 324 322 321 323 323 321 319 316 311 314 314 313 315 318 321 321 317 316 319 322 322 322 322 321 318 316 315 314
310 311 311 324 326 324 324 325 326 329 330 330 334 331 329 328 327 329 328 327 325 324 323 327 327 324 322 318 315 312 315 316 316 319 322 324 324 323 321 321 323 322 321 319 317 316 314 313 312
313 310 319 323 324 324 326 324 322 325 328 329 328 329 328 328 328 329 328 327 324 322 321 324 326 327 323 318 316 314 317 319 322 324 326 325 325 326 324 324 323 320 318 316 315 313 311 310 309
311 312 313 323 324 325 326 324 324 325 331 328 329 329 329 328 327 327 326 325 323 323 322 325 329 329 321 317 319 318 322 327 329 327 327 326 325 325 322 320 320 318 315 314 312 311 310 310 309
313 319 323 324 324 324 324 325 325 325 332 331 330 328 325 327 327 325 327 326 326 324 324 329 331 329 322 319 323 326 328 329 329 328 327 326 325 323 321 319 318 315 313 311 311 310 310 309 308
317 324 325 325 324 323 322 326 327 324 331 334 331 329 327 327 327 325 326 327 327 326 326 327 330 329 321 321 325 328 329 328 328 327 327 325 323 321 319 316 313 312 311 310 310 309 309 308 307
315 317 320 321 324 324 320 324 324 324 327 331 333 330 329 328 327 326 325 327 327 330 330 330 331 329 325 325 327 329 329 325 322 320 320 322 323 320 315 313 311 310 310 309 309 308 306 305 303
312 315 316 324 324 323 320 323 322 323 327 329 329 333 331 329 327 326 325 328 330 331 330 330 331 328 327 327 328 328 324 319 319 319 321 320 316 315 314 312 310 309 309 308 307 306 303 302 301
317 316 315 318 322 324 322 319 323 324 328 330 324 325 330 331 329 327 327 329 332 332 331 332 332 332 328 327 325 320 320 319 318 317 317 315 315 314 312 310 310 309 309 308 305 303 302 300 301
318 318 316 315 314 321 321 318 324 324 327 325 324 324 323 332 330 330 331 331 332 331 331 333 329 328 328 324 321 321 320 318 315 314 314 313 313 311 310 310 309 308 306 303 302 301 300 300 301
320 319 318 316 313 316 314 319 326 325 327 325 324 323 323 329 327 330 331 331 330 330 331 331 328 328 327 324 322 321 320 316 315 313 312 311 311 310 309 308 307 304 303 301 299 298 300 301 301
319 319 317 318 312 313 315 318 328 326 322 322 321 323 322 324 324 325 329 330 328 328 330 330 328 327 326 324 323 322 319 317 313 312 310 309 309 309 308 306 303 300 299 298 296 297 300 300 300
320 317 317 318 313 314 312 315 316 325 326 323 321 322 323 322 323 323 327 328 327 326 328 329 328 328 327 325 324 323 319 313 311 310 309 309 308 307 303 300 299 298 297 296 296 298 299 301 300
318 317 318 318 317 316 318 316 315 321 325 325 323 321 322 321 322 323 323 327 327 327 326 328 328 327 327 326 325 324 318 314 312 310 309 306 303 300 298 298 297 296 295 295 297 298 299 299 299
317 319 317 317 317 318 321 318 316 319 322 325 324 321 322 317 320 324 326 328 328 328 327 328 327 327 327 327 324 324 320 314 311 309 307 303 300 298 298 297 296 295 294 296 299 299 298 297 297
317 316 316 317 319 319 321 321 318 316 316 316 318 320 322 319 321 326 328 329 328 328 328 328 328 327 327 327 324 324 322 316 313 310 305 300 298 297 296 296 295 295 294 295 297 298 297 297 296
320 316 317 318 320 320 323 324 321 319 317 316 315 316 317 319 323 327 329 329 328 328 328 328 327 327 328 327 325 325 322 316 312 308 302 299 298 297 296 296 298 294 294 294 294 296 297 297 296
321 319 317 321 319 323 319 321 315 318 320 319 319 322 321 321 324 327 328 329 328 327 328 329 327 328 326 327 325 319 316 314 310 303 300 298 297 296 296 295 294 294 294 294 294 294 296 298 296
320 318 320 319 325 325 320 317 317 321 321 321 320 322 323 323 324 323 323 322 324 327 328 327 325 324 321 321 321 315 311 309 306 302 299 298 297 299 296 295 295 294 293 294 295 295 296 295 294
319 318 317 317 316 318 319 318 311 317 320 320 317 318 321 322 323 323 322 320 321 323 324 322 318 315 315 315 313 310 307 305 302 301 299 297 298 296 296 296 296 295 295 294 294 294 293 293 292
319 319 316 316 316 314 314 317 313 312 315 315 315 317 317 321 322 322 321 318 315 315 316 316 313 312 311 309 308 306 303 302 301 299 299 298 298 297 297 296 296 295 294 294 294 294 293 293 293

GFSSGP_925_thetae_030.txt.gz
Theta_e
312 311 311 312 311 306 310 311 310 312 340 339 341 344 343 343 342 341 338 338 340 340 339 333 328 326 326 325 320 315 312 310 310 311 311 311 312 314 317 322 325 325 325 326 323 320 321 322 323
311 311 314 305 306 308 306 308 318 330 331 331 329 340 345 347 341 340 338 340 339 339 338 333 328 326 327 324 319 315 311 309 309 309 310 311 311 314 318 321 324 324 325 325 319 318 322 322 321
313 318 313 306 302 307 307 309 333 332 330 330 329 331 341 345 341 340 338 339 339 339 338 333 329 329 328 324 318 314 311 309 309 311 311 314 316 316 317 318 322 324 324 322 317 316 315 316 318
315 312 303 307 307 307 308 310 327 332 330 328 328 335 339 337 339 339 340 340 340 339 338 334 329 329 328 323 316 313 310 309 313 312 315 322 322 317 314 315 318 321 323 321 317 316 315 315 317
311 304 306 307 307 308 322 330 330 333 332 331 330 340 339 337 337 339 339 338 338 339 338 334 330 329 327 321 315 314 310 312 317 319 321 324 317 315 314 314 318 318 318 319 318 317 316 315 314
309 302 306 307 309 310 329 330 330 332 332 332 335 337 339 334 336 337 338 337 337 338 337 334 328 329 326 321 313 313 312 318 316 320 320 317 315 314 314 314 314 315 318 320 319 318 317 316 316
310 307 309 310 311 313 330 329 330 330 330 328 329 337 336 332 331 334 334 333 334 335 335 334 330 329 323 317 315 312 313 314 317 317 315 313 313 313 314 315 314 315 318 320 320 319 319 318 317
307 307 311 309 309 315 326 328 327 328 328 326 328 337 337 330 328 330 329 327 328 328 328 327 325 320 318 317 317 313 312 313 315 313 312 312 313 314 315 315 316 317 318 319 320 319 318 317 316
305 308 308 310 314 321 326 328 325 326 331 332 332 332 332 327 326 326 325 325 323 323 322 320 318 320 323 318 316 311 316 315 312 312 313 314 315 315 315 316 317 319 320 320 320 319 317 316 314
308 308 310 310 314 325 326 326 327 328 332 333 334 333 331 327 326 325 325 324 324 322 321 320 319 318 317 319 313 310 312 312 313 314 314 314 314 315 316 318 319 321 321 321 318 317 315 314 313
308 311 310 312 322 324 323 325 325 327 329 332 333 334 330 329 327 326 325 323 323 322 322 320 320 320 320 317 313 312 314 314 315 315 319 319 316 316 319 322 322 321 319 317 316 315 313 312 311
312 309 312 318 324 323 325 322 324 325 327 330 331 331 327 328 329 327 326 325 324 321 319 320 320 319 321 322 315 313 315 314 317 321 324 323 323 321 320 322 320 318 315 315 314 313 311 310 309
311 311 313 321 323 325 323 324 326 331 328 329 329 328 329 329 327 328 328 325 323 321 321 323 326 325 325 320 317 315 316 317 319 323 324 324 324 324 323 322 318 317 315 314 312 311 310 309 308
312 314 321 323 324 325 325 325 326 331 329 329 329 328 327 327 326 326 326 324 322 322 323 326 327 329 325 320 318 316 320 323 324 326 326 325 325 323 320 318 317 315 313 312 311 310 309 308 307
317 323 323 323 323 323 323 324 327 331 330 330 329 325 326 326 326 326 326 324 321 321 322 324 328 330 326 321 319 319 328 329 328 327 326 324 323 321 319 318 316 313 311 310 310 309 308 307 305
315 317 317 324 324 322 319 324 325 331 332 331 330 328 327 326 327 325 326 325 323 322 322 323 328 330 327 321 323 326 328 328 327 327 326 325 323 320 319 316 313 311 310 309 308 308 307 305 301
311 314 315 324 324 322 321 321 324 328 332 332 331 329 327 327 327 326 325 325 324 323 325 326 327 330 328 322 323 328 327 325 324 323 322 322 322 318 315 312 311 309 309 308 308 306 302 300 300
317 316 315 317 323 324 322 320 322 324 327 331 331 331 330 328 327 327 325 325 325 326 328 329 329 330 327 323 326 327 325 323 319 319 320 320 316 313 312 311 309 308 308 307 303 301 300 299 300
317 317 317 314 314 324 323 321 323 323 326 328 328 329 331 331 329 327 326 324 326 328 330 330 330 330 327 326 326 323 321 319 318 318 317 315 315 312 311 310 308 307 306 303 301 300 300 300 300
318 318 317 316 312 319 319 321 322 323 327 328 326 326 327 328 328 327 327 326 327 329 330 330 330 330 328 327 326 324 319 318 317 315 314 313 313 310 309 308 307 305 302 298 298 298 299 300 300
318 318 317 317 313 312 316 317 326 324 323 323 323 323 324 323 328 328 328 329 329 330 331 330 330 331 330 326 323 320 319 317 314 312 311 311 310 309 308 307 303 299 298 296 296 296 297 299 299
319 317 316 317 312 313 313 315 314 324 326 323 321 320 321 321 325 326 328 329 328 328 329 329 330 330 327 325 323 321 320 315 313 312 310 308 308 308 305 301 299 298 296 295 295 296 298 299 299
318 317 317 317 316 316 318 316 314 321 326 326 325 319 319 320 320 323 324 328 328 328 329 328 328 327 326 326 325 322 319 315 314 310 308 308 306 303 300 299 297 296 294 295 295 296 298 298 298
317 318 314 315 315 318 319 317 316 317 324 327 326 323 319 318 318 319 322 326 328 327 327 327 328 328 326 325 324 322 319 315 311 308 307 305 302 300 298 297 296 297 301 296 295 296 298 297 296
316 314 315 316 319 319 319 320 318 315 314 318 321 321 319 318 318 320 321 323 326 327 326 326 327 326 326 325 323 323 322 319 313 309 307 302 299 297 297 296 297 300 295 293 293 296 297 297 296
318 316 316 316 318 317 320 320 317 317 315 314 313 312 314 317 318 322 324 324 325 326 326 326 325 325 326 326 325 324 324 320 315 311 308 305 301 299 298 296 300 299 300 293 293 294 296 297 297
318 318 314 319 317 321 317 317 313 316 318 318 317 318 314 316 317 322 325 326 326 326 327 327 325 325 325 326 326 325 323 321 316 311 308 304 301 298 296 299 301 295 293 293 293 294 294 296 297
318 316 319 317 323 324 318 317 314 315 318 320 319 320 320 318 319 322 324 327 327 327 327 327 326 326 326 326 326 326 323 321 315 311 305 301 299 298 297 300 295 294 294 293 294 294 294 296 295
317 318 315 316 315 318 317 316 311 313 315 318 316 316 317 320 320 322 323 326 326 327 327 326 327 327 326 326 325 325 321 316 311 308 305 303 299 297 299 295 295 295 295 294 293 294 294 293 293
316 316 315 316 317 313 313 315 312 309 310 312 312 313 314 318 319 320 320 322 322 323 324 326 324 321 322 323 320 317 314 309 310 308 304 300 298 299 296 296 296 296 295 294 294 294 294 293 293

GFSSGP_925_thetae_033.txt.gz
Theta_e
312 311 312 312 316 313 314 314 312 316 336 338 342 343 343 342 343 345 338 339 342 340 338 336 328 326 325 323 319 315 312 310 310 310 316 316 319 322 325 326 326 326 324 323 322 321 321 321 321
310 311 314 311 314 313 312 312 325 333 334 334 336 343 344 347 340 338 339 339 341 340 338 336 329 327 324 321 317 317 318 314 314 310 314 317 322 325 326 325 324 320 322 321 323 323 321 321 319
313 317 318 315 311 313 313 312 332 333 331 332 333 338 343 342 340 339 339 341 341 339 338 336 330 330 325 321 321 323 321 314 311 311 313 319 322 324 324 322 319 319 319 319 319 320 319 319 316
314 315 308 313 313 311 311 313 331 330 331 329 334 342 339 337 340 339 339 339 340 339 338 332 329 327 323 318 320 318 316 318 311 317 317 321 322 324 323 322 320 320 319 316 315 316 317 317 315
309 310 314 311 310 310 312 330 331 333 332 333 335 339 338 336 338 339 340 339 339 338 336 331 329 328 324 327 323 317 311 316 318 318 320 318 317 321 322 322 321 318 317 316 315 314 315 316 316
314 309 313 312 311 311 316 331 332 333 333 334 338 337 338 334 335 335 339 339 339 338 336 333 330 328 323 324 316 315 311 317 317 319 317 315 316 318 319 319 318 318 318 317 316 316 316 315 316
315 314 313 312 314 314 327 329 331 332 332 332 333 338 335 331 329 332 335 335 336 338 336 335 331 326 322 322 314 315 315 320 319 317 315 314 314 314 314 315 317 319 319 319 317 317 317 316 315
313 313 313 312 313 313 327 328 328 328 330 328 330 337 335 329 327 329 331 330 330 333 334 330 329 324 318 317 321 318 318 321 319 314 314 314 314 315 315 315 317 318 320 319 319 318 317 316 315
308 315 314 313 313 319 327 328 326 329 333 332 331 334 330 326 326 325 324 324 324 323 327 322 320 317 319 322 319 321 319 320 316 315 314 313 317 316 316 317 318 319 320 320 318 318 316 315 313
314 314 314 312 312 324 326 327 327 332 334 333 334 330 328 327 326 325 324 322 321 319 319 318 317 317 317 318 316 319 320 314 314 315 314 315 315 315 316 318 319 321 319 318 317 316 314 314 313
311 316 313 313 313 325 325 326 326 331 332 333 334 332 328 327 325 325 325 322 320 318 318 317 315 315 314 312 312 314 314 314 314 314 314 315 315 316 318 320 321 319 317 316 314 313 313 311 310
314 313 313 316 325 325 325 324 327 328 330 330 332 330 329 327 326 324 324 323 320 320 318 316 315 315 316 316 315 316 316 314 315 315 316 315 316 318 321 321 317 317 316 315 314 312 310 309 308
313 313 313 313 324 324 325 326 329 331 331 331 330 328 329 328 327 325 324 323 323 321 321 320 319 318 317 319 316 314 315 314 315 319 322 321 321 319 321 320 317 316 315 314 312 311 310 309 308
313 314 322 323 325 325 330 331 328 330 330 329 330 330 329 329 328 328 326 324 320 321 320 320 319 319 323 323 318 315 315 315 319 322 323 323 323 323 323 319 317 316 314 311 311 310 309 308 306
317 322 323 324 325 325 324 326 332 331 330 331 330 327 328 328 326 327 327 325 320 320 321 322 323 325 325 322 318 315 316 319 321 324 326 325 325 323 321 318 316 313 312 312 310 308 307 306 303
316 317 319 323 325 323 320 327 332 330 330 330 329 327 326 326 326 327 326 324 321 321 322 323 325 327 328 322 318 317 323 326 327 326 325 323 322 320 318 317 314 312 311 309 308 307 306 303 301
315 316 317 324 325 324 323 325 330 331 330 329 329 327 327 327 327 326 326 324 322 322 323 324 326 328 329 323 320 320 327 328 327 326 325 325 322 320 318 316 312 310 308 308 307 305 301 300 301
319 319 318 320 324 324 323 322 330 332 331 331 330 329 328 327 327 327 325 325 323 323 324 325 325 328 329 324 320 324 327 327 326 325 324 323 321 319 315 312 310 308 308 307 303 301 299 299 302
317 318 319 318 315 324 326 323 327 331 333 333 332 332 331 330 327 327 327 325 325 324 325 326 327 327 329 326 322 324 326 322 321 320 320 321 319 314 312 310 308 308 307 304 302 299 299 301 299
319 319 319 317 314 320 319 323 323 327 331 330 331 332 332 332 331 329 327 325 325 326 326 328 328 329 329 326 322 323 324 321 319 318 318 316 314 312 311 309 308 307 304 301 298 297 301 300 299
319 320 319 319 314 314 317 320 325 325 326 327 328 329 330 331 332 331 328 326 326 326 328 328 329 329 328 326 325 325 323 319 315 313 314 314 312 310 309 309 308 305 301 297 296 296 297 300 299
320 317 317 317 316 317 315 319 315 326 328 327 328 328 329 328 328 331 330 328 327 327 328 329 329 329 328 326 324 324 321 318 315 312 311 311 310 309 308 307 304 300 297 295 296 296 297 299 300
320 317 318 318 317 320 320 319 319 322 328 330 329 327 327 327 327 328 330 330 329 328 328 328 328 327 327 326 324 321 320 318 316 312 310 309 308 308 307 303 300 298 295 299 301 297 298 297 299
316 318 315 317 319 323 320 321 321 320 324 326 328 328 326 325 324 325 327 329 330 329 328 328 328 327 326 325 323 321 320 318 315 312 309 308 306 304 302 300 298 296 302 300 296 296 295 297 297
317 319 322 318 323 323 321 322 322 319 317 319 323 326 327 326 324 324 324 325 328 327 327 328 328 327 327 327 323 322 320 319 316 314 310 307 303 301 300 299 296 299 300 297 298 295 296 296 298
319 320 324 320 321 319 320 323 319 319 318 317 317 316 318 324 324 324 324 324 326 327 327 328 327 326 320 321 323 320 319 319 318 317 312 310 306 301 298 297 297 299 299 297 295 294 294 295 297
319 321 317 322 320 325 321 319 318 315 317 320 321 319 319 317 320 322 323 323 324 326 326 327 328 327 325 323 322 321 320 322 320 319 311 308 304 301 299 298 299 300 295 293 293 293 294 294 296
319 318 323 321 324 325 321 320 320 318 318 319 321 322 322 320 319 320 322 324 325 326 326 327 327 327 326 323 321 322 324 323 320 314 310 306 303 301 299 297 298 296 293 293 293 293 294 294 295
320 321 318 319 320 324 323 321 317 318 316 320 318 318 320 322 323 322 323 325 326 326 326 326 326 326 324 323 322 323 323 321 319 316 308 305 304 300 298 297 299 294 294 294 294 294 294 294 296
317 320 320 325 321 318 319 321 316 316 313 314 317 314 316 318 322 324 325 326 326 326 325 325 324 323 322 323 324 323 322 319 315 312 308 306 303 299 297 299 295 294 295 295 295 294 293 294 295

GFSSGP_925_thetae_036.txt.gz
Theta_e
317 315 314 317 318 316 318 317 318 325 325 339 344 343 338 344 341 343 340 342 343 340 335 335 339 340 338 337 335 329 325 318 312 315 315 316 318 320 322 324 324 328 332 331 332 332 331 321 315
314 313 316 317 316 317 317 317 320 328 333 336 339 344 344 347 340 340 341 341 342 340 337 333 331 334 334 331 327 323 318 316 320 317 317 319 322 322 323 323 328 332 333 333 331 329 321 315 316
315 316 319 317 316 316 317 318 324 329 333 337 338 342 342 343 338 339 340 341 341 340 337 335 329 327 326 323 320 320 323 323 320 320 320 322 322 323 322 324 326 328 330 333 328 321 317 315 316
316 319 316 315 315 316 315 322 332 333 333 333 338 343 339 337 341 340 340 341 341 339 338 335 328 325 322 319 320 326 324 325 323 326 320 323 322 321 322 323 323 322 322 320 319 319 316 316 316
315 317 317 315 315 314 316 323 332 333 334 335 337 342 340 337 338 340 341 340 339 338 338 335 328 326 324 325 327 325 320 318 323 326 322 323 323 322 322 322 320 316 315 316 317 317 316 316 316
318 316 316 315 314 316 320 328 333 335 335 337 339 340 339 332 335 335 339 339 338 337 336 335 329 330 330 330 327 319 320 317 321 321 324 324 324 322 321 318 317 316 315 315 315 316 316 316 316
317 317 316 315 320 321 329 332 333 335 335 337 337 341 337 332 329 332 337 338 338 337 336 334 330 329 328 326 325 320 320 318 324 321 322 322 320 320 318 318 317 317 316 316 316 316 316 316 314
317 317 316 318 319 322 328 331 331 333 335 333 334 339 339 330 327 330 332 334 335 335 333 331 329 326 324 324 324 323 321 322 322 318 320 320 318 317 318 320 320 319 318 317 317 316 316 315 314
316 317 316 319 320 321 327 330 330 331 335 335 334 337 333 327 326 326 326 326 329 328 329 328 325 319 314 315 322 325 321 324 320 318 318 317 320 319 321 321 319 319 319 319 317 316 315 314 314
318 317 316 317 317 319 326 330 331 334 336 336 334 331 329 328 328 328 326 323 322 322 322 321 318 315 316 319 324 327 327 325 323 322 320 322 323 321 322 322 319 320 320 318 317 315 314 316 316
318 318 317 317 317 318 325 329 329 332 335 334 333 332 329 328 328 326 324 321 320 320 320 319 316 316 315 313 315 325 325 322 322 319 322 323 323 320 324 322 320 318 317 315 315 315 315 315 314
317 318 318 318 321 324 327 328 331 331 335 333 331 329 328 328 328 324 323 320 319 319 317 316 316 315 315 316 322 319 318 317 314 314 317 318 322 324 323 322 321 319 318 317 316 315 314 313 312
317 318 318 320 320 327 327 328 330 334 334 332 331 329 329 328 326 324 321 319 317 315 315 315 315 316 317 313 314 312 311 316 315 317 320 321 322 325 323 321 320 319 317 317 316 314 313 312 311
318 319 325 322 327 328 329 330 330 333 332 331 331 329 329 328 325 323 321 321 318 315 314 315 315 313 313 317 316 314 318 319 321 323 324 325 324 324 322 321 319 318 318 317 316 314 312 311 310
319 325 323 326 328 328 328 329 332 331 331 332 330 329 329 328 327 326 325 324 320 320 319 318 318 320 320 320 322 320 321 321 321 326 327 327 326 324 322 321 319 318 316 315 313 312 311 310 307
320 322 323 324 325 326 328 329 334 329 329 329 328 328 327 328 328 328 326 323 323 323 321 321 321 323 325 325 322 319 322 322 324 327 327 326 324 323 321 320 318 316 315 314 312 311 310 307 305
320 320 321 325 325 327 328 327 332 331 327 328 326 324 326 327 326 327 325 321 321 321 322 321 323 325 327 327 323 322 324 325 327 327 327 324 322 321 320 319 317 315 314 312 311 309 307 305 304
320 320 322 325 327 327 326 325 332 332 329 329 328 325 325 326 326 326 326 322 322 322 323 323 325 327 329 327 324 322 326 328 329 328 327 324 322 320 320 318 315 313 312 311 310 308 305 303 303
320 320 320 321 322 324 323 323 329 333 332 331 331 330 327 326 326 326 325 324 323 324 325 325 326 328 330 327 323 323 326 327 328 328 326 324 321 319 318 316 314 312 312 310 309 306 304 304 303
321 320 320 320 319 321 321 322 325 332 335 334 333 333 332 330 327 328 328 325 324 324 325 326 328 329 330 327 324 325 327 327 327 325 323 322 319 318 316 314 313 312 311 309 307 304 305 305 304
322 320 321 321 320 320 320 322 325 327 330 332 332 331 331 331 332 331 330 330 327 325 326 326 328 330 331 329 325 325 327 325 323 321 320 318 317 316 314 313 312 311 309 307 305 304 305 307 304
321 321 321 321 321 320 320 321 322 325 328 329 331 331 331 331 330 331 332 330 330 328 327 327 328 330 331 330 326 325 324 326 323 321 319 316 314 314 313 312 311 309 307 305 303 305 306 305 306
321 321 322 322 322 322 322 320 321 322 326 327 330 330 330 330 330 331 331 332 330 329 328 329 329 330 331 330 328 327 326 327 325 320 317 315 313 312 311 309 307 306 305 303 304 305 304 305 301
321 322 321 323 323 323 321 322 321 322 321 322 325 329 330 330 330 331 330 330 331 330 329 330 330 330 331 330 327 326 326 327 323 319 317 314 313 311 307 306 305 305 303 304 306 303 304 300 301
321 322 324 323 324 323 323 323 322 321 320 321 322 324 328 330 330 330 331 331 331 332 332 331 331 330 330 329 325 324 326 326 321 319 316 312 308 307 308 305 305 304 303 305 303 303 300 301 300
322 322 323 323 322 320 323 321 320 321 321 322 323 323 323 327 330 330 330 329 330 332 333 333 332 330 328 326 326 326 326 325 322 321 313 310 311 309 307 304 304 303 303 302 302 299 300 300 300
322 322 321 325 326 324 321 321 321 319 321 322 323 324 324 323 324 327 329 329 329 330 332 333 332 330 328 326 321 322 323 324 322 320 312 312 309 307 305 304 303 302 302 301 300 299 299 299 301
323 322 323 324 325 324 321 321 320 320 319 319 320 321 324 325 323 323 324 325 328 328 330 332 332 332 330 323 323 324 324 323 322 320 314 311 309 309 305 304 302 301 300 300 298 298 299 301 300
323 323 323 323 324 323 322 321 320 320 319 320 321 321 322 324 326 326 326 325 326 327 329 330 331 331 331 327 326 325 325 324 323 321 315 313 311 308 303 303 302 299 300 297 296 298 300 298 298
321 320 323 324 322 323 326 322 320 320 321 320 321 319 321 323 324 327 328 328 329 329 329 329 330 330 330 330 329 328 326 324 322 319 315 313 310 307 304 304 301 300 298 297 297 298 296 297 298

GFSSGP_925_thetae_039.txt.gz
Theta_e
318 319 317 318 319 318 319 320 320 321 322 328 335 338 327 337 335 339 342 344 342 340 339 342 343 342 341 339 335 334 329 324 315 312 316 319 318 320 325 327 329 333 333 334 331 328 326 318 314
319 315 315 319 318 318 319 319 318 319 329 337 340 341 341 345 341 342 343 344 340 339 338 342 342 342 341 337 336 331 326 316 311 316 318 318 319 322 325 328 331 333 333 333 331 328 321 315 315
315 316 319 320 319 317 319 319 319 326 329 334 335 340 343 344 338 339 342 343 340 337 337 341 340 340 339 336 333 328 320 317 316 319 319 320 322 325 329 332 334 333 332 333 331 323 316 315 314
318 319 318 315 317 317 318 320 325 327 329 332 334 342 338 332 332 325 339 343 341 336 335 337 339 339 337 333 329 325 318 315 318 321 323 323 324 326 328 329 332 332 333 333 328 316 316 315 314
316 318 318 319 317 317 317 319 326 328 334 334 336 339 343 339 339 335 337 342 340 334 335 333 336 334 332 329 326 322 319 322 325 324 327 325 324 325 324 324 324 323 324 322 316 316 316 315 314
319 318 318 318 317 316 320 325 327 332 334 335 336 340 342 334 335 336 340 341 339 338 337 332 332 331 328 327 325 320 319 322 327 327 328 324 324 324 321 317 316 316 317 317 316 316 316 315 314
318 319 319 317 318 324 327 329 331 332 333 336 337 339 340 333 330 334 337 339 338 337 337 332 330 330 331 328 324 323 327 329 328 328 327 322 322 320 318 316 315 315 316 316 316 316 316 315 314
318 318 317 318 322 326 328 330 331 333 337 335 336 338 340 332 329 331 334 335 336 336 334 332 330 330 329 328 327 327 327 329 327 326 324 321 321 318 317 317 316 316 316 316 316 317 316 314 314
317 318 318 319 320 322 326 329 332 332 334 336 338 340 335 329 328 330 328 330 331 331 332 330 329 327 327 324 325 327 326 326 323 322 322 320 321 322 324 322 318 317 317 317 317 317 315 314 314
318 320 318 319 319 320 322 328 331 332 335 337 335 332 330 330 330 330 328 325 325 325 325 328 326 324 320 320 318 321 326 326 324 323 319 321 321 324 324 320 319 319 319 318 317 315 316 318 317
319 320 319 319 320 321 323 328 330 331 332 335 338 333 330 330 330 327 325 325 322 322 322 321 321 317 318 318 321 323 326 325 323 319 324 324 323 322 320 320 320 319 319 317 316 317 319 318 317
319 319 319 319 319 322 327 328 330 333 336 336 334 331 331 330 329 326 322 321 319 320 319 318 318 317 317 320 321 321 324 325 324 324 323 323 321 324 323 322 322 321 321 319 320 319 318 317 315
319 320 320 322 322 324 328 329 330 334 335 333 331 330 329 329 326 326 322 320 318 318 317 317 316 313 312 312 313 314 314 322 321 319 318 319 320 325 324 324 323 322 322 321 320 318 317 315 314
320 320 323 323 325 328 329 330 331 333 332 332 332 331 329 328 325 321 320 317 317 316 316 315 315 314 315 314 313 315 317 316 316 318 320 321 323 326 325 324 323 322 322 321 320 318 315 314 313
320 322 323 324 326 327 328 327 332 332 332 332 328 326 326 326 323 322 320 316 315 315 315 315 314 316 316 314 315 316 318 318 319 316 322 324 324 326 326 325 323 322 321 320 318 316 314 313 310
320 322 326 324 325 325 325 329 331 330 331 330 328 328 326 327 327 323 322 317 315 315 315 314 314 313 315 316 319 319 320 321 320 321 326 327 327 327 326 324 323 322 320 319 317 315 313 311 309
321 322 325 325 324 326 329 330 331 330 328 326 327 326 324 327 327 327 327 322 319 318 319 317 318 316 319 322 323 320 320 321 319 322 327 328 327 327 326 324 323 321 320 318 316 314 312 310 308
321 321 323 330 326 325 326 326 332 331 329 328 324 323 322 325 327 325 323 324 324 322 320 319 321 322 324 322 323 322 321 323 322 328 328 328 327 325 325 324 322 321 319 317 314 312 310 308 309
321 320 321 324 325 325 325 325 328 332 330 330 329 326 326 326 325 326 323 323 323 323 321 322 324 325 325 325 323 321 321 323 327 327 328 328 326 325 325 324 321 319 317 316 313 312 309 309 309
321 321 320 321 321 321 322 322 323 332 332 331 330 329 327 326 326 326 326 323 323 324 323 322 323 325 327 327 323 321 322 323 325 327 328 328 327 324 324 322 320 318 317 314 313 310 309 311 309
320 321 321 321 322 321 321 321 321 326 331 332 330 329 328 327 327 327 326 326 325 325 326 326 326 327 329 328 325 323 324 326 327 327 327 327 326 323 322 320 319 317 316 314 312 310 310 312 311
320 320 321 321 322 323 322 322 324 323 327 331 332 330 329 329 328 327 328 327 326 326 326 327 328 328 329 329 328 324 325 328 328 328 326 325 323 322 320 318 317 316 315 313 311 309 311 311 311
321 322 321 322 323 323 322 321 323 321 323 325 328 330 329 328 329 328 328 328 328 327 327 327 328 328 329 329 329 327 326 327 327 327 326 324 320 318 317 317 317 315 313 310 309 308 310 308 309
321 323 322 323 323 325 322 323 322 323 321 321 324 327 329 328 328 328 327 328 328 328 329 328 328 328 328 332 330 329 328 327 328 328 325 322 320 318 317 316 314 313 309 308 308 309 308 309 308
322 323 325 325 326 326 323 323 322 324 321 321 321 324 328 328 328 328 328 328 330 330 330 330 329 329 329 331 332 330 329 328 327 327 324 321 320 318 317 314 311 309 307 308 309 309 307 307 304
322 323 326 335 328 325 324 321 321 322 321 321 321 322 323 328 328 328 327 329 330 331 332 332 331 331 330 332 331 329 321 323 323 327 324 322 321 318 314 312 309 307 307 307 308 304 306 303 305
323 323 323 325 326 325 323 322 321 320 320 321 321 325 326 324 328 328 327 326 329 330 332 334 333 333 332 332 330 327 323 325 327 327 325 323 319 314 312 311 307 306 307 306 304 305 302 302 302
322 324 324 324 326 328 322 322 322 321 320 320 320 321 324 325 325 326 328 328 328 329 331 334 335 334 333 330 329 325 326 327 327 326 324 321 314 310 309 308 307 306 305 304 304 302 302 301 301
323 325 323 324 325 327 328 323 322 321 321 320 320 320 321 322 326 326 326 326 327 329 330 332 335 335 334 331 330 325 325 325 325 325 324 318 313 310 309 308 307 305 305 304 303 300 299 301 302
322 323 324 329 325 325 326 325 322 321 321 321 320 321 321 322 323 327 328 328 327 328 329 331 333 334 333 333 329 326 327 327 325 324 323 318 314 313 312 308 305 304 305 303 299 297 300 299 299

GFSSGP_925_thetae_042.txt.gz
Theta_e
315 320 321 321 319 319 318 318 320 319 323 329 331 332 330 339 330 341 334 328 327 339 343 343 342 337 337 335 333 330 327 324 318 315 314 315 319 325 328 330 332 335 331 330 329 326 316 314 317
318 320 318 317 319 320 318 320 319 322 331 329 325 334 332 342 336 341 342 335 337 341 343 343 343 339 339 337 333 330 326 319 315 313 315 317 323 326 328 330 332 332 331 330 328 324 314 314 319
314 318 318 319 320 319 318 319 320 326 327 329 328 327 341 337 331 337 340 340 340 340 342 342 342 340 339 336 333 329 323 317 315 315 317 322 325 327 328 330 332 332 331 329 327 316 314 314 318
321 319 319 318 316 317 318 319 321 325 326 327 328 340 336 336 335 330 332 340 338 339 341 340 341 340 339 336 332 327 320 318 316 319 323 327 328 330 332 332 332 333 331 328 320 315 314 313 314
318 318 319 319 319 318 320 321 321 326 328 327 328 333 332 336 337 337 332 340 337 338 338 340 340 339 338 335 330 325 321 321 321 325 326 328 330 331 333 332 332 332 327 318 316 315 314 314 314
319 320 318 318 319 324 327 325 328 325 329 325 327 326 326 334 335 336 340 338 337 336 336 338 338 339 336 332 326 322 323 322 326 327 326 326 326 327 329 328 327 324 317 316 316 315 314 315 315
318 319 319 318 319 325 324 326 327 329 330 329 324 329 335 333 331 334 337 337 336 331 335 335 336 336 333 329 327 325 324 327 329 328 326 324 322 321 320 319 318 318 316 316 316 315 315 315 314
318 318 318 318 322 324 326 325 327 329 334 329 329 339 342 331 331 333 335 336 336 335 332 332 330 332 330 329 328 327 327 328 329 326 324 324 321 317 315 316 317 316 316 316 316 316 315 315 314
318 317 319 320 320 322 324 329 326 323 330 338 336 336 331 330 332 331 331 332 333 331 328 327 328 326 325 325 328 328 327 325 327 323 322 320 318 317 320 316 316 316 316 317 317 317 316 316 314
318 319 320 319 319 320 320 325 326 329 330 333 329 331 331 331 331 329 328 327 326 328 329 330 330 326 327 324 323 325 324 327 325 322 321 321 322 326 322 317 316 317 317 317 317 318 317 317 316
318 319 320 319 320 320 320 326 328 331 336 335 326 333 330 330 327 326 326 324 323 323 328 328 328 325 325 326 322 317 324 326 321 321 325 322 324 324 319 320 319 318 317 317 317 317 319 318 316
318 318 319 319 320 320 320 328 331 335 337 335 333 331 331 330 327 324 322 321 321 321 320 321 322 320 316 320 322 323 323 322 321 325 323 322 323 319 319 320 320 320 319 318 319 319 318 316 314
319 319 320 320 322 321 324 327 328 336 333 332 331 331 331 329 325 322 320 319 319 319 318 317 318 320 322 322 323 321 320 321 323 323 322 321 322 322 320 322 322 321 321 320 320 319 317 315 314
321 320 320 322 321 323 327 327 326 335 333 332 332 330 328 326 323 320 320 319 317 317 316 316 315 316 317 318 320 318 319 319 319 316 314 317 321 325 324 325 323 323 322 321 320 318 316 314 313
319 319 320 323 324 326 325 325 327 326 330 329 328 328 326 324 322 321 318 317 317 316 314 314 313 314 315 315 313 313 314 314 313 313 318 322 322 325 326 324 324 323 322 321 320 318 314 313 311
320 319 321 325 326 326 326 327 325 323 328 326 323 324 327 325 324 321 317 316 316 315 316 316 316 313 313 314 312 312 312 313 314 314 321 318 322 326 325 326 324 323 322 320 319 316 314 313 310
319 321 322 325 323 327 328 329 326 325 329 328 327 327 330 328 324 321 318 317 316 316 316 317 316 313 313 313 314 313 316 320 320 318 318 324 322 327 326 325 324 323 321 320 318 315 314 311 309
321 322 323 326 326 324 330 330 327 328 326 326 327 323 327 328 328 324 321 318 318 316 316 315 313 313 314 314 316 320 321 319 317 315 323 325 326 328 327 326 324 322 321 319 317 315 312 311 310
319 321 324 326 326 326 328 332 332 332 328 327 324 320 323 325 325 327 323 320 319 319 316 316 314 314 317 319 323 323 321 322 322 323 327 328 326 327 326 325 323 322 321 318 317 313 311 308 310
319 319 321 321 323 322 321 322 331 330 330 329 326 324 324 326 327 325 324 323 324 321 319 321 319 321 320 322 319 322 320 320 321 324 326 327 327 326 325 325 323 322 320 318 315 313 312 310 311
318 319 320 323 323 323 321 321 322 331 329 330 329 328 326 326 329 326 325 325 324 321 321 321 322 323 324 325 324 323 322 321 324 325 325 327 327 326 325 325 323 321 319 317 314 313 311 311 311
318 319 321 322 322 322 323 325 323 329 328 330 329 329 327 326 327 328 326 325 324 325 323 322 323 324 325 326 328 324 323 324 326 327 327 326 327 327 325 323 322 319 318 316 314 312 310 311 312
319 323 323 322 321 324 323 322 320 323 325 330 331 330 329 328 327 327 328 327 325 326 326 325 324 325 326 326 328 328 324 326 326 327 326 327 326 326 324 322 320 318 317 315 315 313 310 312 311
321 323 324 322 322 327 324 322 325 325 325 324 327 331 330 328 328 327 327 327 328 326 327 328 328 328 328 329 328 329 325 327 328 327 327 327 325 323 322 319 317 318 316 315 311 309 310 310 309
321 322 325 326 327 329 324 323 324 325 325 324 324 324 330 329 328 328 328 328 329 328 328 328 329 329 329 330 330 328 329 328 327 326 326 326 325 321 320 319 317 317 316 313 309 309 309 309 309
322 322 326 335 335 330 326 325 322 324 322 322 321 322 325 329 328 328 327 328 329 330 330 329 329 329 329 330 331 329 327 328 328 327 326 326 324 321 320 319 317 316 314 312 308 310 310 308 306
323 324 323 331 331 332 331 324 321 322 320 320 320 322 324 325 328 329 328 327 330 330 331 331 331 329 330 330 333 331 322 329 329 327 325 326 325 322 322 319 317 314 312 308 308 309 308 306 304
321 323 327 327 332 334 324 322 323 323 320 321 320 322 325 325 325 328 327 327 328 331 332 332 331 331 331 331 333 332 328 329 326 325 327 327 324 323 322 318 316 313 310 307 308 308 305 303 303
321 322 325 327 327 331 331 326 324 324 324 321 321 322 323 324 326 327 327 326 327 329 331 334 334 333 333 332 333 332 330 327 327 328 328 326 325 323 319 316 313 310 307 307 306 305 304 302 301
321 322 323 329 327 330 337 328 323 324 323 322 322 322 322 322 323 327 328 327 326 327 329 336 336 335 334 334 333 331 329 326 326 326 326 326 324 321 317 312 309 307 307 306 305 303 301 299 301

GFSSGP_925_thetae_045.txt.gz
Theta_e
315 317 322 319 316 312 313 314 315 316 327 330 330 329 330 337 343 346 337 328 331 333 336 340 339 339 334 332 330 326 324 320 317 317 318 323 328 332 335 334 327 328 328 326 323 320 320 319 320
315 316 320 315 312 313 315 315 316 329 330 329 329 330 331 338 331 336 336 326 329 329 325 325 338 338 335 332 329 326 322 316 315 316 319 326 327 328 334 331 326 328 327 325 321 317 319 320 321
314 315 313 311 311 314 314 314 318 326 327 327 327 334 338 335 330 333 335 334 337 333 332 338 338 337 334 332 329 327 320 316 317 317 322 325 326 326 331 329 327 328 327 325 316 317 320 320 320
319 315 313 313 314 314 317 322 322 326 326 326 332 338 332 332 336 337 329 338 338 339 338 340 339 337 335 332 330 325 317 317 319 322 323 325 328 328 329 330 327 327 326 320 313 313 315 319 318
319 311 312 315 315 317 325 322 323 330 330 329 327 326 333 333 335 336 331 337 337 338 334 337 338 338 335 332 329 321 317 319 320 323 324 327 329 329 329 331 327 324 317 315 314 314 313 315 317
313 312 314 316 317 325 323 323 323 328 332 329 329 328 327 333 333 335 334 338 337 333 327 331 336 338 334 332 327 322 320 320 323 326 328 330 331 331 331 331 324 318 316 315 315 316 314 312 318
313 312 313 314 315 324 323 323 326 328 331 329 328 330 329 332 331 335 336 336 337 337 337 336 336 337 336 333 325 324 322 325 326 327 329 331 332 330 328 326 319 316 316 316 315 316 315 315 318
313 311 312 313 315 324 325 327 324 328 332 326 327 335 333 331 331 334 336 335 334 336 336 335 335 335 334 329 326 324 327 326 325 326 326 328 328 326 323 320 316 316 316 316 316 316 315 316 316
314 311 313 314 317 322 324 329 326 323 333 332 333 333 331 331 331 331 332 333 333 332 333 328 328 329 326 324 324 325 325 323 324 324 322 320 321 320 319 318 316 316 316 317 317 317 314 314 314
312 311 314 317 317 317 325 325 325 327 325 330 333 331 332 330 329 329 328 328 330 328 328 327 328 326 325 322 321 329 327 325 324 322 319 317 318 316 316 317 316 316 317 317 317 316 315 317 315
313 313 315 317 318 316 317 325 327 326 326 330 329 331 330 327 326 326 325 324 324 327 328 328 326 324 323 324 318 315 326 324 321 320 322 325 324 317 316 317 317 318 318 317 316 317 318 316 314
315 315 315 316 318 319 321 327 332 333 335 332 330 330 330 327 325 323 323 322 323 323 324 327 326 325 324 318 314 323 326 323 322 324 323 325 322 319 319 318 319 319 318 317 316 318 317 314 313
317 316 316 316 318 320 325 328 330 333 331 329 331 329 329 324 322 321 320 320 320 320 324 325 326 326 321 320 322 323 324 321 324 323 322 323 318 317 318 319 319 320 319 318 319 319 316 314 313
317 317 317 317 317 322 326 325 325 330 331 331 330 328 325 323 321 320 319 318 318 318 318 321 321 324 324 320 323 323 322 322 323 322 322 322 319 318 321 321 322 321 320 319 320 318 315 314 312
319 317 316 316 323 325 324 326 325 324 323 330 330 324 324 323 320 320 318 317 317 316 316 316 317 320 322 321 321 320 320 320 318 315 317 320 323 325 324 325 323 322 322 321 320 318 315 312 311
317 316 316 316 322 324 322 326 325 322 324 326 324 325 325 323 320 318 317 317 316 316 316 317 319 319 320 317 315 315 316 317 315 315 314 316 322 325 325 324 324 323 322 321 320 317 314 313 310
316 317 316 320 323 325 324 326 325 323 326 323 322 324 325 323 318 317 316 316 316 315 316 315 316 318 316 316 317 316 315 316 314 314 316 321 320 324 325 324 324 323 322 321 320 318 314 313 310
319 318 319 323 323 325 326 325 325 324 326 322 323 327 327 324 320 317 316 316 315 315 317 315 315 314 315 315 314 313 314 314 313 314 314 316 323 317 321 325 323 323 322 321 319 317 314 312 310
318 317 318 321 323 325 329 327 324 322 326 324 325 324 328 327 322 317 316 316 315 316 316 314 314 313 313 313 312 313 313 312 313 317 318 319 322 323 325 325 325 323 322 320 319 316 314 310 309
320 318 316 320 324 324 322 328 324 324 326 322 319 325 323 326 324 319 317 317 315 316 316 314 313 313 313 314 313 314 316 319 320 319 321 321 318 323 325 324 324 323 323 320 318 317 312 312 309
319 317 317 319 321 321 319 320 328 328 329 325 318 319 321 324 326 323 318 317 317 315 315 314 313 313 314 315 317 321 323 321 321 321 320 319 322 325 325 325 325 323 323 321 318 316 313 312 310
318 317 319 322 321 321 320 323 331 332 331 328 324 319 320 323 325 324 321 321 320 318 316 315 314 315 316 319 322 321 322 320 320 320 320 321 322 326 326 325 325 324 322 320 318 315 313 312 311
320 320 321 322 322 319 319 324 323 331 331 329 327 325 322 323 325 324 322 323 322 320 318 319 320 318 321 322 322 322 323 322 320 320 323 324 325 325 326 325 324 323 321 319 317 314 314 313 311
318 322 323 323 321 321 320 321 320 328 325 328 327 327 324 324 326 323 324 323 323 320 319 319 321 321 322 323 324 326 327 322 323 324 325 326 326 327 327 325 323 322 320 318 316 315 314 311 312
318 321 323 323 322 322 328 328 322 321 322 327 325 327 326 323 326 325 323 323 323 322 321 320 321 322 323 324 326 325 325 326 323 324 326 326 325 326 325 324 323 320 319 318 316 314 312 310 311
318 319 323 326 328 330 328 330 322 322 320 320 320 327 326 325 324 325 325 324 323 323 324 323 323 322 323 325 324 325 325 326 326 326 326 326 325 324 322 323 322 320 318 317 316 312 310 309 309
321 321 320 330 330 329 329 327 323 322 319 317 317 317 322 325 323 324 325 325 325 324 324 325 325 325 326 327 328 327 327 328 327 326 327 326 325 325 324 323 321 321 318 317 316 312 312 309 309
319 321 325 329 332 333 331 330 327 322 322 319 317 316 318 319 324 323 323 325 326 326 325 325 326 327 326 327 329 328 329 328 329 328 327 326 325 325 324 322 321 320 318 316 314 312 310 309 307
320 320 321 327 328 328 325 325 321 323 322 321 317 318 319 321 320 321 323 326 325 327 328 328 327 327 328 327 328 330 330 329 329 327 328 327 325 324 324 323 321 318 316 313 312 308 308 306 303
319 319 320 325 327 326 322 324 322 320 319 319 319 317 316 318 320 320 322 324 324 328 329 328 329 329 329 328 329 331 330 329 327 328 326 325 326 325 324 322 319 316 314 312 310 307 306 303 303

GFSSGP_925_thetae_048.txt.gz
Theta_e
315 315 319 318 314 309 313 313 314 314 316 328 327 332 336 336 343 348 334 331 338 342 339 335 332 337 332 328 326 323 320 321 322 320 329 334 329 322 322 321 321 322 325 328 328 328 328 328 327
315 315 320 312 310 311 311 312 316 318 329 329 331 333 335 334 330 338 334 331 339 339 339 336 332 334 334 327 326 324 325 325 325 326 334 335 330 324 321 320 320 320 324 327 328 328 324 320 322
313 315 312 312 307 311 312 313 317 326 327 327 335 335 335 333 331 332 333 327 334 332 329 336 332 330 337 330 327 323 323 324 326 327 332 334 331 321 321 319 318 320 324 327 327 321 319 318 318
318 313 310 312 312 311 314 316 322 323 327 327 334 334 331 329 331 337 332 329 334 330 330 328 327 334 334 332 326 323 323 326 327 328 332 334 328 321 321 320 318 318 321 321 319 319 317 320 321
318 308 311 312 313 313 318 321 320 330 330 328 326 325 332 328 334 336 334 338 339 337 330 332 329 328 334 333 325 321 323 326 328 328 328 332 326 323 323 320 317 315 313 313 316 318 317 319 322
313 309 313 313 314 314 320 321 323 330 331 329 328 326 326 331 332 333 335 337 336 337 336 337 335 334 334 333 323 321 323 327 328 327 327 328 328 325 323 319 315 314 315 314 313 314 317 317 321
312 310 312 312 314 312 322 321 328 329 327 329 327 331 328 332 331 333 338 337 335 333 329 337 334 332 332 328 325 329 326 329 330 330 330 328 330 327 321 316 315 315 316 316 314 312 318 315 314
309 310 313 311 312 313 323 327 325 327 327 328 332 338 332 331 331 333 335 336 336 335 333 335 334 332 329 325 317 325 326 328 330 331 331 330 330 327 320 316 316 316 316 316 314 316 316 315 314
310 311 310 311 314 317 324 326 323 325 332 331 332 332 332 331 332 334 333 332 335 335 332 333 331 328 329 326 320 315 322 326 330 331 331 331 329 327 319 316 316 317 317 317 314 315 314 314 313
311 309 312 311 316 322 325 323 325 323 327 331 332 331 331 330 330 330 330 329 331 330 330 330 328 327 325 320 318 321 327 327 328 330 329 327 325 322 317 316 317 317 317 316 314 314 315 314 313
311 312 313 313 316 317 324 325 326 325 334 331 328 331 328 328 328 328 328 327 328 329 327 328 328 326 324 322 319 323 328 326 323 321 321 320 319 318 316 316 317 318 318 317 317 317 317 314 313
313 312 313 313 317 321 325 326 333 330 331 330 328 330 329 327 327 326 325 324 327 327 327 327 327 325 323 322 317 328 326 324 319 317 316 316 316 316 316 317 318 318 317 316 317 317 315 314 312
314 314 314 316 319 326 328 331 332 333 331 329 329 330 327 324 323 322 322 321 323 326 327 326 325 324 323 325 326 327 324 320 318 320 321 318 316 317 317 318 319 319 318 317 319 318 315 313 311
317 317 315 315 317 324 326 327 325 331 329 329 327 326 324 323 322 320 320 319 319 319 322 326 325 325 325 317 322 326 323 322 322 323 322 320 318 316 317 318 318 320 318 318 319 318 315 313 312
317 316 315 316 316 323 322 324 325 331 330 331 329 327 324 322 321 320 319 319 319 320 318 323 325 325 317 322 324 325 323 324 323 323 322 319 317 317 318 320 320 320 319 319 319 317 315 314 311
316 315 316 315 316 323 321 324 324 328 326 330 324 325 324 321 319 319 319 318 317 318 319 318 321 320 320 321 323 323 324 323 323 323 321 320 321 322 322 324 322 321 322 320 319 318 315 313 311
315 315 316 316 317 323 322 323 323 320 327 326 325 325 324 321 318 318 318 317 316 317 318 318 317 319 321 322 322 320 322 322 316 318 318 319 322 324 323 323 323 323 322 321 321 318 315 312 311
316 316 316 317 321 324 324 322 324 321 325 324 321 324 324 323 318 317 317 316 316 316 317 318 318 320 320 320 319 318 318 317 316 315 315 315 319 321 324 325 324 323 322 321 319 317 315 314 312
316 316 316 315 319 326 325 324 321 323 324 322 321 324 325 323 318 317 316 316 315 316 316 316 316 318 318 315 317 317 317 317 316 315 314 315 317 321 321 322 323 323 322 321 320 319 316 314 310
316 316 317 315 320 323 323 326 324 321 324 321 322 325 326 323 318 317 315 315 315 316 316 315 315 316 315 314 314 314 315 315 315 314 314 314 314 318 321 323 324 324 323 321 321 320 316 311 310
317 317 317 316 320 320 319 321 325 323 324 323 322 323 326 324 320 317 316 315 315 315 316 315 314 315 315 315 314 314 314 314 314 314 314 314 316 317 321 321 324 323 324 321 321 319 317 313 310
317 318 317 320 319 319 317 319 326 325 326 327 322 323 324 326 322 318 317 316 314 315 315 314 314 313 313 313 313 313 314 314 314 314 315 315 318 321 320 321 323 324 324 321 322 319 317 316 311
319 319 318 319 319 319 319 319 320 324 330 329 322 320 321 325 324 319 317 316 315 314 314 314 314 314 313 314 314 314 317 319 320 320 320 318 319 321 319 322 324 325 324 322 322 320 316 315 313
319 320 320 320 320 322 321 320 320 331 330 330 327 320 318 321 325 322 318 317 317 315 314 314 314 313 314 314 315 317 321 320 321 320 320 319 318 318 321 322 325 324 324 323 322 320 316 314 313
317 319 322 323 323 323 325 326 323 320 327 328 328 326 320 318 322 325 320 319 318 317 314 314 314 314 314 315 316 318 321 321 320 319 318 320 321 322 324 325 325 325 324 323 320 319 316 313 315
317 317 320 323 326 324 325 325 323 321 321 320 326 326 325 321 321 323 322 321 322 319 318 315 316 317 316 317 319 320 321 323 322 322 322 321 321 323 325 325 324 324 323 321 319 317 315 314 313
318 319 318 326 327 326 324 324 321 319 319 317 320 322 324 323 322 324 322 322 322 321 319 317 317 318 318 318 320 321 322 323 324 325 324 323 323 325 325 325 325 324 321 320 318 317 315 313 311
318 319 323 325 329 327 327 328 326 324 319 319 316 320 323 323 322 324 323 322 323 322 321 318 317 318 318 320 321 322 322 323 324 324 325 325 324 325 325 324 323 323 321 319 318 316 313 311 310
318 319 321 324 324 325 326 323 319 322 321 319 317 314 316 321 322 322 323 323 323 322 322 322 321 321 321 321 322 322 323 324 325 325 326 326 325 326 325 325 324 322 320 320 318 315 312 310 310
317 318 319 325 326 323 320 324 319 319 318 317 317 316 315 317 318 321 321 323 324 324 323 322 323 323 323 323 324 325 326 327 327 327 327 325 325 326 325 324 323 321 320 319 315 312 311 310 307

GFSSGP_925_thetae_051.txt.gz
Theta_e
315 315 319 315 311 310 314 313 312 318 319 327 327 334 337 335 342 340 333 333 341 342 339 336 330 328 328 326 323 319 322 332 336 333 331 330 327 326 325 326 329 331 331 331 331 331 331 330 328
314 316 317 307 309 310 310 310 315 325 326 328 333 333 332 331 330 337 332 332 342 341 338 336 334 329 326 327 324 319 319 333 335 332 332 331 327 324 323 326 330 330 330 330 329 328 327 326 324
314 314 310 310 305 310 311 311 314 325 326 328 336 333 334 331 329 331 332 335 340 340 337 332 332 329 328 326 323 320 329 331 334 333 331 326 324 320 320 326 329 329 330 328 327 324 324 324 323
317 311 308 312 312 310 311 312 320 325 325 326 332 333 330 330 334 335 333 331 337 339 337 334 332 331 329 328 325 326 324 331 334 333 329 325 320 317 319 324 328 329 328 326 322 319 319 322 321
316 307 310 311 311 312 311 317 323 329 328 328 326 325 331 331 332 335 333 331 331 335 336 335 332 331 331 329 327 328 329 331 334 333 329 326 319 318 320 325 327 326 324 319 318 321 321 321 317
310 307 312 312 312 312 313 320 323 328 329 328 327 326 326 331 331 332 334 334 334 333 331 332 331 328 329 329 328 322 330 331 332 334 330 324 319 317 318 319 319 317 315 315 318 321 321 320 318
310 309 312 311 312 311 320 323 326 328 327 328 327 331 325 330 330 334 334 336 336 335 334 330 331 330 330 333 327 322 329 330 331 332 329 324 321 317 315 314 313 313 313 315 315 317 321 321 320
307 309 313 311 311 312 322 325 324 326 330 327 329 337 332 330 330 333 333 335 332 333 336 335 329 329 328 324 319 324 328 330 330 331 328 325 320 316 315 316 316 314 313 315 313 314 315 316 318
307 310 310 311 312 314 324 326 323 324 330 331 332 332 331 331 331 332 332 331 332 333 334 334 328 327 323 320 318 323 328 329 329 330 329 325 321 316 315 316 316 315 314 315 313 313 314 315 319
309 309 311 310 312 315 324 321 322 323 326 332 331 330 330 330 329 330 331 330 329 330 332 331 329 326 326 324 319 322 324 324 330 332 331 325 320 316 316 316 317 316 313 314 314 314 313 312 315
310 311 311 312 311 315 323 325 325 324 329 329 328 329 327 328 328 328 328 329 329 328 328 328 327 324 323 318 316 316 319 321 323 327 329 326 319 316 316 316 317 317 314 314 314 315 314 312 312
312 310 311 311 315 319 324 327 330 327 329 328 324 327 327 328 327 325 326 325 327 327 326 327 326 325 322 320 317 315 315 316 322 325 328 324 318 316 317 317 318 317 316 316 317 317 314 312 311
312 314 315 314 315 321 326 331 330 332 330 328 328 328 327 326 325 323 323 322 323 326 327 325 324 321 320 319 319 318 322 323 325 327 325 320 316 316 317 318 318 317 316 318 318 316 315 312 308
315 316 314 314 322 327 328 328 325 328 328 328 327 327 325 324 323 321 321 320 321 324 326 325 323 321 318 318 319 323 326 325 324 323 319 317 316 317 317 318 318 317 317 318 318 318 315 312 308
316 315 313 314 315 323 321 324 326 326 329 329 327 324 323 322 321 321 321 320 320 320 324 325 325 323 320 321 322 327 325 320 319 316 316 316 317 317 318 318 318 318 317 319 319 318 314 312 308
315 314 315 315 316 320 321 323 320 328 329 329 326 326 323 322 319 320 319 319 319 320 320 322 325 325 323 323 326 326 322 318 322 319 316 317 317 316 316 317 318 319 318 319 319 317 314 313 310
313 312 314 315 315 321 320 323 320 329 329 328 324 323 322 321 317 318 319 318 317 318 319 320 321 324 322 321 326 324 323 322 324 322 318 318 317 317 317 320 320 320 320 320 320 317 315 314 311
313 315 315 315 315 323 322 320 321 325 326 329 323 321 322 321 319 317 318 317 317 317 318 317 320 321 320 319 319 323 324 323 323 321 319 320 320 321 322 323 323 322 322 321 320 318 316 314 312
314 315 315 313 313 319 320 321 318 320 322 323 320 322 322 321 318 317 317 317 316 316 317 318 318 318 319 319 321 322 323 321 322 320 320 322 322 322 324 324 323 323 323 322 321 319 316 313 312
314 314 314 314 314 320 320 322 320 321 322 322 320 321 322 322 317 316 315 316 315 316 316 318 317 318 319 320 320 319 318 315 316 318 317 316 316 316 320 320 321 324 323 322 320 319 316 315 313
314 314 314 315 315 319 321 318 320 321 322 321 320 321 323 323 319 317 315 315 315 315 315 316 317 317 316 317 317 319 318 318 316 316 315 314 314 314 314 319 323 323 323 322 320 319 319 315 312
315 314 316 317 317 318 316 319 315 321 323 324 322 321 324 324 321 317 315 314 314 314 315 315 316 317 317 315 315 315 315 315 315 315 316 315 314 314 314 317 319 321 323 324 323 321 319 318 312
316 316 317 317 317 317 318 316 316 323 326 324 323 322 322 325 322 318 316 315 314 314 315 315 315 316 316 315 314 314 314 314 314 314 314 315 315 314 314 317 320 319 322 322 323 322 319 318 315
316 317 317 318 317 321 318 317 318 321 324 325 324 322 322 324 323 320 317 316 315 314 314 315 315 315 316 315 314 313 313 314 314 314 314 314 315 314 313 317 321 321 323 323 324 322 320 320 315
316 317 319 320 321 323 319 325 322 318 320 323 325 323 320 321 324 322 317 316 315 314 314 314 314 313 314 314 314 314 313 314 315 315 317 317 314 314 315 317 319 321 321 323 324 323 321 320 317
316 317 319 322 323 321 323 324 321 319 317 319 322 325 319 319 323 323 320 317 316 315 314 313 313 313 313 313 313 313 314 315 317 318 319 319 319 320 320 320 318 320 322 323 320 323 322 320 318
316 317 316 322 324 325 322 321 318 318 317 317 317 322 322 317 318 323 322 318 317 316 315 313 313 313 313 313 313 313 314 315 317 320 320 320 320 319 319 318 320 321 323 324 323 323 321 319 317
316 317 321 321 326 328 323 325 321 320 320 316 313 320 322 321 317 319 322 321 319 318 317 315 314 314 314 314 314 314 315 316 318 320 321 321 320 320 322 322 321 323 324 324 323 322 319 317 315
316 317 320 320 320 322 324 321 318 321 319 318 317 314 316 321 321 319 320 322 321 320 319 318 315 315 315 316 316 315 316 318 319 320 320 321 322 323 324 323 323 324 324 323 321 319 318 317 314
315 316 318 321 324 321 320 322 317 316 317 317 317 315 313 315 320 320 321 322 322 321 321 319 318 316 315 316 317 317 317 319 320 322 323 323 324 324 323 324 324 322 323 322 321 318 317 316 311

GFSSGP_925_thetae_054.txt.gz
Theta_e
315 315 319 313 310 308 313 313 311 314 321 326 329 332 333 333 335 332 333 333 342 340 337 336 329 328 328 324 328 336 335 335 333 334 331 330 332 330 331 332 332 331 331 330 329 329 329 328 327
314 317 315 306 308 309 310 309 311 315 325 326 331 334 332 330 329 335 331 332 342 340 337 334 330 329 326 325 324 334 337 331 327 329 332 332 331 332 332 332 330 330 331 331 331 331 329 327 324
314 313 309 306 304 310 310 310 311 318 325 327 332 333 333 329 329 330 331 331 341 340 337 333 330 330 326 324 323 328 325 326 330 330 331 331 331 332 331 330 330 330 331 330 330 330 328 318 319
316 310 305 312 313 309 310 311 310 324 323 326 330 329 329 328 332 334 333 334 340 341 339 335 331 329 329 331 334 334 335 333 331 330 331 330 331 332 331 330 329 329 328 328 329 328 321 313 312
313 306 309 311 311 311 309 310 318 328 327 327 325 324 330 328 331 333 334 331 338 339 338 335 332 332 332 332 333 334 334 332 329 328 330 330 330 331 331 329 329 327 323 324 325 323 318 312 310
309 306 311 312 311 311 310 317 323 327 329 328 327 324 324 330 330 331 333 332 331 334 334 332 332 329 328 327 331 331 334 333 329 327 328 329 329 330 330 328 325 319 319 320 320 321 316 315 313
310 308 311 311 312 311 316 322 321 327 327 326 326 330 325 329 330 330 332 333 333 331 332 333 332 332 329 327 321 321 329 333 329 326 328 327 328 328 328 324 317 318 320 322 321 320 318 317 315
307 308 312 311 311 311 315 323 323 325 327 327 327 335 330 329 330 333 331 335 334 333 332 331 332 329 330 329 327 321 328 331 330 326 326 325 326 325 323 316 315 317 320 321 321 320 319 318 317
306 309 310 312 311 312 323 325 323 323 329 330 331 331 330 330 331 332 331 333 333 333 332 330 329 329 328 326 324 322 321 323 330 327 321 324 322 317 314 313 315 316 315 316 318 319 319 319 317
309 308 310 309 310 312 319 322 321 323 323 330 330 328 330 330 329 331 330 330 331 330 327 323 322 327 325 321 319 318 322 325 328 324 325 321 318 315 315 314 314 314 314 314 315 316 317 319 318
307 311 310 311 310 309 313 322 322 323 325 326 329 327 327 327 328 330 329 330 328 330 326 324 324 324 321 319 319 320 322 325 325 323 324 319 316 316 315 314 314 313 314 313 313 315 316 316 318
311 309 310 310 312 318 321 324 326 323 327 327 324 325 325 325 326 326 326 327 327 328 327 324 323 320 319 319 317 316 320 322 323 323 321 319 316 316 316 315 313 313 315 314 313 312 312 315 317
310 311 312 312 312 317 324 328 328 328 329 325 327 327 326 323 323 323 323 325 327 326 326 324 322 321 319 317 318 321 323 323 324 322 321 318 316 316 316 316 314 314 315 317 314 313 312 312 315
313 314 313 312 316 320 324 327 327 324 327 327 327 327 326 323 321 322 322 322 325 326 326 324 323 321 319 316 316 319 318 321 323 322 321 318 316 317 317 317 316 316 317 317 315 315 312 309 308
315 314 312 313 314 323 323 323 327 324 328 328 326 326 324 323 321 320 321 321 323 325 326 324 322 322 319 318 317 317 318 317 317 318 323 319 316 317 317 317 317 317 318 317 316 314 312 310 306
314 312 314 313 318 318 319 319 315 324 329 328 325 323 323 321 320 320 320 320 320 322 325 325 323 321 319 319 318 319 320 319 319 321 323 321 316 317 317 318 317 317 317 318 317 317 312 310 308
310 312 312 313 313 320 320 320 319 327 328 326 324 325 323 321 318 319 319 319 320 320 321 324 324 321 319 319 321 323 322 322 322 322 324 319 316 317 318 318 318 318 317 318 319 317 315 312 309
314 314 313 313 315 320 322 321 319 326 327 328 325 320 320 320 318 317 318 318 318 318 319 320 321 322 320 321 322 324 323 321 322 320 319 317 316 317 316 317 318 319 317 318 319 319 316 313 311
311 313 314 312 312 314 313 313 314 319 323 324 324 321 319 319 317 317 318 318 317 317 318 318 320 320 322 322 323 323 323 321 322 319 317 317 316 316 317 318 319 319 319 321 319 318 316 314 312
313 314 313 311 312 313 315 318 317 318 321 323 324 320 320 319 316 315 316 317 316 317 318 318 318 320 321 322 320 320 320 321 321 321 318 319 319 321 322 322 323 322 321 322 321 320 317 315 312
313 313 313 313 313 314 319 318 317 319 320 321 320 319 319 320 317 316 314 316 316 316 316 318 317 318 319 318 318 320 320 319 320 314 319 321 319 319 319 320 321 323 323 323 322 321 320 317 313
314 312 314 314 315 317 317 321 314 315 320 322 321 319 319 321 319 316 314 314 315 315 315 316 317 317 318 319 319 317 317 316 318 317 314 316 315 317 314 314 319 323 322 323 322 321 320 317 314
315 314 314 315 315 316 316 315 314 321 322 321 320 320 319 320 320 317 315 314 314 314 314 315 317 317 316 318 318 320 319 318 317 318 316 315 314 316 314 314 314 315 319 320 322 322 319 317 316
315 316 315 316 315 318 316 315 315 315 319 318 320 320 320 320 321 318 316 314 313 314 315 315 316 317 316 316 316 318 317 317 319 316 316 316 315 315 315 314 314 314 314 319 320 322 322 321 319
315 315 318 319 321 322 317 318 317 317 316 317 318 319 319 319 321 320 315 314 312 313 314 315 315 315 316 315 315 315 316 317 316 316 315 315 315 315 315 315 316 315 314 315 320 322 323 322 321
314 315 318 322 321 318 322 324 320 317 317 315 316 318 318 319 321 321 318 315 314 313 313 314 314 314 315 315 315 314 314 315 315 315 314 314 314 315 315 315 316 315 314 314 319 321 323 322 322
316 316 315 319 322 323 320 318 316 316 317 315 314 320 318 318 319 322 320 317 315 314 313 313 313 314 314 314 314 314 314 314 313 313 314 314 314 314 315 316 315 314 316 319 318 320 322 320 320
315 315 320 317 324 325 321 323 318 318 317 316 314 317 320 316 316 320 321 319 317 316 314 314 313 314 313 314 314 313 313 313 314 314 315 316 316 315 318 320 320 319 319 319 320 319 321 322 320
315 315 318 318 317 320 321 318 316 317 318 318 314 312 315 319 315 315 320 321 318 317 316 315 313 313 314 314 313 313 313 313 313 314 315 317 318 319 319 320 320 319 321 321 321 321 321 320 321
314 315 317 319 320 318 316 318 316 316 316 316 316 313 311 316 318 315 315 319 319 317 317 316 315 313 313 314 313 313 313 313 313 314 315 316 318 319 320 320 320 320 322 322 321 320 321 319 317

GFSSGP_925_thetae_057.txt.gz
Theta_e
314 316 318 313 316 316 318 318 314 316 324 327 332 332 332 335 336 336 333 336 340 338 335 334 332 338 335 338 340 339 336 334 331 329 328 334 334 333 332 332 331 330 330 330 329 329 328 328 328
314 316 314 312 316 318 317 313 315 315 324 327 331 334 333 332 332 337 333 333 340 338 336 337 330 331 335 338 338 338 335 332 330 326 329 332 332 331 329 329 330 329 328 328 328 327 327 327 326
313 313 315 314 313 317 317 313 315 314 323 328 329 333 334 331 329 332 330 331 340 340 338 337 334 329 329 333 336 337 336 334 334 333 331 331 331 331 330 330 329 329 328 330 328 326 326 324 322
315 314 312 318 317 315 315 316 313 319 324 326 332 332 330 330 333 334 334 332 337 340 338 337 331 329 329 336 338 336 336 334 331 331 328 332 330 330 329 329 330 330 331 331 328 326 322 319 320
311 312 316 316 316 315 313 313 313 323 327 327 326 327 330 328 330 331 333 331 338 339 337 336 332 329 328 331 337 336 335 334 331 331 331 330 330 329 329 330 330 330 330 330 326 318 313 314 315
315 312 317 317 315 314 314 313 321 326 329 328 328 327 325 330 330 330 331 332 334 336 335 331 332 329 327 327 333 334 333 331 331 330 330 330 329 329 329 329 328 329 329 326 315 311 312 312 312
316 315 315 314 316 314 315 323 322 325 329 328 327 330 328 330 330 330 331 332 331 333 334 332 332 331 329 328 333 333 331 332 331 330 329 329 328 328 329 328 324 324 325 321 314 312 313 314 313
313 315 314 314 315 315 314 324 324 326 327 327 327 332 333 330 331 332 332 331 333 333 331 332 331 331 330 328 330 330 331 330 330 329 329 329 328 329 328 324 320 321 321 321 315 314 315 315 313
309 316 316 316 314 316 320 324 324 324 327 330 332 331 331 330 330 332 333 332 332 332 331 329 330 329 328 327 325 324 331 328 330 329 328 329 329 328 324 321 321 322 321 320 317 317 316 315 314
315 316 316 313 313 315 315 322 322 325 324 327 330 329 330 329 330 332 332 331 329 330 330 327 328 325 329 329 325 325 325 326 329 329 329 329 327 325 320 319 321 321 321 320 318 317 316 318 318
312 316 313 314 313 313 313 319 322 324 325 325 329 329 329 329 328 330 330 330 329 327 324 325 325 326 329 328 326 322 325 327 324 328 327 326 323 317 316 315 316 320 320 323 321 318 320 319 318
314 312 313 313 312 315 316 322 325 324 325 328 327 327 327 327 327 329 328 328 328 324 325 324 323 324 324 323 321 319 320 323 323 326 323 319 318 314 315 314 315 315 316 318 320 319 318 317 314
312 312 311 312 313 314 322 325 327 328 326 327 327 328 328 326 324 325 324 325 327 327 326 324 322 321 320 320 320 319 321 324 323 323 320 316 316 314 314 314 314 314 314 315 316 316 317 316 314
313 312 315 315 315 317 322 325 329 327 328 329 329 329 327 325 323 322 323 324 326 326 325 324 322 320 319 318 319 322 323 324 323 324 319 315 316 315 314 314 314 314 313 313 313 313 314 316 313
315 317 315 315 314 319 324 324 329 327 330 330 329 329 327 325 321 321 322 323 325 326 325 323 322 320 319 318 318 319 320 320 321 322 319 315 316 316 314 314 314 316 315 314 313 312 312 312 311
316 314 317 314 318 319 323 321 318 324 331 330 329 327 324 324 322 320 321 321 323 325 325 323 322 321 319 317 318 320 319 320 322 323 321 316 317 316 316 314 314 316 316 315 314 313 309 308 308
314 316 315 314 316 322 323 323 320 327 329 330 329 328 326 323 321 320 320 320 321 321 323 323 322 322 320 318 317 319 319 321 322 319 319 321 318 317 317 316 316 317 317 316 315 313 310 308 307
317 316 314 315 319 321 322 322 320 324 329 330 329 327 326 323 321 319 319 320 320 320 321 323 323 321 319 318 318 320 319 318 319 318 317 317 320 317 317 317 316 316 318 316 315 315 311 310 309
314 314 315 314 313 315 316 316 318 316 327 329 330 329 327 324 321 319 319 319 318 319 320 320 321 321 320 319 319 320 320 320 319 318 318 319 321 317 317 317 317 317 317 318 318 315 313 311 309
314 315 316 315 313 314 316 318 319 319 322 325 328 329 328 324 322 320 319 318 318 318 318 319 320 321 320 320 320 321 319 321 321 320 319 320 321 317 317 317 317 318 317 317 318 317 316 314 312
316 316 316 316 314 315 318 320 319 319 321 322 324 326 326 325 322 320 318 318 318 318 319 319 319 320 320 320 320 321 320 319 320 321 320 319 319 317 317 317 318 319 318 318 320 319 318 315 313
317 314 315 314 315 317 318 321 320 319 319 320 322 323 324 324 323 320 317 317 317 318 318 319 318 319 319 320 320 321 318 317 319 320 320 318 317 318 319 320 319 320 320 320 321 321 319 317 316
316 315 316 315 316 317 318 320 319 317 320 321 322 323 323 323 323 322 318 317 317 317 316 318 318 318 319 320 320 319 318 318 320 319 320 319 320 320 317 316 316 317 318 319 322 321 320 319 317
315 316 316 317 318 322 319 320 320 319 319 320 320 321 322 322 323 322 319 317 317 316 316 316 318 317 318 318 319 319 318 318 316 317 319 317 316 317 316 316 317 316 315 316 318 320 321 321 317
316 318 319 322 324 323 318 319 321 319 318 319 320 320 321 322 323 323 321 318 316 314 315 315 317 318 316 317 318 317 317 318 316 316 318 319 315 315 315 315 315 314 314 314 315 316 319 320 321
316 317 321 324 325 322 321 323 321 321 319 319 318 319 320 322 323 324 322 319 317 315 315 315 316 317 317 316 316 317 318 317 318 317 317 318 316 315 315 315 315 315 315 315 315 316 315 317 320
316 318 317 320 323 325 322 321 319 320 319 319 318 317 320 323 323 324 322 320 318 317 316 315 316 317 317 317 316 315 315 316 316 317 316 317 317 316 315 315 315 314 315 316 316 317 315 318 319
317 317 320 319 322 324 322 323 321 320 320 319 320 317 319 322 322 323 324 320 319 318 316 316 316 316 316 316 316 316 315 315 315 315 315 316 316 316 316 316 315 315 314 315 315 318 318 319 318
317 318 319 319 320 323 323 323 321 322 321 320 321 318 317 317 321 322 324 322 320 318 317 316 315 316 316 316 316 316 315 315 314 314 314 315 315 316 316 315 316 316 316 318 320 319 319 319 320
315 317 319 322 321 321 322 322 318 320 320 320 320 319 318 315 319 320 321 323 321 319 318 316 316 315 315 315 315 315 315 315 314 315 315 315 315 316 316 316 316 315 317 319 319 319 320 321 320

GFSSGP_925_thetae_060.txt.gz
Theta_e
315 319 320 319 321 321 321 320 319 321 324 328 332 333 333 334 333 334 338 339 341 341 342 337 340 343 344 341 338 335 335 336 334 334 335 335 334 335 336 335 333 333 334 334 331 330 331 332 330
318 318 319 320 320 320 321 320 320 320 321 328 332 332 334 333 334 337 338 339 338 342 342 339 336 341 343 341 340 338 336 335 334 334 333 335 335 334 335 333 331 331 331 331 330 329 329 330 327
316 316 320 320 320 320 320 320 320 320 322 328 329 332 333 334 332 335 335 336 337 341 338 338 334 334 339 343 340 338 339 337 335 336 335 335 334 333 332 331 330 329 329 329 328 329 329 327 323
316 318 319 321 320 320 320 320 320 320 325 327 329 331 333 333 334 336 336 335 338 341 338 337 334 334 340 343 341 340 339 336 335 335 334 333 333 331 329 328 329 329 329 328 328 328 326 324 323
319 319 320 320 320 320 320 320 319 321 327 329 329 327 330 332 332 333 335 335 337 339 340 337 336 331 336 341 341 340 338 336 335 332 333 333 332 331 328 329 328 329 328 328 327 326 324 323 322
320 320 318 319 320 320 320 320 320 323 326 330 330 329 329 331 332 333 333 335 336 337 338 336 335 331 331 337 340 339 338 336 333 332 333 332 332 330 329 330 331 330 328 325 324 323 320 320 318
319 318 317 319 319 320 321 325 324 324 326 327 329 329 331 332 332 334 335 335 336 336 336 334 332 330 330 331 336 333 337 334 332 332 332 332 331 330 331 331 330 328 325 316 315 315 314 314 317
319 318 318 318 319 320 319 323 323 323 323 330 329 329 329 334 333 334 335 334 336 336 333 332 330 329 328 330 331 332 332 332 332 331 331 331 330 330 329 328 329 327 316 312 314 314 313 313 315
317 318 318 317 319 319 319 322 324 325 325 330 332 331 332 332 332 333 335 334 333 335 333 332 331 330 329 328 328 332 332 332 330 330 331 330 331 330 328 328 327 325 314 313 314 315 314 314 315
317 318 318 317 319 318 319 320 320 323 323 328 330 332 332 331 331 333 333 334 331 331 331 331 331 329 329 329 329 331 330 331 331 331 331 330 330 328 326 326 323 323 315 314 316 315 314 317 317
316 317 317 317 317 318 319 320 321 323 323 323 326 329 332 332 331 330 331 332 331 332 329 328 327 327 325 326 327 329 327 326 325 325 329 329 329 325 325 327 327 326 319 321 319 318 320 318 317
316 317 316 316 317 317 320 321 323 323 324 328 327 329 332 332 330 329 330 331 331 329 329 326 328 326 327 327 326 326 327 322 322 322 326 328 324 324 325 326 326 325 323 323 322 321 321 320 317
316 316 317 317 317 317 319 321 323 324 325 328 329 329 332 330 328 327 328 328 328 328 326 325 323 324 326 327 326 325 325 326 324 323 325 326 324 323 322 323 325 324 324 324 322 322 322 319 318
316 317 316 317 318 319 320 320 326 322 326 330 330 330 330 330 328 327 327 327 327 328 327 323 323 323 324 323 322 322 323 323 323 322 325 324 322 321 321 320 320 321 323 323 321 320 320 318 317
316 316 317 318 318 318 320 321 327 324 329 330 331 331 330 329 327 326 326 326 326 328 327 323 323 323 323 322 321 321 322 323 321 321 323 321 320 320 320 319 318 319 319 319 319 319 318 318 317
316 317 318 318 318 319 323 320 321 323 329 329 331 330 330 329 326 324 323 324 326 326 326 324 322 321 323 321 321 319 321 322 321 321 321 319 317 317 318 318 318 317 317 317 318 318 317 316 316
318 317 318 318 318 321 324 321 323 326 326 326 329 330 330 329 327 324 323 324 324 325 325 324 323 321 319 318 321 321 321 323 321 321 321 320 318 316 318 318 319 319 317 316 316 315 314 314 313
318 318 318 318 318 319 322 322 322 324 327 328 328 330 331 330 328 324 323 323 324 325 323 324 323 321 320 317 319 319 321 319 318 321 322 320 317 320 319 318 319 320 319 318 317 316 315 313 312
316 317 317 316 317 318 319 319 320 321 323 327 329 330 331 330 327 323 323 324 324 323 324 322 322 322 320 318 319 320 320 319 318 320 320 319 320 321 321 320 320 321 320 320 319 319 317 315 313
315 316 316 317 317 316 316 317 320 321 322 324 328 330 331 331 328 325 323 323 323 324 324 322 322 320 320 320 318 320 321 320 319 321 320 319 321 321 321 321 321 320 321 321 321 319 319 317 313
316 316 317 317 317 316 317 318 320 321 322 323 325 327 329 331 330 327 325 323 323 322 321 323 323 320 320 320 320 320 320 319 320 320 319 319 322 323 321 320 321 321 321 322 322 321 320 320 317
316 316 316 317 318 316 318 319 321 321 321 321 321 327 328 330 329 328 326 324 323 322 322 322 322 323 321 321 320 321 319 319 319 319 319 320 321 323 322 320 322 323 322 322 322 322 322 321 321
317 316 317 318 319 317 316 318 319 320 321 321 321 322 327 328 329 328 327 324 322 322 321 321 321 322 321 321 321 320 319 319 318 319 320 321 321 322 321 320 323 323 321 322 322 322 321 322 322
316 317 318 318 318 320 318 320 320 320 321 319 320 320 324 327 328 328 326 324 323 322 321 320 320 321 320 321 321 321 320 319 318 320 319 319 319 320 319 317 320 322 319 317 316 318 322 322 322
317 318 320 320 322 321 320 322 321 321 322 321 320 321 324 327 328 328 328 326 324 322 321 320 320 320 321 320 321 321 322 320 318 319 319 319 320 319 319 319 321 319 316 315 315 316 320 321 323
318 318 320 322 323 323 322 322 322 321 322 322 323 323 324 326 327 328 328 326 325 322 321 320 320 320 320 321 321 322 322 321 318 318 318 319 318 318 318 318 318 318 316 315 318 320 320 321 322
318 319 318 320 324 325 324 323 322 321 321 321 321 321 323 323 327 328 328 327 325 323 321 320 320 321 321 320 320 320 322 322 320 319 318 318 319 317 317 318 317 318 319 318 319 319 319 320 321
319 319 320 320 322 324 322 323 322 321 321 321 322 323 322 324 326 328 329 327 326 324 322 320 320 321 322 322 322 322 323 322 322 321 319 319 319 319 319 318 317 317 319 319 320 320 320 320 321
319 320 320 321 320 322 323 323 321 321 323 323 323 323 324 322 327 328 328 327 326 325 323 322 320 320 321 322 322 322 322 321 322 321 320 321 320 320 320 320 319 319 318 319 319 319 319 319 320
318 319 320 321 322 322 323 322 320 322 321 323 324 323 324 323 323 326 328 328 326 326 325 323 322 320 320 321 322 322 321 321 320 320 321 321 321 321 320 320 320 320 320 319 319 320 319 320 321

GFSSGP_925_thetae_063.txt.gz
Theta_e
313 318 321 321 323 322 323 323 322 321 322 327 330 329 331 330 329 334 340 341 343 344 345 339 339 343 344 342 340 338 333 334 335 331 328 333 332 334 336 335 335 335 336 336 336 335 334 334 331
319 320 320 324 320 323 324 323 321 321 322 327 328 328 328 329 331 332 338 341 341 343 344 341 339 343 344 343 341 341 337 337 334 331 330 333 333 336 336 334 333 334 334 334 334 334 333 330 329
320 319 322 322 322 323 323 322 321 321 322 324 325 327 328 330 333 334 338 339 340 343 343 342 339 340 342 343 341 340 339 337 335 330 332 334 336 336 334 332 333 332 331 331 331 332 331 327 327
317 318 321 322 322 323 322 321 321 321 322 324 325 325 331 334 334 337 337 337 339 342 343 342 339 336 341 341 341 338 339 338 335 334 335 336 336 335 333 331 331 331 330 330 329 330 327 325 325
317 321 323 323 323 323 322 321 321 321 322 325 325 325 327 334 333 334 335 337 338 341 343 339 339 336 333 336 337 337 339 337 335 336 336 336 335 333 331 330 329 329 329 330 329 328 323 321 321
320 320 322 322 322 322 321 321 321 321 322 325 327 327 327 334 332 334 335 335 337 340 340 340 337 336 332 334 335 336 338 336 335 335 335 335 333 331 328 330 330 329 328 327 327 324 322 322 321
320 322 322 321 321 322 322 323 322 322 323 323 327 327 328 334 333 334 336 337 338 338 337 339 339 336 331 331 333 335 337 336 335 334 334 333 330 327 328 330 328 327 325 325 322 322 321 320 321
320 321 321 321 320 321 322 323 322 322 322 328 325 326 327 337 335 335 335 336 336 338 336 336 334 332 329 322 328 333 336 336 334 334 334 332 328 328 330 331 327 321 317 316 319 320 318 319 320
319 320 321 320 321 321 321 320 321 323 323 323 327 329 332 334 333 334 335 336 336 337 336 335 331 329 325 323 327 328 329 335 332 333 333 331 330 331 331 331 327 314 315 315 315 314 314 317 317
318 319 319 321 320 320 321 321 321 322 322 323 326 328 331 332 332 332 332 333 336 334 336 334 332 330 327 326 327 325 325 333 332 333 331 329 331 331 330 331 326 313 315 314 313 313 313 317 317
318 319 319 320 319 319 320 320 321 321 321 323 325 324 328 332 332 332 331 331 333 334 332 333 332 332 330 329 328 326 329 333 333 332 331 329 329 329 329 328 321 318 317 320 318 314 318 317 316
318 318 318 319 319 318 319 320 321 322 322 323 327 328 328 332 332 330 330 330 333 331 330 331 331 330 329 328 327 327 326 330 330 331 328 329 327 327 328 327 324 321 322 321 319 320 320 319 318
318 318 318 318 318 318 319 319 321 321 322 324 327 329 330 332 330 329 329 330 331 330 329 329 330 329 329 328 327 327 328 326 327 326 325 326 326 326 327 327 326 323 324 322 321 323 321 319 319
318 318 318 318 318 319 318 319 320 321 323 324 329 330 331 332 330 329 328 329 330 330 330 330 327 328 327 327 326 325 327 325 323 322 323 326 326 326 326 326 326 324 324 323 322 323 321 319 319
317 317 318 318 318 318 319 319 320 320 323 326 330 330 331 332 329 329 327 329 329 330 330 327 325 325 325 324 326 326 325 325 322 320 321 321 324 324 326 326 326 325 324 323 322 322 321 319 319
317 317 318 319 319 319 319 320 321 321 326 326 328 330 331 333 331 328 326 328 329 329 329 326 324 324 325 324 322 323 324 324 323 323 321 319 320 322 323 323 323 323 324 323 321 320 320 319 318
320 319 319 320 320 320 320 321 321 325 325 326 327 330 331 331 331 328 326 327 329 328 330 327 324 324 324 324 322 322 323 323 322 320 319 318 322 321 322 321 321 321 321 321 320 319 319 319 318
320 320 320 320 321 320 321 323 322 324 325 326 326 327 330 331 330 328 325 326 328 329 328 327 325 324 322 322 321 322 321 321 319 319 321 322 321 320 320 320 320 319 318 318 319 319 318 317 317
319 321 321 321 320 320 320 320 323 322 323 324 327 327 329 331 331 328 325 326 327 328 328 326 324 322 320 321 321 321 322 320 319 320 321 320 319 318 317 319 320 320 319 318 318 318 317 316 315
319 319 320 320 319 319 319 318 320 321 321 323 324 326 328 330 331 329 326 326 327 327 326 324 324 322 320 320 321 321 321 321 320 319 321 321 317 320 316 320 320 321 321 320 320 320 320 318 315
320 320 320 320 320 319 319 318 318 320 321 322 323 323 326 329 331 330 328 326 327 327 326 325 322 322 320 320 320 321 320 320 319 320 319 319 321 320 321 322 322 321 323 323 322 322 322 320 318
320 319 319 319 320 321 321 321 320 320 321 322 323 323 324 326 330 331 329 327 326 326 325 326 324 321 322 320 319 320 320 321 319 318 321 318 318 321 321 319 321 322 322 323 323 324 323 322 322
320 319 319 318 320 321 322 320 320 321 322 322 322 323 324 326 329 331 330 327 326 326 325 323 325 324 323 323 321 320 320 321 321 319 320 320 317 320 321 321 320 322 323 323 324 324 324 324 322
317 318 319 319 321 325 323 322 321 322 322 323 320 322 322 326 327 330 329 328 326 325 325 324 323 324 324 322 322 321 320 320 320 321 320 319 319 320 320 321 320 318 322 323 323 322 324 324 323
316 319 322 323 325 325 323 323 323 322 322 322 322 321 323 324 327 330 330 330 326 325 325 324 323 323 323 323 322 322 321 321 320 320 320 320 319 321 322 322 322 320 318 320 319 322 322 323 324
317 319 322 326 327 325 323 323 324 323 322 321 321 322 323 326 327 329 330 330 327 325 325 325 323 324 323 322 322 322 322 323 320 319 319 320 320 320 322 323 323 322 319 318 320 319 318 318 318
318 320 318 321 326 328 325 323 324 323 322 322 322 322 322 323 326 328 329 330 328 326 325 325 323 323 323 323 322 322 322 322 322 320 320 319 320 321 321 321 322 322 321 321 320 319 317 318 319
318 319 320 321 325 327 325 327 325 322 322 322 322 324 324 324 324 328 329 330 329 327 325 324 323 324 324 323 323 322 323 323 323 322 322 320 320 322 322 322 321 320 321 321 321 320 318 319 320
319 320 322 320 321 325 327 325 324 323 324 324 324 323 324 324 327 328 329 329 329 328 326 325 324 323 324 324 323 323 322 324 324 323 323 322 321 321 321 320 320 320 319 319 319 320 321 320 321
319 320 321 324 327 324 327 325 322 322 321 322 323 323 324 324 324 328 330 330 330 329 328 326 325 323 323 325 325 324 324 324 324 324 324 324 323 322 322 322 320 319 320 320 320 320 321 321 321

GFSSGP_925_thetae_066.txt.gz
Theta_e
314 313 319 323 322 323 323 324 323 321 322 325 327 327 328 327 327 340 340 342 344 346 346 335 338 344 344 342 340 339 336 335 333 329 334 331 331 332 336 336 337 337 337 338 338 337 336 335 330
316 319 321 322 324 324 323 324 323 322 323 325 325 324 325 327 332 331 342 341 341 344 346 343 337 342 345 343 341 339 339 338 334 329 332 331 330 334 336 336 337 336 337 337 336 335 334 332 329
316 322 320 322 323 323 324 323 322 322 321 322 324 324 326 330 333 332 340 340 340 343 344 344 339 340 344 344 341 340 339 339 334 329 331 329 333 335 336 335 335 335 335 336 335 333 331 329 328
320 320 319 320 322 323 323 323 322 321 321 322 324 324 329 332 331 337 336 337 338 341 343 344 341 337 342 344 342 339 339 339 335 328 332 330 335 335 334 334 334 333 333 334 332 331 328 327 324
318 318 320 322 323 323 324 323 321 321 321 324 324 325 328 334 333 334 335 337 338 340 342 342 342 340 338 341 342 338 338 338 334 334 335 333 335 334 333 333 331 330 330 332 329 328 327 325 321
318 318 320 322 322 322 323 322 321 321 321 321 325 327 328 335 332 335 336 336 337 338 341 342 340 339 336 337 338 335 335 337 333 334 336 336 335 333 332 331 330 330 329 329 327 325 325 324 320
319 319 321 321 321 322 322 323 322 321 321 323 326 326 328 334 334 335 335 338 339 339 340 340 340 337 335 334 336 333 333 334 333 336 336 335 334 332 330 329 329 329 327 326 324 320 320 319 321
319 320 320 321 322 322 322 323 323 322 322 325 324 324 331 337 336 336 336 338 336 337 336 336 339 339 336 332 331 331 329 328 335 336 335 334 332 330 329 328 328 327 326 325 322 320 320 321 322
319 320 320 320 321 321 322 322 322 321 322 322 322 325 333 336 334 334 335 337 337 337 337 335 336 335 334 332 325 324 326 326 327 335 335 333 330 329 329 328 327 325 325 323 321 316 320 321 320
318 320 319 320 320 321 321 321 321 321 322 323 323 326 333 332 332 332 332 338 338 336 337 337 334 332 330 327 325 328 327 323 319 332 332 331 332 332 330 328 322 322 321 319 314 313 316 318 319
318 319 319 319 320 320 319 320 320 321 321 321 324 325 330 334 332 333 332 330 337 336 336 334 335 333 330 330 328 327 327 325 327 331 331 332 332 331 331 326 318 318 316 314 313 314 315 317 319
317 318 319 319 319 319 318 319 319 320 322 322 323 325 326 331 333 332 330 330 334 334 334 333 332 333 331 329 328 329 325 326 326 331 331 331 330 329 330 324 319 317 316 314 312 314 318 315 320
318 317 318 318 319 318 318 318 319 320 321 321 322 327 329 330 331 330 330 330 331 331 331 331 331 330 329 328 327 327 324 326 327 329 330 329 329 329 328 323 319 320 320 318 312 319 319 317 318
319 317 317 318 318 319 318 318 319 320 320 321 324 328 330 330 331 329 330 328 330 331 331 330 331 329 329 329 327 327 327 329 329 328 328 327 327 328 327 324 320 322 321 320 320 322 319 319 320
318 318 318 318 319 318 319 318 320 320 320 320 324 328 329 333 330 329 328 329 330 330 330 329 328 328 327 328 328 327 327 326 329 326 326 325 326 327 327 326 323 324 322 323 321 323 321 320 320
318 318 318 318 318 319 318 318 319 321 321 321 324 328 330 332 331 329 327 329 330 330 330 327 326 325 326 325 325 326 325 326 325 322 323 324 325 326 326 325 324 325 323 324 322 322 321 320 320
318 318 318 318 319 320 319 319 320 321 322 324 326 327 330 331 332 330 327 328 330 330 330 327 326 325 325 324 324 325 325 325 323 323 323 322 323 325 325 325 324 325 324 324 324 321 321 320 320
319 318 319 320 320 320 320 321 321 322 324 325 325 325 329 330 331 330 327 327 329 329 330 327 325 325 325 323 323 323 323 324 322 321 321 322 323 323 323 323 324 324 324 323 322 320 321 320 319
318 319 319 320 321 321 321 320 320 322 322 326 325 326 326 330 331 330 327 327 328 329 328 327 325 324 324 322 323 322 322 322 322 321 321 319 321 321 322 321 321 321 321 320 320 320 319 320 318
317 319 321 321 321 320 320 320 320 321 322 323 324 326 327 328 331 331 327 327 328 330 328 327 326 324 323 322 322 322 321 320 319 318 318 319 320 321 320 321 320 319 319 318 319 318 317 317 316
319 319 320 320 320 320 319 320 320 320 320 321 322 324 325 328 331 331 329 327 328 330 328 326 325 323 322 322 322 322 321 319 319 319 320 320 321 320 319 319 317 319 319 318 318 318 318 318 316
318 318 318 320 321 321 321 322 322 322 320 320 321 324 324 324 329 332 329 327 328 329 328 326 324 322 322 322 322 321 321 320 319 320 321 320 320 319 319 318 319 317 321 320 320 319 320 320 318
318 320 321 321 320 321 320 322 322 321 321 321 322 324 324 325 327 332 330 328 327 328 328 326 324 322 321 320 322 321 321 320 319 319 320 320 320 320 319 320 320 322 317 322 322 322 321 323 321
319 320 321 322 322 323 321 322 323 323 322 322 323 323 323 325 326 330 331 329 327 327 327 326 325 323 323 321 321 321 321 321 320 319 320 320 320 319 320 321 321 322 320 321 322 321 321 323 322
317 321 323 325 326 326 321 323 325 324 323 323 323 322 323 326 327 328 331 330 328 328 328 326 326 325 323 323 321 321 320 321 321 319 318 319 319 318 318 320 322 321 319 321 321 320 319 321 322
316 319 324 332 331 325 323 324 324 324 323 323 321 322 323 325 328 328 330 331 328 327 328 327 325 325 324 323 322 321 321 321 321 321 319 319 319 318 317 319 320 321 321 318 320 321 320 319 318
318 320 319 322 324 327 328 323 323 324 323 322 322 322 323 326 327 327 329 331 329 327 327 327 325 324 325 324 323 322 321 321 321 321 321 320 320 319 319 320 320 319 320 320 319 319 318 316 318
319 318 321 321 328 330 329 326 325 325 324 322 322 324 325 325 325 327 328 331 330 327 327 327 326 325 324 323 323 322 322 322 322 320 320 320 320 319 319 321 322 320 321 322 321 320 319 317 319
319 320 320 322 322 328 331 330 328 326 325 326 325 324 326 326 327 328 328 331 331 329 327 327 326 325 325 324 322 322 322 322 323 322 321 320 320 320 320 320 321 322 323 323 321 320 319 319 320
317 320 320 325 325 324 327 328 325 323 322 323 324 325 325 326 325 327 329 330 331 330 328 327 326 325 326 325 324 322 321 322 323 323 323 322 321 320 320 321 322 322 322 322 322 322 321 321 320

GFSSGP_925_thetae_069.txt.gz
Theta_e
315 313 312 319 319 315 318 319 319 320 326 324 324 326 325 325 333 344 341 341 347 346 339 342 344 339 337 336 335 336 336 334 331 328 326 329 330 326 328 328 334 336 337 337 335 336 336 335 332
312 314 317 317 317 319 319 319 319 321 323 323 323 322 324 334 337 342 340 341 344 347 345 336 342 343 341 339 337 336 336 335 332 329 327 329 328 329 333 336 337 337 337 337 337 336 335 331 330
314 316 316 316 315 319 320 320 318 319 319 320 322 322 324 335 331 339 339 338 338 342 345 343 336 342 344 342 339 339 338 335 334 331 327 328 328 333 335 336 336 337 337 337 337 334 331 328 328
315 317 314 315 316 317 319 320 319 319 319 319 321 323 333 331 334 339 337 337 338 337 343 344 341 336 343 343 341 339 339 337 334 331 330 330 333 336 335 334 335 335 336 336 335 332 328 327 325
316 312 313 314 315 317 318 318 318 319 322 323 321 323 334 334 335 335 336 336 338 340 341 343 342 339 338 341 343 339 339 338 334 330 330 334 335 336 335 334 334 334 334 333 331 328 325 324 326
313 310 312 313 316 318 319 319 319 319 320 320 319 324 334 333 333 335 335 336 337 340 341 342 340 339 339 336 339 340 338 338 335 331 332 328 336 335 334 333 332 333 332 330 328 326 323 323 323
314 313 313 313 316 318 319 318 319 319 319 322 326 326 333 332 335 335 335 336 337 339 340 341 341 338 337 337 337 337 336 334 335 333 331 328 335 334 332 331 330 330 329 328 327 325 321 323 322
314 313 315 316 317 318 319 321 319 319 319 325 321 323 334 333 334 334 336 338 338 338 337 335 340 339 336 335 335 334 332 329 325 329 332 334 334 332 331 330 329 328 327 326 325 325 320 322 321
316 316 315 315 316 317 318 321 321 320 319 321 321 321 334 335 336 334 337 337 335 335 335 334 335 338 337 334 333 332 330 329 328 325 324 332 333 332 330 329 328 327 325 322 321 319 320 321 321
316 314 315 315 316 317 317 317 319 318 319 322 320 334 337 335 334 333 335 335 336 336 338 336 335 334 333 332 329 326 324 328 326 325 324 333 332 330 329 328 327 326 322 320 318 318 321 321 321
315 316 315 316 317 317 316 315 318 318 319 319 321 333 332 330 330 329 331 334 336 335 336 336 334 332 330 328 326 325 327 326 325 325 325 332 331 330 328 328 325 324 321 319 317 320 321 320 320
317 316 316 316 316 316 315 315 315 317 320 319 319 325 331 331 330 329 329 335 335 334 333 334 334 332 331 330 329 328 327 326 322 324 326 332 331 330 328 326 323 321 320 316 317 317 319 320 320
318 316 316 316 316 316 316 315 315 316 316 319 320 324 324 328 327 329 331 333 333 332 333 332 331 333 330 328 327 328 327 326 325 327 325 331 330 329 326 322 320 319 315 312 314 314 319 319 321
317 317 317 317 316 315 316 315 315 316 316 316 317 325 325 326 327 326 328 330 330 330 330 331 330 330 328 327 327 327 326 326 326 331 330 329 330 328 323 319 318 317 312 311 313 313 318 319 319
316 316 316 317 315 315 315 315 316 315 315 315 316 325 326 327 328 325 328 330 330 330 329 330 330 328 328 327 327 327 327 326 327 329 329 329 329 327 321 317 317 315 313 311 318 319 316 318 321
318 316 316 316 316 316 314 317 315 314 314 315 314 322 326 328 328 327 328 330 330 329 329 328 328 328 327 327 327 326 327 326 327 328 328 328 328 326 322 318 318 319 315 314 320 322 319 319 320
318 317 316 317 316 316 314 316 316 314 315 315 315 320 325 329 327 327 329 330 329 329 329 327 326 326 325 326 325 326 326 327 326 327 327 327 327 326 323 317 322 323 317 319 321 323 320 320 320
319 318 315 316 316 316 315 316 316 316 316 320 319 319 323 329 329 326 327 329 329 330 328 326 325 325 324 324 324 323 325 326 327 326 326 326 326 325 324 319 323 325 321 322 321 321 320 320 320
317 319 317 316 317 318 319 318 315 318 316 318 319 318 318 328 329 326 326 329 329 330 329 327 326 326 324 323 323 322 324 324 324 323 324 325 324 325 325 323 321 325 323 323 324 321 320 320 320
317 318 317 317 318 319 319 318 316 317 316 316 319 318 319 325 329 325 325 327 328 329 329 326 325 325 324 322 323 322 321 322 323 323 322 323 324 324 324 324 323 322 323 323 321 321 321 320 320
317 318 317 319 319 318 318 318 317 318 317 316 318 320 321 325 328 325 325 325 328 328 328 326 325 324 323 322 322 321 321 321 321 321 322 322 321 322 322 322 321 320 322 321 320 320 319 318 317
320 319 319 318 318 319 319 320 317 318 318 318 315 315 321 322 328 325 325 324 327 327 327 326 324 323 323 322 322 321 320 320 320 320 320 320 321 322 320 321 321 320 319 318 319 318 318 317 316
321 320 319 321 322 322 321 318 317 318 319 318 316 314 316 318 328 326 324 325 326 327 327 325 324 324 322 322 322 320 319 320 319 319 319 319 320 320 319 320 319 318 318 317 318 318 318 316 315
318 321 322 321 322 325 322 319 317 318 320 321 318 317 318 316 328 326 324 326 326 327 326 325 323 321 322 322 321 320 319 319 318 319 320 319 321 320 320 320 318 317 318 320 319 318 318 318 319
318 322 327 327 323 324 320 321 319 319 321 321 319 317 317 318 328 327 325 325 325 326 325 324 323 321 322 321 322 321 320 319 318 318 320 320 320 320 320 319 318 321 319 319 321 320 321 321 321
317 321 326 331 331 327 323 322 320 320 320 321 318 318 319 320 328 327 326 325 325 326 325 324 323 322 321 321 321 321 321 320 319 318 319 320 320 320 320 319 319 320 319 320 320 321 321 319 319
321 320 318 323 322 326 326 323 320 320 320 319 319 318 317 320 321 328 326 325 325 326 325 324 324 323 322 322 321 321 320 321 320 319 318 319 319 319 319 319 320 320 319 321 320 320 321 320 319
320 318 322 322 329 331 327 328 323 324 322 320 320 319 319 320 321 325 327 325 325 326 325 325 325 324 323 322 322 321 321 320 320 320 319 318 318 319 319 318 318 319 320 321 320 319 319 320 319
319 322 322 323 324 328 332 331 325 321 322 323 322 321 320 319 320 320 327 326 325 326 326 325 324 323 324 323 322 321 321 321 320 320 321 320 318 318 319 318 318 319 319 319 320 320 320 319 319
318 319 321 326 329 325 322 326 322 319 320 320 320 320 320 320 321 321 327 326 325 325 326 325 324 324 323 323 323 321 321 322 322 321 320 320 320 319 319 319 318 319 320 320 320 319 320 320 319

GFSSGP_925_thetae_072.txt.gz
Theta_e
317 314 312 318 318 312 315 316 317 318 325 323 323 324 325 327 330 332 341 343 346 343 341 341 340 337 334 333 331 332 334 332 331 332 332 334 335 334 331 330 332 336 336 338 338 336 337 338 336
316 313 316 313 316 316 315 316 318 318 324 321 320 321 324 337 342 340 341 343 346 344 340 340 340 338 336 334 333 333 334 332 330 329 331 332 331 329 328 331 333 335 336 335 336 335 336 335 334
313 316 314 315 312 316 317 318 318 317 319 320 321 321 330 336 341 340 340 341 345 344 341 339 340 340 339 337 335 335 334 332 329 329 330 329 327 326 332 334 336 335 335 336 336 335 335 332 332
314 314 313 313 314 315 317 317 317 317 317 319 319 333 331 331 338 338 339 340 341 342 342 341 338 341 341 340 338 337 335 333 329 326 328 327 326 329 334 335 336 336 336 335 335 334 331 331 330
314 308 314 312 313 314 315 315 315 316 317 321 320 323 332 335 337 338 336 337 336 341 342 343 340 338 340 342 340 338 336 334 331 328 329 329 331 334 335 336 337 336 335 334 333 331 330 329 330
311 308 310 313 313 314 314 314 316 317 321 321 319 333 333 335 336 336 336 336 339 339 341 343 340 339 338 338 340 340 338 336 334 332 332 332 335 336 335 335 335 334 334 332 330 329 328 328 329
312 309 310 311 312 314 315 315 317 316 316 322 322 328 333 331 334 336 335 336 337 339 340 341 340 340 341 341 338 338 337 338 335 333 332 325 331 334 334 334 334 333 331 330 329 327 327 326 323
310 310 315 313 316 315 316 316 317 317 317 322 320 330 335 329 335 334 335 336 337 338 339 339 340 338 338 338 339 337 336 333 328 331 330 327 329 332 332 333 333 332 329 328 326 324 323 321 323
313 314 313 314 315 316 315 314 315 318 322 322 320 323 328 333 334 336 337 337 337 336 335 335 336 337 337 336 337 336 334 334 331 331 329 328 331 331 332 332 332 330 327 327 324 322 322 320 322
315 315 316 314 314 315 315 314 314 316 317 320 325 335 333 334 333 335 334 334 335 334 334 334 335 337 336 334 333 333 331 332 330 327 327 326 324 332 331 330 329 328 326 326 323 321 321 321 321
313 319 315 314 315 314 313 314 315 315 316 318 322 336 334 334 332 333 334 335 335 335 336 335 335 334 335 333 331 330 329 329 329 328 325 324 325 331 330 329 327 326 326 325 324 321 321 321 320
316 315 315 316 314 314 314 314 314 313 316 317 321 335 333 332 330 329 328 334 335 335 335 336 334 332 331 330 327 326 325 325 326 326 325 324 324 331 330 328 327 324 322 321 320 320 320 320 320
315 317 317 317 315 315 314 314 314 314 313 314 322 331 332 329 327 328 331 334 335 334 333 334 333 331 330 328 328 327 326 326 327 325 325 325 329 330 329 327 326 322 319 318 318 321 320 319 320
314 316 317 316 315 315 315 314 312 314 313 312 322 329 329 328 325 328 332 332 333 332 331 332 332 331 330 329 328 327 327 326 324 324 325 328 330 328 327 326 324 320 318 316 320 321 319 320 320
315 314 314 314 314 314 314 314 313 314 312 313 313 322 323 328 324 328 329 330 331 330 331 331 331 330 328 326 326 326 327 325 326 323 324 329 328 328 326 325 322 319 315 315 318 318 319 321 318
317 316 317 315 314 315 312 316 314 313 312 313 312 316 323 325 325 325 327 329 329 329 330 330 330 329 328 326 326 325 325 326 326 328 325 329 327 326 324 321 318 317 312 314 313 317 319 320 319
316 318 316 316 315 315 312 315 315 314 312 312 311 312 322 324 323 324 327 329 329 328 329 330 328 328 327 326 326 326 326 326 328 329 329 328 326 325 320 316 316 313 311 312 314 317 316 318 321
318 318 316 315 315 316 317 316 317 315 312 314 312 310 322 326 326 324 328 328 329 328 328 328 327 326 325 325 326 326 326 327 328 328 328 328 327 325 317 316 314 312 310 316 318 317 318 319 320
315 316 317 316 317 317 316 316 317 316 316 312 315 314 321 327 326 325 327 327 328 327 327 326 325 325 325 324 324 325 324 326 327 327 327 327 327 324 320 317 317 314 312 318 320 322 321 319 320
315 316 316 316 316 316 315 316 316 316 315 314 316 316 318 326 325 324 326 326 327 326 326 325 324 324 324 325 323 323 324 325 326 326 327 327 327 326 322 317 321 320 316 316 319 321 319 319 320
315 316 317 319 317 315 315 316 316 317 315 314 315 317 316 327 327 324 326 325 327 326 326 326 325 324 324 323 322 322 321 323 324 324 324 325 326 326 324 320 323 324 321 320 323 322 319 319 319
316 315 319 321 320 318 318 322 318 318 316 315 314 314 315 325 327 324 325 325 326 326 326 326 325 325 324 323 322 321 320 321 322 323 323 325 324 324 324 324 321 324 324 322 323 322 320 319 318
317 317 320 321 320 321 320 320 319 317 317 316 316 313 314 325 327 325 324 325 326 326 325 325 324 324 323 323 322 322 320 321 320 322 322 322 323 323 322 323 324 323 323 323 322 319 318 319 318
315 320 322 321 321 323 320 321 320 317 317 317 318 316 314 325 326 325 324 325 325 325 325 324 323 323 323 322 322 321 321 320 319 320 321 320 321 322 322 321 322 320 321 322 322 318 320 318 317
318 322 326 326 326 323 320 321 321 319 318 318 318 318 314 325 326 324 323 324 325 324 324 322 322 321 322 322 322 321 320 320 320 319 319 320 320 320 320 320 321 321 321 319 319 319 319 317 316
319 322 327 327 327 327 323 321 320 319 319 318 317 316 314 326 325 323 324 324 325 324 323 323 322 321 321 322 322 321 320 319 319 319 319 319 319 320 320 319 319 319 318 318 319 319 319 318 317
318 323 320 324 324 325 325 322 321 321 321 319 318 317 317 325 325 324 324 324 325 325 323 323 321 321 320 321 322 321 320 319 318 318 319 319 319 319 319 320 320 319 319 318 318 319 321 318 318
319 318 322 324 327 329 326 325 328 324 323 320 320 320 319 321 325 325 324 324 325 325 324 323 322 321 321 321 321 321 320 320 319 318 318 319 319 319 319 319 320 319 319 319 320 319 319 320 321
322 323 322 321 324 331 331 333 324 323 320 320 321 321 321 321 319 325 324 323 324 324 323 323 322 322 321 321 320 321 320 320 320 319 319 318 318 319 319 319 319 319 320 320 320 320 320 320 320
318 320 322 328 326 323 325 327 323 325 324 320 322 321 321 322 323 324 323 322 324 324 323 323 323 323 322 321 321 321 320 320 320 320 320 319 318 317 318 319 318 318 318 320 320 320 320 320 319

GFSSGP_925_thetae_075.txt.gz
Theta_e
317 315 312 317 316 311 315 315 314 316 320 322 322 322 323 324 324 324 338 339 344 342 340 338 336 334 333 335 336 335 334 333 337 339 341 341 339 337 336 335 337 338 338 340 340 340 339 338 337
316 313 315 310 316 315 313 314 317 316 318 321 322 327 328 335 340 339 341 343 343 341 340 339 338 335 333 333 334 335 335 333 333 337 339 339 337 337 335 334 336 336 337 339 340 338 336 337 335
313 316 312 314 312 314 313 315 316 315 316 319 320 321 329 336 340 339 339 340 343 341 340 339 339 336 335 334 334 335 335 332 331 333 335 335 336 335 334 333 334 335 335 338 338 335 335 335 334
315 313 310 314 315 313 314 316 315 315 315 316 318 330 330 333 339 340 339 339 343 342 341 339 339 338 337 335 334 334 335 333 331 332 334 334 332 330 328 333 333 334 334 334 337 334 335 334 333
313 308 315 314 314 312 313 313 313 315 316 317 319 328 330 333 338 339 340 340 342 342 341 340 339 339 339 338 335 335 335 333 331 332 334 332 333 333 331 332 334 334 334 334 334 334 333 332 332
308 307 311 314 313 312 312 312 314 314 315 316 319 328 332 334 337 338 340 340 339 339 341 341 340 340 340 340 339 336 335 334 332 333 334 335 334 335 335 336 335 334 334 334 333 333 331 331 330
308 308 310 310 311 312 313 313 315 315 314 315 322 332 332 333 337 337 338 337 337 337 340 342 341 341 342 342 341 339 337 335 333 335 333 330 330 332 334 335 335 334 333 332 332 331 329 328 327
309 309 312 310 314 313 313 315 315 315 314 319 325 334 334 331 335 335 336 338 339 339 339 341 341 340 340 343 339 338 338 336 334 329 328 326 327 328 330 334 334 333 332 331 331 330 329 327 326
308 311 310 312 313 313 314 314 313 314 315 317 319 328 328 332 334 335 337 338 339 339 339 339 339 339 339 339 340 338 337 335 327 327 325 327 328 329 330 332 333 332 330 330 329 328 326 325 326
313 312 311 311 312 313 313 313 312 313 313 315 317 332 331 333 333 334 333 334 337 337 337 336 335 338 337 334 336 336 336 334 328 325 326 328 328 328 325 330 333 331 329 328 327 322 321 324 324
314 315 313 314 314 313 312 312 313 314 315 314 314 328 332 332 333 334 334 334 335 335 334 334 334 336 335 333 334 334 333 331 328 329 328 328 327 328 328 329 331 330 329 326 323 320 322 322 322
315 313 315 315 314 313 312 312 313 311 314 314 312 326 332 332 332 333 333 333 334 334 334 334 334 334 332 332 332 332 332 331 330 329 329 328 329 328 328 329 330 329 328 325 322 320 321 322 321
314 315 315 315 314 313 312 312 313 314 313 312 312 332 333 332 331 330 332 333 334 334 335 334 333 333 331 330 330 330 330 331 330 327 327 327 325 324 329 329 330 327 327 325 322 320 321 321 320
310 311 313 313 315 315 315 315 313 314 313 310 313 333 332 331 329 326 329 331 333 334 334 334 331 330 330 328 327 326 325 325 326 327 326 325 325 327 330 328 328 327 326 325 322 320 320 320 320
313 314 314 313 312 313 313 313 313 312 312 311 312 327 331 330 325 327 330 331 333 334 332 331 331 330 330 329 329 328 326 326 326 326 325 325 324 330 329 327 326 325 325 324 321 319 319 320 320
315 315 316 315 313 312 312 315 313 311 311 311 310 315 327 326 325 327 330 331 333 332 330 331 331 330 329 327 326 326 327 326 326 325 325 324 326 327 328 326 326 324 322 320 319 319 318 319 320
314 317 316 315 313 313 311 314 313 312 311 310 310 309 320 323 323 325 329 331 332 330 330 330 331 329 328 326 326 327 325 325 325 326 324 324 326 327 326 324 325 322 319 319 319 318 318 318 320
316 316 315 314 313 314 313 312 313 315 314 313 310 309 315 321 325 322 327 329 329 329 329 329 329 328 327 326 326 325 323 325 325 328 326 326 327 326 324 323 323 319 318 317 319 318 318 318 321
313 314 314 313 313 315 315 314 313 313 312 311 313 314 310 320 323 323 326 327 327 328 329 329 328 327 326 325 325 327 325 324 327 327 326 325 327 325 323 322 320 318 316 316 316 317 317 317 321
313 314 315 314 315 317 313 314 314 314 313 314 314 314 311 319 322 325 325 326 326 326 327 327 327 326 325 324 325 325 324 323 326 327 327 327 326 323 323 319 317 316 313 314 315 317 317 317 320
314 314 315 316 317 317 316 317 315 314 314 314 312 313 314 322 324 326 325 326 325 325 325 326 326 325 324 323 323 323 323 322 325 326 327 327 325 324 322 318 316 315 313 314 316 318 318 318 319
317 313 315 320 321 320 315 320 317 315 316 315 313 312 314 323 324 326 326 325 325 324 325 325 324 325 325 324 322 321 322 323 322 323 326 325 326 325 323 318 318 315 314 316 318 320 321 318 318
317 316 319 320 321 320 320 319 317 316 317 317 315 313 312 320 325 324 326 325 326 325 324 324 323 323 323 323 321 321 321 321 322 322 324 324 323 326 323 319 320 321 316 317 319 320 320 320 318
315 320 320 320 321 326 320 319 318 316 318 317 316 315 312 314 324 324 324 325 326 325 324 323 324 324 323 323 322 322 321 320 320 321 322 323 323 323 324 324 321 321 321 322 318 321 321 318 318
318 321 324 325 326 325 318 319 318 317 318 318 318 317 314 314 322 323 323 324 325 324 323 322 323 322 322 323 322 322 321 320 319 321 321 322 322 323 322 322 323 321 318 322 322 320 320 318 318
319 320 324 326 326 321 320 322 319 318 318 318 318 315 314 312 322 323 323 324 325 325 323 322 321 321 321 321 321 322 321 321 319 319 321 321 321 322 322 322 323 323 322 320 322 322 321 321 320
321 321 319 325 323 323 321 322 320 321 320 319 320 316 314 315 323 323 323 324 324 324 323 323 321 320 321 320 321 321 321 320 319 319 318 320 320 321 321 321 320 321 321 320 320 320 319 319 319
318 318 322 324 326 326 324 324 327 325 325 321 321 321 319 323 323 322 323 324 325 324 323 322 322 321 320 319 320 320 320 320 319 319 319 319 318 318 320 319 319 319 320 320 321 319 319 319 319
321 322 321 321 323 329 328 332 325 326 327 322 322 323 324 321 323 323 322 322 324 323 323 322 321 320 319 318 319 320 321 320 320 319 319 318 319 319 319 319 320 319 319 319 319 318 319 319 319
319 320 321 325 324 322 325 326 323 325 325 321 322 324 322 323 323 323 323 322 322 322 322 321 320 320 319 320 320 318 320 320 320 319 319 319 318 319 319 319 319 319 319 319 319 319 319 319 319

GFSSGP_925_thetae_078.txt.gz
Theta_e
316 315 312 315 314 311 314 313 313 315 316 319 319 322 321 320 323 321 334 341 341 338 337 337 337 338 337 336 336 335 335 338 340 340 339 338 338 338 337 335 336 338 339 340 340 339 340 339 338
316 312 314 309 312 313 310 312 316 314 315 316 324 327 328 327 338 337 339 339 339 340 338 337 338 340 337 336 336 335 336 336 339 340 338 338 338 338 336 335 338 338 338 339 340 340 338 338 337
313 314 312 313 311 311 309 311 314 315 313 318 318 321 324 329 338 337 338 336 338 340 338 337 338 341 338 336 337 335 335 337 339 341 340 339 338 337 335 335 338 337 338 338 340 340 338 336 335
314 311 308 314 314 312 311 314 314 312 313 314 316 324 328 331 337 337 337 337 340 341 337 337 338 339 340 335 336 339 334 336 338 340 341 341 338 336 335 336 336 335 336 337 339 337 336 335 334
311 308 312 315 314 312 311 311 312 313 314 315 317 320 328 330 337 338 338 339 339 340 338 338 338 339 339 336 335 338 337 333 335 339 341 340 338 337 335 335 334 333 334 337 337 335 336 334 333
307 306 312 313 312 313 311 311 313 313 313 313 314 319 327 331 336 338 339 339 339 339 340 339 339 339 338 337 335 334 334 334 333 335 338 338 337 335 334 333 333 333 333 336 335 335 334 333 333
305 308 310 310 312 314 314 310 312 313 314 313 317 322 328 332 336 338 339 339 340 340 340 340 340 340 340 339 338 336 334 334 334 335 334 334 329 325 329 332 332 333 335 334 333 334 333 332 331
306 306 309 307 311 312 311 314 314 314 313 316 324 327 328 330 336 338 339 338 337 338 339 340 340 342 343 342 340 340 337 335 334 334 333 330 328 329 329 331 333 332 333 333 333 332 331 331 330
306 309 308 309 311 311 312 313 312 312 313 313 317 325 327 330 334 336 337 337 337 338 339 340 341 341 344 341 342 338 338 337 334 332 328 326 325 325 324 329 332 333 332 332 332 331 330 329 327
312 310 309 308 310 311 312 312 312 313 312 313 313 322 330 332 333 333 334 335 337 338 339 339 339 340 340 339 338 337 337 336 333 330 326 324 324 324 324 330 331 331 331 332 331 328 327 326 326
313 313 311 312 312 312 311 312 312 313 313 313 313 314 330 331 332 332 333 334 335 337 337 337 337 337 337 337 334 333 335 334 330 328 326 325 324 325 327 326 327 329 330 331 329 328 326 326 325
313 312 312 312 312 313 312 312 313 311 313 313 311 311 326 330 331 331 332 332 334 335 335 334 334 337 334 334 332 333 334 332 328 327 326 326 326 327 329 329 329 328 329 329 326 324 324 325 324
309 311 312 313 313 312 312 312 313 313 311 311 310 310 323 328 330 332 332 332 333 333 333 333 336 333 332 332 332 333 333 332 330 329 327 327 328 329 327 325 329 328 329 327 321 322 323 324 323
307 308 308 309 311 313 315 315 313 313 311 311 309 309 320 328 329 327 330 332 332 333 333 333 334 331 330 330 330 332 332 331 330 328 327 327 327 328 328 328 328 328 328 325 321 321 322 322 321
311 313 312 312 311 312 313 314 314 312 310 310 310 308 318 329 329 327 329 330 332 332 333 334 331 329 330 330 329 330 330 330 328 328 327 327 327 326 327 327 328 328 327 324 321 321 322 321 320
312 313 315 313 312 311 311 315 312 310 310 310 308 306 316 328 329 328 328 329 330 332 333 333 331 328 329 329 327 326 325 326 325 327 328 327 327 326 326 328 327 327 327 324 321 320 321 320 320
310 313 314 314 313 312 309 314 312 310 310 309 308 307 307 320 325 327 327 329 330 331 333 331 329 328 329 329 328 328 325 325 325 325 324 325 326 325 327 327 326 326 326 324 320 319 320 319 318
312 314 313 313 312 313 312 312 312 312 311 312 310 309 306 311 319 325 326 329 330 331 332 329 331 327 329 326 326 324 323 324 324 325 325 324 325 326 327 326 325 325 324 323 320 319 319 320 319
311 312 312 312 311 313 314 313 312 310 310 310 310 309 308 310 315 322 326 328 329 331 329 328 330 328 327 326 324 323 323 324 324 325 326 325 324 326 327 327 325 323 323 323 320 318 318 319 318
308 310 312 312 312 313 314 315 315 312 311 311 312 311 310 309 318 322 325 327 327 327 326 327 327 328 328 325 324 323 323 324 325 327 325 323 323 323 324 323 323 322 319 319 318 317 316 318 319
312 313 313 314 314 315 314 316 314 313 312 311 311 311 311 310 318 324 324 325 325 326 326 326 326 328 325 324 324 324 323 323 325 326 324 324 325 325 324 324 322 320 318 317 318 317 316 318 319
315 313 314 314 319 317 316 321 316 315 315 313 313 311 310 310 317 324 324 324 325 325 325 325 325 326 323 323 322 323 322 323 324 326 326 325 326 324 322 321 322 318 317 316 317 317 316 318 318
316 314 318 319 319 320 319 320 317 315 315 314 314 313 311 312 321 325 325 325 325 325 324 325 325 324 323 322 322 322 322 322 323 324 325 326 325 324 322 320 321 317 315 314 315 316 317 317 318
314 317 318 318 318 322 318 319 318 316 315 315 315 315 313 310 322 323 323 325 325 324 324 324 324 324 321 320 321 321 321 322 322 322 322 324 325 323 323 321 319 316 314 313 314 315 318 318 318
316 319 320 323 323 322 318 320 319 316 315 315 316 316 314 311 316 322 324 324 325 324 324 324 322 321 320 319 319 321 321 321 321 322 322 322 322 323 321 323 320 316 314 313 313 317 318 320 320
317 318 318 325 326 323 318 319 318 321 321 319 319 319 318 312 314 322 323 324 325 324 324 322 321 320 319 319 318 321 321 321 320 320 321 321 322 322 321 321 321 319 318 314 317 317 319 320 318
319 323 318 323 321 325 320 319 322 324 324 321 321 323 323 322 315 320 322 324 324 324 323 322 321 320 320 320 319 319 321 320 320 319 319 321 321 322 322 322 322 320 317 319 319 319 320 320 320
318 318 323 322 324 326 321 323 328 326 325 323 323 323 323 323 322 322 323 323 324 324 323 322 320 320 320 320 319 318 319 320 320 320 319 319 320 321 321 321 321 322 322 321 319 318 320 321 321
319 321 320 322 325 324 325 325 325 326 325 323 323 320 320 323 323 322 323 323 324 323 322 321 320 320 320 319 319 319 319 318 319 319 319 319 319 319 319 320 321 321 321 321 321 320 320 321 321
318 319 318 325 324 323 323 322 324 324 321 322 319 318 318 317 320 323 322 322 322 322 321 321 320 320 319 319 319 319 319 318 320 319 319 319 318 319 318 318 319 319 319 319 320 320 320 320 319

GFSSGP_925_thetae_084.txt.gz
Theta_e
314 317 316 320 321 318 318 318 318 323 323 323 324 322 325 327 331 330 336 344 345 345 347 340 335 337 339 339 338 337 338 341 342 341 339 338 339 340 341 341 342 341 341 341 342 342 342 341 339
319 316 315 320 317 318 318 319 318 319 322 321 322 325 327 326 329 334 341 343 344 344 346 346 338 336 339 338 337 337 339 342 343 342 340 339 340 342 341 340 340 340 340 340 342 343 341 340 338
316 315 318 317 319 318 318 318 318 321 320 321 325 328 328 329 335 335 336 342 344 344 344 346 337 336 339 337 336 336 339 342 344 343 343 340 343 342 339 338 339 340 340 340 341 341 340 338 337
316 316 317 317 317 318 317 317 320 321 319 319 322 324 324 329 334 335 337 342 343 343 343 343 337 339 338 337 336 336 339 342 343 344 344 343 339 338 339 337 339 339 339 339 340 339 339 338 337
316 317 316 316 316 317 318 317 318 321 321 319 317 320 323 328 333 338 338 341 341 343 344 340 336 337 336 337 336 336 336 342 345 344 341 340 339 339 338 336 337 338 338 338 337 338 339 337 336
317 317 316 317 317 317 317 317 317 317 317 318 317 319 321 329 333 338 340 341 342 344 345 344 338 338 339 336 336 336 336 337 343 342 339 340 338 338 336 335 334 334 335 335 335 337 338 337 336
316 316 316 317 316 315 316 316 316 316 315 316 318 320 322 328 333 341 342 342 344 344 344 343 342 341 340 341 337 336 335 336 335 338 337 336 336 335 334 334 334 333 333 333 335 337 337 336 335
316 316 317 318 317 316 316 316 315 316 316 318 320 323 325 327 330 341 344 344 344 345 344 339 342 343 343 342 339 336 336 335 335 335 336 336 334 334 334 333 333 332 330 332 334 335 335 335 335
315 317 318 318 316 317 316 316 316 316 316 316 318 320 321 325 331 340 344 344 342 344 345 344 342 343 342 343 342 338 337 338 335 334 334 336 336 334 334 332 331 328 326 329 332 334 334 333 333
315 317 318 318 317 316 316 316 316 316 317 317 317 318 318 323 327 334 340 341 341 341 343 343 342 343 343 344 341 341 342 339 338 337 334 336 336 333 333 331 326 324 324 329 331 331 332 331 332
316 317 318 316 315 315 315 315 315 315 316 316 317 317 317 320 320 328 333 338 338 339 340 342 342 344 343 341 339 339 340 339 338 337 333 334 335 333 329 328 326 327 324 325 330 330 330 331 331
316 316 315 316 315 315 315 316 316 316 317 317 317 317 317 318 319 320 326 331 336 337 339 339 340 342 341 339 338 338 338 336 337 336 335 333 333 333 331 329 328 327 325 328 328 332 331 330 330
312 313 313 313 313 314 314 315 315 316 316 317 317 317 318 318 318 319 320 324 331 337 339 338 338 339 337 336 336 337 336 335 336 334 333 332 331 331 329 329 330 330 330 330 329 331 330 330 329
314 314 314 314 314 315 315 315 315 316 316 316 316 317 318 318 318 319 319 322 325 333 337 338 337 337 337 338 335 334 334 337 335 333 333 330 329 330 330 330 330 329 329 330 329 330 329 329 328
312 312 312 312 313 314 315 317 317 316 315 316 317 318 318 319 318 319 319 322 326 331 336 338 336 336 336 336 336 335 334 333 332 332 330 329 329 329 330 331 331 329 328 328 329 329 328 328 327
310 311 312 312 315 316 316 316 316 316 317 317 318 318 318 318 318 318 319 322 326 331 335 337 335 335 335 335 333 332 330 331 331 331 330 329 327 328 328 329 329 328 328 328 327 328 327 326 326
310 309 310 313 315 315 316 317 317 317 317 317 318 318 319 319 318 318 319 323 327 332 335 337 334 335 336 334 332 332 328 329 330 330 330 329 328 327 326 328 330 328 326 327 327 327 327 326 325
310 310 312 313 313 313 314 315 315 316 318 319 319 319 319 319 319 319 319 324 328 332 335 336 335 335 334 331 330 330 328 329 330 330 330 329 329 328 328 329 329 328 325 325 326 326 325 326 325
309 309 308 310 311 312 313 314 315 316 316 318 319 319 319 319 319 318 319 322 329 332 335 336 335 334 332 330 330 328 329 327 327 326 326 327 327 327 327 328 328 327 324 324 325 326 325 325 324
309 310 311 311 312 314 315 317 317 317 317 317 318 320 320 320 320 320 319 323 329 332 334 335 334 333 331 329 328 328 327 327 328 327 328 328 326 326 326 327 327 326 324 323 324 325 325 325 324
311 311 311 314 316 316 318 319 318 318 317 317 317 318 319 320 320 320 320 321 328 330 334 333 332 333 330 329 328 328 327 326 326 327 328 327 326 325 325 325 325 325 324 322 322 324 324 325 324
311 313 315 316 318 319 318 321 319 319 319 318 319 319 319 319 320 320 320 321 327 329 333 331 332 332 329 328 328 327 326 325 326 326 325 325 324 324 325 325 325 324 324 322 321 323 324 324 324
315 315 316 317 318 319 319 321 319 319 320 321 320 320 320 320 320 320 321 320 326 329 333 331 331 331 328 328 328 326 325 325 327 326 325 324 323 323 324 324 323 323 323 322 322 322 324 324 324
315 316 316 317 319 323 319 320 320 322 325 325 324 324 323 324 324 323 322 321 325 329 332 330 328 328 328 329 328 326 325 325 325 325 324 323 321 321 321 321 321 321 321 321 322 322 323 323 323
316 316 315 322 324 320 319 321 321 324 325 326 327 326 326 327 328 327 325 326 327 331 331 326 326 326 327 329 327 326 325 325 324 325 324 324 322 321 319 319 319 320 321 321 319 320 321 321 322
316 314 316 318 320 320 320 323 325 325 325 325 324 324 324 325 328 328 325 327 328 331 326 325 325 326 326 328 326 324 325 324 323 325 325 324 323 322 321 321 320 318 320 319 319 319 319 319 321
317 320 317 321 320 322 318 320 324 323 324 323 323 322 322 322 324 329 325 329 329 330 324 324 325 325 325 326 323 322 324 324 323 323 324 325 325 324 322 321 319 318 317 317 316 314 318 318 319
318 317 322 322 323 322 319 321 324 326 325 322 322 321 319 317 317 323 326 328 329 328 325 326 329 324 324 323 323 322 324 324 323 323 324 323 323 322 321 322 321 319 318 317 315 316 317 318 318
320 320 321 322 323 324 320 322 326 324 322 321 321 318 315 314 313 316 327 327 327 326 327 326 326 323 323 323 323 321 322 323 323 322 322 322 322 322 322 321 321 320 318 318 314 314 314 316 318
316 318 319 322 323 323 325 323 325 323 321 320 318 315 312 309 309 311 314 326 325 325 324 324 324 322 323 322 322 322 323 322 321 321 323 323 323 322 322 321 320 320 319 318 316 314 313 314 315

GFSSGP_925_thetae_087.txt.gz
Theta_e
316 318 318 318 321 321 320 322 322 321 323 325 326 324 325 327 330 335 337 343 343 344 345 335 333 334 335 340 341 339 339 341 341 339 336 337 339 338 341 342 341 342 344 344 344 343 342 341 339
316 318 318 319 321 320 322 322 321 321 322 324 325 325 325 327 329 335 338 342 343 343 345 345 334 336 337 339 339 339 339 341 342 341 340 338 339 340 339 340 342 343 344 343 343 343 343 340 338
320 319 318 319 320 322 320 322 321 321 322 322 323 327 328 328 331 331 339 341 339 338 343 347 334 335 338 338 338 338 338 339 343 343 341 341 340 340 339 339 342 342 341 341 343 343 341 340 338
319 318 318 319 321 321 321 322 321 321 322 322 323 325 328 328 333 333 339 339 338 339 341 343 335 334 336 337 337 337 338 342 345 344 342 341 339 339 338 338 340 340 340 339 341 340 340 338 337
317 319 318 319 319 320 321 320 320 321 322 322 321 321 324 328 329 334 337 339 340 341 342 342 334 333 337 337 336 337 338 345 345 346 344 342 340 339 338 338 338 339 339 337 337 337 338 338 337
320 320 321 321 320 320 321 320 320 319 320 322 322 321 321 326 330 333 336 339 340 342 344 346 335 335 336 337 336 336 338 345 347 344 342 341 340 338 338 337 335 336 336 335 335 335 338 337 337
320 320 320 320 320 320 320 320 319 319 319 319 319 320 322 326 332 337 336 339 342 343 345 346 344 341 337 337 336 336 337 339 345 339 341 339 339 338 337 336 335 334 333 332 333 333 337 337 336
320 321 321 320 320 320 320 318 319 318 318 319 319 319 321 328 328 336 339 340 344 345 346 347 346 344 343 342 338 337 338 338 339 337 338 337 337 337 336 335 333 332 332 332 332 330 332 333 333
319 320 320 320 320 320 319 319 319 319 318 318 318 319 322 324 326 335 340 343 345 345 345 346 345 345 344 343 342 338 337 337 338 337 334 336 337 336 335 334 333 332 332 330 328 328 329 330 332
319 320 319 320 320 320 319 319 318 318 318 318 318 318 319 321 323 328 337 342 344 343 345 346 345 344 344 342 343 342 341 340 339 338 338 336 336 337 335 334 333 329 330 327 326 328 325 330 332
318 319 319 319 320 319 319 319 318 318 318 319 319 319 319 319 322 322 329 337 340 340 342 345 345 344 345 343 343 341 342 342 341 339 339 337 336 336 336 334 331 330 329 326 326 328 329 330 333
318 318 319 318 318 318 318 318 318 318 319 319 319 319 319 319 320 321 323 328 336 338 340 343 344 344 343 341 340 340 343 343 341 340 339 337 336 336 334 334 333 330 327 327 327 330 329 331 332
315 315 316 316 315 315 316 316 316 317 317 318 318 319 319 319 319 319 320 322 328 336 338 343 342 342 342 341 340 340 341 340 338 339 338 337 335 335 334 332 331 331 330 328 326 326 329 332 331
314 315 315 316 315 315 316 316 316 317 317 317 318 318 319 320 320 319 319 321 324 330 336 342 342 341 341 341 339 337 338 337 337 336 337 337 335 334 334 333 331 330 332 328 325 327 330 331 331
314 315 314 314 314 314 314 315 316 316 317 317 318 318 318 319 319 320 318 321 322 325 331 340 342 341 341 339 340 337 338 335 335 334 336 335 335 334 332 331 331 332 331 329 327 326 329 330 329
311 311 312 313 314 315 315 315 317 318 317 318 318 318 318 319 320 319 318 320 321 323 326 337 341 340 340 339 339 338 335 334 335 335 335 334 333 332 332 332 332 331 330 329 328 327 327 328 329
311 311 312 312 313 315 317 317 317 318 318 319 319 319 319 320 320 320 318 319 321 323 327 335 341 339 339 339 338 336 334 333 334 335 333 332 332 332 332 332 331 330 329 328 328 329 326 327 327
310 311 312 312 313 314 316 316 315 315 316 317 318 319 320 320 320 320 318 319 321 323 329 335 341 339 339 339 336 334 332 332 332 332 331 332 330 330 329 329 328 329 328 329 328 326 325 326 326
311 311 311 311 311 311 312 314 314 314 315 316 317 318 320 320 321 320 319 319 322 326 332 336 340 338 339 337 333 332 331 331 331 329 329 330 330 329 328 328 327 328 328 328 328 327 325 326 325
311 312 311 311 312 313 315 317 317 317 317 317 318 319 319 320 321 321 320 320 323 329 333 336 339 338 338 334 333 332 331 330 331 331 329 328 329 328 328 328 329 328 327 327 327 326 325 324 325
311 311 312 312 312 315 317 317 317 318 319 319 319 319 319 320 321 321 321 320 324 329 333 336 338 338 337 334 333 331 330 329 329 329 328 331 330 329 327 327 327 327 327 326 326 326 325 325 324
313 312 312 312 316 317 318 320 318 318 319 320 320 320 320 319 320 321 322 321 323 329 332 335 337 337 336 334 333 331 330 329 328 328 329 330 329 329 328 327 327 326 325 325 325 325 325 324 325
312 313 316 316 318 318 317 318 318 319 321 323 324 323 324 321 321 321 321 321 320 326 330 335 336 335 336 334 332 331 329 328 327 328 328 328 327 325 325 325 326 325 325 325 325 324 325 324 325
313 315 316 316 317 320 317 318 316 321 326 326 326 326 327 327 326 324 323 322 320 324 331 336 335 335 333 333 332 331 329 327 327 328 328 327 325 323 322 323 325 325 324 323 324 323 321 324 324
313 316 318 319 322 320 318 319 319 325 325 326 326 325 325 325 327 330 328 325 323 326 332 336 334 335 332 333 332 330 328 327 326 328 327 325 323 322 321 322 323 323 323 322 323 323 323 324 324
316 317 317 315 317 321 320 320 321 325 324 323 324 324 324 324 324 326 331 328 326 326 332 334 331 331 330 332 332 330 327 326 326 328 326 326 324 321 321 320 320 321 322 322 322 323 324 324 324
314 316 315 315 316 319 319 316 325 324 324 323 323 322 323 323 322 322 325 328 328 330 331 329 329 329 330 333 331 328 327 326 325 327 327 325 325 323 322 320 319 320 320 321 321 322 322 322 323
315 315 320 320 320 320 317 318 326 327 324 322 322 322 322 321 319 316 320 325 329 331 328 327 328 328 329 332 329 326 326 325 325 326 326 326 326 324 323 321 320 319 319 320 320 320 320 320 321
316 320 319 320 320 322 322 326 327 324 322 322 320 321 319 318 315 310 311 313 329 328 326 326 327 327 328 329 326 325 325 325 325 325 325 325 325 325 325 322 320 319 319 319 318 317 316 315 315
317 317 318 321 319 320 324 324 324 322 322 322 320 319 316 314 311 306 306 307 323 327 327 327 327 326 326 326 324 324 324 325 324 323 324 324 324 323 322 324 321 320 319 317 316 316 315 315 316

GFSSGP_925_thetae_090.txt.gz
Theta_e
309 317 319 320 319 320 320 319 322 323 322 324 325 325 324 325 335 338 341 342 347 343 330 332 333 335 339 342 341 343 343 343 341 338 336 336 336 338 339 341 341 341 343 344 344 342 341 337 336
316 318 319 320 319 319 320 321 322 323 323 326 325 325 324 324 330 337 340 342 346 344 333 332 332 332 334 339 341 340 341 342 342 340 337 336 336 338 338 340 341 341 344 344 344 343 342 339 337
316 318 320 319 318 320 321 322 323 323 323 322 321 323 324 326 328 335 339 341 343 344 342 335 331 332 333 336 338 340 339 340 341 341 340 337 338 338 338 339 340 342 344 343 344 343 341 339 338
318 322 319 318 319 320 319 321 322 322 322 322 321 321 326 329 333 334 340 339 338 343 345 335 331 332 334 336 337 338 339 340 342 342 342 340 339 338 338 338 338 339 340 340 342 342 340 338 337
316 320 319 318 318 319 320 321 322 321 320 323 321 322 324 328 329 336 338 337 337 342 344 341 333 332 334 336 337 337 338 341 346 345 344 342 341 338 338 338 338 338 338 336 336 336 336 338 337
319 320 320 320 319 320 320 321 321 321 320 322 322 321 322 323 328 333 338 338 340 343 345 342 337 333 336 336 336 337 338 342 347 351 345 342 342 339 338 338 337 336 336 334 334 334 335 337 336
322 321 321 320 321 320 321 322 321 320 320 320 320 321 323 324 330 334 337 339 341 343 346 346 337 336 337 337 336 337 339 342 346 347 344 343 342 340 338 337 336 335 335 333 330 332 332 333 335
323 322 321 321 322 321 321 321 320 319 319 321 320 320 320 330 330 336 338 340 342 345 345 347 343 339 337 337 337 337 338 340 340 345 344 343 341 340 338 337 336 336 334 332 328 331 330 332 333
320 322 322 321 321 321 321 321 321 320 319 319 319 319 321 326 328 334 336 341 344 346 347 348 347 345 343 343 338 337 337 338 339 340 340 341 339 338 337 336 335 334 332 332 331 330 327 330 331
317 323 320 320 320 321 321 320 320 319 319 319 319 320 319 322 324 328 336 341 345 347 347 348 345 346 345 343 343 338 337 337 338 338 337 337 338 337 337 336 334 333 332 331 331 328 327 324 331
316 318 319 319 319 319 319 320 320 319 319 319 320 320 320 319 321 324 328 334 343 346 347 347 345 344 343 342 342 341 342 339 339 339 339 336 337 338 337 335 333 332 332 330 329 327 327 327 331
317 317 318 318 319 319 318 319 319 319 320 320 319 320 319 321 321 321 322 326 332 343 344 347 347 343 343 343 342 343 342 340 342 340 339 339 336 336 337 336 333 332 329 329 327 328 325 325 331
316 317 317 318 317 318 317 316 317 318 318 318 318 319 320 320 320 319 320 320 326 336 342 345 347 343 344 343 342 341 341 342 342 340 339 337 336 336 335 336 334 332 331 329 327 327 326 326 331
314 313 314 314 315 314 315 315 315 317 317 317 317 318 319 319 319 319 319 320 321 325 338 344 345 345 343 344 341 340 340 340 340 340 338 337 336 336 335 335 334 332 331 329 327 327 326 326 329
315 314 315 315 315 315 315 316 316 316 316 316 316 317 318 319 320 320 320 320 320 322 328 344 343 344 341 343 341 339 339 338 338 338 337 336 336 335 334 333 332 332 331 329 327 328 327 325 328
313 313 312 312 312 313 313 313 313 315 316 317 318 318 318 319 319 319 319 320 320 321 324 345 344 343 342 342 341 337 336 336 337 335 335 335 334 334 333 333 332 332 330 330 328 325 325 328 329
312 312 312 311 312 313 313 314 316 317 317 318 318 319 319 319 319 319 319 320 320 320 323 344 343 343 343 341 342 339 336 335 334 334 334 334 334 334 332 332 331 331 330 330 328 326 326 326 328
313 312 312 312 312 313 313 314 315 316 316 315 315 318 319 319 319 320 320 320 320 319 322 343 343 343 342 341 341 339 336 332 333 333 333 333 333 333 332 331 331 330 330 329 329 327 326 326 327
312 312 313 313 313 312 313 312 312 313 314 314 314 314 315 317 319 320 321 321 321 319 321 344 343 342 341 341 339 337 334 332 332 331 331 330 332 332 331 331 331 329 329 329 328 328 327 326 327
312 312 311 311 312 313 312 312 314 315 317 317 316 316 317 317 319 320 321 321 321 321 324 343 343 341 341 341 337 335 334 332 331 328 329 329 332 331 330 330 329 328 328 329 328 327 325 326 325
311 311 310 310 311 312 313 313 315 315 317 317 318 317 317 318 319 320 322 322 322 325 331 341 343 340 340 340 336 334 332 332 331 330 329 328 330 331 330 329 329 328 328 328 328 327 325 325 325
313 313 312 312 312 312 314 318 317 316 316 319 320 321 322 321 320 319 321 323 322 327 331 338 342 339 340 337 336 334 332 331 330 330 329 329 330 329 329 328 328 327 328 328 328 327 325 324 325
313 313 312 313 315 317 316 318 316 315 316 318 325 325 328 328 324 320 320 323 322 327 332 335 340 339 338 336 336 334 332 330 329 330 330 330 330 329 329 328 328 327 327 327 327 327 326 324 324
313 312 313 314 316 320 315 316 316 315 327 327 326 326 326 326 327 328 328 324 321 326 333 335 339 338 338 335 336 333 332 330 329 329 328 328 327 325 324 326 327 328 326 326 326 326 326 324 324
315 315 315 316 320 320 316 320 317 324 326 326 325 324 325 325 326 326 327 330 327 325 333 336 338 338 338 336 335 333 332 329 329 329 328 327 324 322 324 323 322 324 325 325 325 325 326 324 324
314 315 315 319 319 318 320 326 320 326 324 323 323 323 323 324 324 324 325 326 324 329 336 337 337 336 336 335 334 333 331 329 329 329 327 326 325 323 322 321 322 323 324 324 324 324 325 323 322
313 320 315 319 319 320 316 323 323 326 324 322 322 322 322 322 321 320 320 320 320 331 336 337 336 335 334 334 333 332 330 328 327 329 327 325 324 323 322 320 321 321 322 323 323 323 322 322 321
314 315 320 320 323 318 315 316 319 325 323 321 321 321 320 319 318 314 315 314 323 332 332 332 332 332 331 333 334 331 328 327 327 327 325 326 325 324 321 321 320 320 321 322 322 323 323 322 322
314 317 318 320 320 321 324 327 326 324 325 321 320 319 317 316 314 310 309 307 309 320 329 329 329 329 330 331 332 328 328 326 325 327 327 326 326 325 323 322 320 319 320 320 321 322 322 323 322
315 315 317 321 321 319 322 324 322 323 321 321 321 318 315 312 310 306 304 303 304 305 310 327 328 328 329 330 327 327 325 324 325 326 326 326 326 325 324 322 321 319 319 319 320 321 321 320 319

GFSSGP_925_thetae_093.txt.gz
Theta_e
310 309 317 317 315 312 314 314 316 316 317 322 323 323 322 321 335 344 347 343 340 337 341 341 338 338 341 343 343 343 342 341 339 337 335 335 335 336 337 340 341 341 341 343 341 341 339 339 339
307 313 319 314 313 313 313 316 317 317 323 323 322 322 322 323 335 340 346 344 339 332 337 337 334 334 338 341 342 342 342 342 341 338 337 335 336 337 337 339 340 341 343 344 343 343 340 337 336
311 316 313 313 312 313 313 315 317 318 320 320 320 322 322 325 334 339 345 344 338 331 332 332 331 332 335 338 340 341 341 341 341 340 337 336 336 337 337 339 340 341 342 341 340 341 339 336 336
313 316 315 313 313 312 314 315 316 316 319 320 319 319 325 332 334 341 344 343 342 333 332 330 330 331 333 337 338 339 339 339 340 341 340 338 337 338 337 338 340 339 339 338 338 340 339 337 336
312 312 316 313 312 313 314 315 316 317 317 320 319 320 321 330 339 340 341 342 341 338 337 330 330 332 334 336 337 338 339 339 340 341 341 341 339 338 337 338 337 338 338 336 335 336 337 336 335
311 313 315 317 316 315 316 315 316 317 317 319 319 319 319 327 339 338 337 342 340 343 345 334 332 334 335 335 336 337 338 340 346 346 344 342 341 339 338 338 337 337 337 336 335 335 334 334 333
316 314 316 314 316 317 318 317 317 317 316 316 320 321 319 331 334 337 337 340 341 342 343 340 333 334 334 335 335 336 338 338 345 344 344 344 341 339 338 338 337 336 336 334 333 333 332 329 333
315 317 320 317 317 317 317 319 318 316 317 319 317 317 317 328 336 337 338 341 341 342 343 341 334 333 334 336 336 335 337 335 344 343 344 343 342 341 338 338 337 336 335 333 331 331 330 327 331
315 320 322 320 319 318 319 317 316 317 317 317 317 317 327 328 330 335 340 344 343 344 343 345 335 334 334 336 336 336 336 336 337 342 343 343 341 341 339 337 336 335 334 333 328 329 329 325 331
311 315 319 317 318 318 318 314 315 316 316 317 317 317 320 328 330 332 333 344 346 346 347 346 344 338 336 337 336 336 336 336 337 338 339 341 340 340 338 337 336 335 334 333 329 330 330 329 332
311 313 313 316 318 317 316 315 315 316 317 317 318 316 315 319 322 329 333 337 345 345 347 347 346 346 342 343 341 336 336 336 336 336 336 336 339 337 338 337 335 334 332 331 331 329 328 329 330
311 313 313 314 315 315 315 314 316 314 316 316 315 315 316 316 315 316 323 330 342 346 347 347 346 346 345 341 340 337 337 337 335 335 336 335 338 337 337 336 334 333 332 331 329 328 327 326 328
313 314 315 314 314 315 314 315 315 313 312 312 313 314 313 315 314 317 319 324 322 342 346 346 345 343 343 343 342 339 340 339 338 338 339 338 337 336 336 335 334 332 332 331 329 328 327 326 327
310 311 311 312 311 312 313 312 312 313 312 312 313 313 314 313 313 315 316 319 322 323 345 346 345 346 340 341 342 342 342 340 341 341 340 339 337 336 336 335 333 332 331 329 328 328 327 326 327
313 312 311 311 311 311 312 313 313 313 312 313 313 313 313 314 314 313 317 316 318 319 329 346 346 345 342 341 343 342 342 342 341 341 339 338 337 336 335 334 332 333 331 331 329 328 327 326 326
312 311 311 311 310 311 309 311 312 311 311 311 312 312 313 313 314 315 317 318 318 319 319 344 346 345 343 341 343 340 340 339 338 339 339 337 337 336 335 334 332 332 332 331 329 327 328 326 326
311 311 310 310 310 311 309 309 310 309 311 312 311 310 311 312 312 314 317 318 318 319 319 339 345 345 343 343 342 341 338 337 336 336 336 336 335 335 335 333 332 332 332 330 329 327 327 327 325
311 310 308 308 308 309 309 309 310 310 311 311 310 310 311 312 313 315 316 317 318 318 318 331 344 344 341 342 341 340 337 335 336 335 334 334 333 334 333 332 332 332 331 330 330 328 327 325 327
308 308 308 309 309 309 309 309 309 309 309 309 310 310 311 311 311 313 315 318 317 318 317 331 342 342 341 340 340 337 335 335 334 334 332 332 332 333 333 332 331 331 330 330 329 327 326 326 326
309 309 309 309 310 309 308 309 309 309 310 311 312 312 312 311 313 313 314 317 319 318 318 335 342 342 341 340 339 337 336 334 332 333 331 331 332 333 332 331 331 330 329 329 329 328 327 326 326
311 310 309 310 309 308 308 309 309 311 312 313 314 313 314 312 313 314 315 316 319 319 321 340 342 341 340 340 337 336 334 332 331 330 329 329 329 331 331 331 331 330 329 329 328 328 327 326 326
312 311 312 312 311 310 310 312 312 314 314 315 315 317 315 323 323 317 314 316 318 320 329 340 341 340 339 340 337 336 332 331 330 329 328 328 328 329 330 330 329 329 329 328 328 328 326 325 325
313 313 313 312 310 313 314 315 314 315 315 313 325 325 323 322 323 323 324 325 322 322 340 341 340 339 339 338 336 335 332 331 331 329 329 327 328 329 329 330 329 329 328 327 328 327 325 324 324
312 312 312 310 310 314 313 314 314 313 314 327 326 325 324 323 322 322 323 323 324 325 338 340 339 339 338 336 336 333 332 330 330 330 329 329 329 329 329 329 328 327 326 326 328 327 326 324 324
312 312 313 314 314 315 317 321 318 322 325 327 326 324 323 321 321 320 319 319 320 320 325 339 338 338 337 336 336 333 333 331 329 328 329 330 330 328 327 326 327 328 327 326 326 327 326 324 324
311 312 317 317 315 315 317 323 320 323 319 320 323 321 320 319 317 315 315 314 314 323 329 335 337 337 335 335 335 334 332 330 329 329 328 328 326 325 324 323 324 325 325 326 326 326 326 325 324
312 314 315 319 317 317 316 316 319 320 319 317 320 318 317 316 313 311 310 310 309 313 330 335 336 335 335 334 335 333 332 330 328 328 328 326 325 324 322 323 320 321 322 324 325 325 325 325 324
314 312 316 318 324 322 317 315 327 325 321 321 319 316 314 312 309 307 306 305 305 308 315 331 332 332 334 334 334 332 331 328 329 328 327 326 324 323 321 320 320 320 321 322 323 324 324 325 324
316 316 316 318 318 320 324 326 322 319 318 322 317 314 311 309 306 304 302 301 301 303 307 314 329 328 331 332 333 332 328 327 328 327 326 325 324 323 323 320 318 320 320 321 322 323 323 322 322
315 318 317 319 319 321 320 322 316 317 318 320 315 311 307 304 302 300 299 299 299 299 301 304 314 329 329 331 331 328 327 326 326 325 325 326 326 324 323 321 320 320 320 320 321 322 322 322 322

GFSSGP_925_thetae_096.txt.gz
Theta_e
311 309 315 316 314 308 311 312 313 314 315 319 320 322 321 320 333 337 345 344 337 338 341 342 343 342 342 342 342 341 341 339 336 335 334 335 335 336 338 340 341 343 343 341 340 340 339 340 339
308 311 317 310 312 311 310 312 315 314 315 317 320 321 320 330 339 347 345 345 337 336 340 341 342 341 342 342 342 342 341 340 338 336 335 336 336 336 337 339 341 343 343 342 340 339 337 338 338
310 316 311 312 309 311 310 312 314 315 314 315 319 320 321 331 344 344 343 339 337 336 337 338 339 339 341 341 342 342 342 341 339 337 336 336 336 337 337 339 339 342 342 341 339 338 337 336 335
313 315 312 314 313 310 312 312 312 314 314 315 317 318 325 330 340 342 341 336 332 333 334 334 336 340 339 340 340 341 341 341 341 339 337 336 336 337 338 339 339 340 339 338 338 338 336 335 335
312 310 315 314 314 311 312 313 313 313 314 316 317 318 323 336 341 342 342 334 329 330 331 331 333 336 337 338 338 339 339 340 340 340 339 337 337 337 338 339 339 338 338 336 337 338 336 335 335
309 309 314 317 315 315 313 313 313 315 315 315 316 317 319 338 343 344 342 334 327 328 330 330 330 331 334 336 336 338 338 339 340 340 340 340 338 338 338 338 338 338 337 336 335 336 336 334 335
309 310 314 314 314 314 316 315 315 316 314 314 318 317 320 331 340 343 340 337 331 330 330 330 331 332 335 335 336 337 337 338 339 341 341 341 340 339 338 338 337 337 336 334 335 335 334 333 333
312 314 318 315 317 316 316 316 317 315 315 316 314 317 318 329 336 340 342 342 341 342 339 331 330 333 334 335 335 336 337 337 342 343 343 342 341 339 338 338 337 336 336 334 333 332 331 330 331
312 316 318 319 320 320 319 316 315 315 314 315 314 317 324 331 336 343 344 345 344 343 341 338 330 332 334 335 335 336 337 336 342 343 343 342 341 340 339 339 337 336 335 334 333 332 330 328 333
309 311 317 317 318 318 317 315 314 314 314 316 315 316 327 330 334 335 342 344 346 344 342 339 331 330 334 335 335 337 338 337 341 342 343 342 341 340 339 338 337 336 334 333 331 330 329 328 333
309 312 312 312 314 314 315 314 313 314 315 314 315 315 316 323 326 327 338 344 345 343 344 343 339 330 331 335 335 337 338 337 338 338 340 341 340 340 340 338 337 336 333 333 330 329 329 329 333
309 310 311 311 312 312 313 313 313 313 315 314 313 313 314 314 318 322 327 342 343 345 343 344 343 339 331 331 335 336 337 336 337 338 338 339 340 339 339 338 336 335 334 333 330 329 330 330 330
310 312 312 312 312 312 312 312 313 313 312 310 310 311 312 312 311 316 320 328 343 344 346 345 345 343 339 336 336 337 336 336 335 336 336 335 338 338 337 337 336 335 334 332 331 331 329 328 326
308 309 308 309 310 310 311 310 311 312 311 311 311 311 310 310 310 311 313 316 322 343 346 345 345 345 343 341 339 337 336 335 335 335 335 335 334 336 336 336 336 335 333 331 331 330 327 327 326
312 312 310 310 310 309 309 311 311 310 310 310 311 310 311 311 311 310 313 313 317 322 343 346 345 346 344 342 339 340 337 338 338 337 337 337 336 336 335 335 335 334 333 332 331 329 328 327 327
311 310 311 311 310 309 309 311 309 308 307 309 310 310 311 309 310 312 312 314 315 317 323 342 344 344 344 343 341 341 339 341 339 340 339 339 338 337 336 336 335 333 332 331 331 329 329 327 326
309 311 311 310 309 308 308 310 309 307 307 308 307 307 307 308 309 311 313 313 314 315 317 332 342 344 343 342 339 341 341 342 341 340 340 339 338 337 336 335 335 334 332 331 330 329 329 328 327
310 310 308 308 307 308 307 306 308 308 306 307 306 306 306 307 307 310 313 314 314 314 316 325 335 342 343 341 340 341 341 341 340 339 339 339 337 336 336 335 334 332 331 330 330 330 328 328 326
307 307 307 306 306 308 308 307 307 305 305 305 307 306 306 307 309 309 311 313 313 315 314 330 338 342 342 339 338 338 338 338 337 336 334 336 336 334 334 334 333 332 332 330 330 329 327 327 327
305 306 306 307 307 308 307 307 307 307 306 308 308 309 309 310 310 310 310 312 313 314 315 324 337 341 341 340 339 337 336 336 335 334 335 333 334 332 333 332 332 332 331 330 329 328 326 326 326
308 307 308 309 308 307 306 308 308 309 308 308 309 309 311 312 312 312 311 310 313 314 316 324 336 340 340 340 339 337 334 334 335 335 333 332 331 330 331 331 332 331 331 331 330 328 327 326 326
310 309 310 310 310 311 308 311 311 311 311 312 312 313 320 320 321 322 321 322 322 322 316 322 336 339 340 339 337 335 334 333 332 332 332 330 329 330 331 332 331 330 330 329 329 328 327 326 326
310 310 311 311 310 309 312 311 311 310 311 312 313 324 322 320 321 320 320 319 319 321 324 329 338 340 339 338 337 335 334 332 331 331 331 329 328 328 328 330 331 330 330 329 328 328 326 326 326
309 311 310 310 309 312 312 311 312 311 315 321 324 324 322 320 317 315 314 315 315 316 324 337 339 340 338 336 335 336 332 330 329 329 329 328 327 326 327 328 329 329 328 328 328 327 326 325 325
309 311 313 313 311 313 310 312 312 314 321 319 320 321 318 314 313 312 310 310 311 312 315 328 339 338 337 336 334 333 332 330 330 329 327 327 326 326 326 328 328 328 328 328 327 327 327 326 325
308 311 314 319 316 314 313 316 318 322 320 319 317 318 314 311 309 307 308 307 307 309 312 325 337 337 335 334 333 332 331 331 330 329 328 328 327 327 327 328 328 328 327 326 327 326 327 326 325
312 311 311 314 314 318 315 313 319 320 319 318 316 315 311 308 305 304 304 304 303 305 308 315 335 336 335 334 332 332 332 330 329 328 328 328 328 328 328 326 325 324 324 325 325 326 325 326 324
313 312 314 313 318 317 316 315 321 320 318 317 317 312 307 304 302 302 302 301 301 302 304 309 324 332 332 331 332 331 331 330 329 328 328 329 328 325 324 324 324 320 319 321 322 323 324 325 324
304 312 316 317 316 317 318 319 318 319 317 317 315 308 304 301 299 299 299 299 299 299 300 303 308 321 325 327 330 330 329 329 328 328 327 327 325 324 323 322 321 319 320 319 321 322 323 324 324
303 306 316 319 319 317 317 319 316 315 316 314 308 305 302 299 297 296 297 296 297 297 297 300 302 311 321 319 328 330 327 328 328 327 326 326 324 323 322 321 320 319 318 319 321 322 323 323 323

GFSSGP_925_thetae_099.txt.gz
Theta_e
311 309 315 314 312 308 309 310 309 312 312 314 315 319 320 320 330 328 342 344 342 339 342 342 343 342 341 340 339 337 335 334 334 333 336 339 342 343 342 341 341 341 343 340 339 340 340 340 340
309 310 316 307 309 310 308 310 312 312 313 313 315 318 318 326 339 345 344 343 341 340 342 342 343 342 342 341 340 339 337 335 334 334 335 336 338 339 340 340 340 340 340 339 339 339 339 339 339
309 316 310 311 308 309 307 309 312 314 311 312 313 316 318 327 341 343 343 341 340 341 341 342 342 342 341 341 341 340 339 337 335 335 335 335 337 337 338 339 342 342 342 340 340 337 337 338 338
314 313 309 312 311 310 309 311 310 312 312 312 314 313 318 334 343 342 343 341 338 340 341 341 340 340 341 341 341 341 340 339 337 336 335 336 337 337 338 339 342 343 341 339 338 336 336 336 335
311 309 311 314 313 311 310 311 312 312 313 314 315 315 318 336 340 341 342 338 337 340 339 338 337 338 339 341 341 341 341 340 339 337 336 336 336 337 338 339 338 340 339 338 338 337 336 335 336
307 308 314 313 312 313 312 312 313 314 314 313 313 313 317 332 341 342 338 336 336 334 336 336 337 337 338 339 340 340 341 341 340 339 337 336 336 337 338 339 339 339 338 337 336 337 335 335 336
306 309 313 313 314 314 314 313 314 315 313 314 314 316 319 337 343 341 339 337 334 334 333 332 332 333 337 338 338 339 339 340 340 339 339 338 337 337 337 338 339 337 337 336 336 336 335 334 335
309 310 315 313 315 315 316 316 316 315 314 314 313 313 318 332 340 342 339 336 336 334 333 332 331 332 334 336 337 336 338 339 339 339 339 339 338 338 338 338 338 337 337 335 335 335 334 334 335
310 314 314 316 317 316 316 316 314 313 313 313 313 314 321 332 338 342 341 339 337 336 333 332 333 334 333 334 336 336 337 339 340 339 340 340 340 339 338 338 337 337 336 335 334 334 333 334 335
308 310 313 315 316 317 317 315 315 315 314 314 313 314 316 328 338 342 342 342 341 339 334 333 333 333 334 335 335 336 338 340 338 339 339 342 341 340 338 338 337 336 336 335 334 334 333 334 333
307 311 310 311 312 312 312 312 312 314 314 313 314 314 313 315 324 329 341 343 343 342 339 336 332 332 333 334 335 336 338 339 338 341 341 342 341 340 339 339 338 336 335 335 333 333 332 328 333
310 308 309 309 310 309 310 311 312 311 312 313 312 312 312 313 314 320 327 338 343 343 341 340 336 332 331 331 333 335 337 340 339 338 340 342 342 341 340 339 338 337 335 334 333 332 331 328 333
307 308 309 310 310 310 311 311 311 312 310 309 310 309 309 310 310 313 314 327 342 342 343 341 338 333 330 331 332 334 337 338 340 337 339 341 341 340 339 339 338 337 335 333 332 330 329 328 332
307 308 307 306 307 307 309 309 309 310 309 308 309 309 309 309 307 309 311 312 323 340 343 343 341 338 333 332 331 331 334 335 335 335 337 340 339 339 338 339 337 336 336 334 333 330 330 330 331
310 310 309 309 309 308 308 308 309 308 308 307 307 307 307 309 310 308 311 312 313 319 335 343 343 342 340 335 332 330 332 332 333 334 336 337 337 338 337 337 337 336 335 334 333 330 330 330 329
310 309 311 310 309 309 308 311 308 307 306 306 305 305 306 306 307 309 310 311 312 312 317 338 343 343 343 341 338 335 334 334 333 334 334 336 335 336 336 336 335 335 334 333 332 331 329 327 327
308 310 310 310 309 308 307 309 308 306 306 306 306 305 305 305 306 308 310 311 312 312 312 324 341 343 344 343 342 340 336 335 335 334 334 335 335 335 335 335 334 334 334 332 332 330 329 328 327
308 309 308 308 307 306 305 306 306 306 306 306 304 305 305 306 306 307 309 311 311 312 311 315 333 342 343 343 342 340 338 338 337 337 337 337 337 337 336 336 335 336 333 331 330 330 329 328 328
307 306 305 304 304 305 306 306 307 307 303 302 303 304 305 305 306 307 309 311 311 311 312 312 332 339 341 340 339 338 338 339 339 340 339 339 339 338 336 336 335 334 333 329 329 329 329 328 328
303 304 304 304 305 305 304 306 307 306 304 304 306 305 306 306 307 307 309 309 309 311 312 312 322 338 340 339 339 338 338 337 337 338 339 339 339 338 336 336 335 333 331 328 327 328 327 327 327
306 305 306 307 307 306 306 308 308 308 307 308 307 306 308 316 319 319 318 316 318 315 311 312 320 334 339 339 338 337 336 335 335 336 337 338 337 337 335 332 333 332 333 328 326 329 328 327 327
309 309 309 309 308 309 307 312 311 309 308 309 310 312 318 318 317 315 314 314 315 315 317 318 320 334 338 339 337 336 335 334 334 334 334 334 334 334 332 331 330 332 333 330 327 328 327 326 325
308 308 309 309 309 309 310 309 310 310 310 312 319 322 318 316 314 313 311 311 311 311 313 320 321 333 337 339 338 336 335 334 333 333 332 334 333 333 329 328 330 329 331 332 328 326 326 326 326
307 307 309 307 308 311 311 309 310 308 314 320 320 316 314 312 311 309 309 309 309 309 310 313 327 335 337 338 337 336 335 332 330 330 332 331 330 329 329 329 329 330 329 328 328 326 326 325 326
307 308 309 311 311 312 311 311 308 320 320 319 318 315 311 308 307 307 306 306 305 306 306 309 319 337 338 338 337 335 333 331 331 330 330 328 329 329 328 327 327 328 328 327 329 328 327 326 326
309 307 309 315 316 312 312 313 312 319 317 315 314 313 309 306 304 304 303 303 302 303 305 306 313 337 337 336 335 334 332 332 330 331 329 328 328 327 326 326 327 326 329 329 327 327 327 326 326
309 312 311 313 312 314 311 312 318 317 316 318 315 311 307 303 301 300 301 300 300 301 302 304 309 334 336 335 333 332 330 330 329 329 329 328 327 325 325 325 325 327 328 327 327 326 326 326 325
308 308 312 314 317 316 313 313 313 318 319 317 314 309 305 301 299 298 298 298 298 298 301 302 306 313 331 332 331 329 328 329 329 329 328 327 327 326 326 326 326 327 325 324 324 325 325 325 324
301 302 309 313 314 320 316 314 319 317 317 318 309 305 302 300 298 296 296 295 296 296 298 300 302 307 314 327 329 329 328 327 328 328 328 327 327 327 327 326 324 323 322 322 321 319 320 321 323
301 308 311 303 309 311 313 316 315 311 310 308 305 302 300 298 296 295 294 294 294 294 296 298 299 302 306 319 326 327 323 326 327 326 327 326 326 326 323 322 321 320 321 319 319 319 321 322 322

GFSSGP_925_thetae_102.txt.gz
Theta_e
311 310 314 312 309 306 308 307 309 311 311 312 312 314 315 317 329 330 341 344 337 336 340 341 342 340 338 336 334 333 334 334 334 335 337 340 341 339 342 339 338 339 340 340 338 340 341 341 340
309 311 314 306 304 307 304 308 310 309 310 310 312 314 317 319 335 343 343 343 335 337 341 341 342 341 339 337 335 333 334 334 334 335 337 340 341 343 342 340 340 341 342 339 340 339 340 339 339
309 315 308 311 305 305 304 307 310 312 310 311 312 313 314 319 336 341 342 342 339 340 341 341 342 341 340 338 336 335 334 334 333 334 336 340 342 343 341 341 341 343 341 338 341 339 339 338 338
315 311 307 309 310 309 306 310 310 311 312 312 313 313 314 322 339 341 341 341 339 340 341 341 342 342 340 339 339 337 335 334 334 334 335 336 338 339 340 340 339 339 339 339 342 338 336 338 338
311 307 308 312 311 309 309 309 312 312 312 313 313 314 314 321 337 340 342 340 340 341 341 341 342 342 341 340 340 339 337 336 335 335 335 335 336 337 339 340 341 341 340 339 339 336 336 337 336
306 307 311 309 309 310 310 311 312 313 313 312 313 313 313 330 340 342 343 339 339 339 340 341 341 341 340 341 340 340 339 338 336 336 336 336 336 337 338 340 341 341 338 339 338 336 336 334 335
304 308 310 312 313 314 313 312 313 313 313 314 312 313 312 330 336 342 343 339 339 339 341 342 341 340 339 339 340 340 340 339 338 337 336 336 336 337 338 339 339 339 338 338 337 336 335 334 335
303 307 312 311 313 314 314 316 314 314 313 312 313 313 313 316 334 341 339 340 340 341 342 342 341 340 340 339 339 339 340 340 340 339 337 337 337 337 337 338 338 338 337 336 336 336 334 335 336
307 311 311 312 314 313 315 316 314 314 314 313 313 312 313 328 339 341 338 338 339 340 340 340 341 341 340 339 339 339 338 338 339 339 339 338 337 338 337 337 337 337 337 336 335 336 335 334 336
309 310 310 310 313 315 314 315 314 314 314 313 312 313 313 326 338 341 340 338 337 337 339 339 338 337 337 338 338 338 338 338 338 339 340 340 339 338 338 338 337 337 336 336 335 334 335 335 335
306 309 308 311 313 311 311 310 311 312 312 312 313 312 310 312 320 335 338 341 339 337 335 334 332 332 333 336 336 337 339 337 337 338 339 340 340 340 339 338 338 337 336 336 334 334 334 334 334
308 307 309 309 309 308 309 309 309 310 311 311 310 309 309 310 310 317 332 339 341 341 338 334 335 332 334 335 336 338 342 337 338 337 337 338 341 341 340 338 338 337 336 335 335 335 334 334 334
306 308 307 308 308 308 308 309 310 310 309 308 307 308 308 308 307 310 313 318 330 340 341 340 336 335 335 335 335 336 340 341 339 336 338 338 340 341 340 339 338 338 336 335 334 333 333 332 331
308 306 307 306 306 306 307 307 306 308 308 307 307 307 307 307 307 308 309 311 313 316 332 341 341 339 336 335 334 335 336 336 339 342 337 338 340 341 340 340 338 338 337 335 334 333 332 331 329
308 310 308 308 308 308 308 307 308 307 306 305 304 304 304 306 307 306 309 309 311 312 314 327 340 341 339 335 333 332 332 334 336 337 339 336 338 340 339 339 338 338 337 336 333 332 331 329 330
309 308 310 309 308 309 307 309 309 307 306 306 305 305 304 304 304 307 308 308 310 310 311 314 323 339 341 337 333 332 331 331 334 335 338 335 336 339 339 338 338 337 337 335 333 332 331 330 331
306 308 309 309 308 308 307 307 306 305 305 304 304 304 303 303 303 305 308 309 310 310 311 311 316 335 339 340 337 334 333 332 332 333 331 334 336 337 338 338 336 335 335 334 332 330 330 329 329
306 308 307 307 306 305 303 304 303 304 304 304 303 302 302 303 304 306 307 307 308 309 309 310 310 324 337 340 338 336 335 334 333 332 332 333 335 336 335 336 335 334 332 331 331 330 330 329 327
306 306 305 303 303 304 304 304 303 303 303 301 302 302 302 303 303 309 316 316 315 311 307 309 309 315 337 339 338 337 337 336 335 334 332 332 334 335 335 335 335 334 331 331 331 329 329 328 328
302 303 303 303 303 302 303 305 306 304 304 304 304 303 303 309 316 316 314 313 314 315 316 310 308 314 334 338 339 338 338 337 336 335 335 332 334 334 335 335 335 334 333 332 331 329 328 328 328
304 304 305 306 306 305 304 307 307 307 305 306 308 309 317 316 314 314 312 311 311 312 313 313 317 318 331 337 339 337 338 336 336 335 336 336 336 336 336 337 334 334 332 331 329 329 328 328 327
307 305 307 307 308 308 306 310 308 307 308 308 319 316 313 311 311 310 309 309 309 310 310 313 315 319 329 336 338 336 336 335 335 335 335 336 337 337 338 338 336 335 331 331 330 328 328 327 327
306 307 307 307 307 308 306 308 308 307 307 319 318 314 310 307 306 306 306 306 306 306 308 309 312 315 322 336 336 336 335 334 334 334 334 334 334 336 338 337 336 332 329 330 329 327 327 327 327
306 307 307 306 307 310 308 308 309 307 316 319 317 314 310 306 303 303 303 302 303 303 304 306 308 311 322 336 337 335 334 334 333 333 332 332 333 336 336 335 333 329 329 329 328 327 326 327 326
305 307 310 309 310 312 310 308 309 317 319 318 317 311 307 303 301 300 300 300 300 300 301 303 305 308 319 332 336 336 334 334 333 332 332 331 331 330 333 332 329 328 329 328 328 327 326 325 324
305 308 309 313 314 311 309 309 309 318 315 313 312 308 305 301 300 299 298 298 298 298 299 301 303 306 314 331 335 336 334 333 331 331 330 330 330 330 330 331 328 328 328 328 328 328 325 323 323
305 310 310 313 311 313 310 309 316 317 316 316 312 307 304 300 299 298 297 296 296 296 297 299 301 304 311 335 334 334 333 332 330 331 330 330 329 328 329 329 328 327 325 327 326 325 323 325 323
302 302 306 308 314 315 311 311 311 317 316 314 310 305 302 299 297 296 296 295 295 295 295 297 300 303 307 319 333 332 330 330 330 329 329 328 328 327 328 327 326 326 326 325 325 325 326 325 326
300 300 303 310 310 312 315 314 316 315 313 311 307 303 300 297 296 295 294 293 293 294 294 295 298 300 304 310 324 329 328 329 328 328 327 327 327 327 326 325 324 324 325 326 325 324 322 322 322
301 306 308 299 303 307 307 310 313 311 308 307 304 301 297 296 295 293 293 292 292 293 293 294 296 298 300 305 319 325 328 327 327 326 325 325 326 326 325 324 323 324 323 321 321 320 320 319 319

GFSSGP_925_thetae_105.txt.gz
Theta_e
311 310 314 313 313 313 312 312 310 313 314 313 313 315 317 317 320 332 340 341 340 338 339 339 341 339 336 335 338 341 343 344 344 344 344 343 340 336 335 336 338 343 344 342 338 339 341 339 338
310 312 313 313 311 312 313 311 313 312 312 313 314 315 317 319 322 335 345 343 338 338 340 339 341 339 336 335 336 338 339 340 342 343 343 343 340 336 337 337 338 341 342 339 337 339 340 340 339
310 314 314 315 309 312 312 309 312 313 313 314 316 314 316 319 327 341 342 343 338 341 341 341 341 339 337 335 335 335 335 336 337 339 341 341 339 338 340 339 339 339 339 338 337 338 340 340 339
314 314 312 312 314 312 310 312 311 313 314 314 315 317 317 317 333 339 341 342 339 340 341 341 341 340 338 336 335 334 334 334 336 338 340 341 340 342 341 340 340 341 341 337 337 338 339 338 338
311 311 313 313 313 312 312 311 312 314 314 315 315 318 317 318 333 339 343 341 342 341 341 341 341 340 339 338 336 335 334 334 334 338 340 341 343 343 341 341 341 342 339 338 339 337 337 338 338
312 312 312 313 313 312 312 313 314 314 315 316 316 317 317 317 328 340 342 344 342 342 341 341 341 341 340 339 337 336 335 334 334 335 336 339 340 340 340 339 339 339 339 339 340 337 336 337 337
310 313 313 313 313 314 315 313 314 315 316 316 315 319 317 318 333 339 342 342 342 343 341 341 342 342 341 340 339 338 337 335 335 335 335 335 336 337 338 338 340 341 339 338 338 336 335 336 336
309 312 313 314 314 315 315 316 315 315 317 315 315 319 319 318 332 340 340 341 341 342 342 342 342 342 342 341 340 340 339 338 336 335 335 336 336 337 338 338 340 341 338 338 338 336 336 335 334
309 312 313 313 314 314 316 317 316 315 317 316 316 316 316 315 330 341 340 339 340 341 342 342 342 344 342 342 341 340 340 339 338 337 336 336 339 338 339 340 340 339 338 338 337 336 336 335 335
314 313 311 312 313 314 315 315 315 315 315 316 315 315 314 313 317 333 341 341 339 340 340 344 345 343 345 341 341 341 341 340 340 340 339 339 338 340 341 340 338 338 338 337 336 336 336 335 338
309 310 311 313 313 314 314 313 313 314 314 314 315 315 314 313 313 317 331 342 339 338 338 339 342 344 343 342 341 340 340 340 340 340 340 341 339 338 339 341 339 339 338 338 335 335 337 338 337
307 308 310 311 312 313 313 313 312 312 313 314 314 313 312 313 314 314 314 328 341 340 335 335 337 339 340 342 338 338 341 343 341 339 339 341 339 339 340 341 339 339 339 338 336 334 336 337 336
308 309 310 309 310 310 310 311 312 312 312 312 311 310 311 312 312 311 311 311 316 334 341 335 332 333 337 341 336 337 336 337 340 339 338 339 340 340 339 339 338 338 337 337 336 335 335 335 335
309 307 308 309 309 308 310 311 309 311 311 310 310 310 311 310 311 310 311 311 311 312 326 337 334 331 334 333 335 336 336 337 336 338 339 338 339 341 341 340 338 338 338 337 336 335 335 335 333
308 309 310 310 311 311 310 311 310 311 310 308 308 309 309 310 309 310 310 310 310 311 311 325 320 325 336 333 332 334 336 336 337 337 337 335 335 338 340 341 338 338 338 337 336 334 333 333 332
308 309 310 310 309 310 310 313 311 307 307 308 309 309 309 309 308 308 308 308 308 308 309 309 323 330 338 338 336 333 334 336 335 335 336 338 338 338 339 340 340 337 337 337 335 334 332 331 331
307 309 310 310 309 309 309 310 310 308 307 307 309 309 309 309 309 308 307 308 310 308 307 307 308 325 331 336 338 336 334 334 333 333 335 338 339 338 339 341 340 338 337 336 336 334 332 331 330
308 309 309 310 309 308 307 306 306 307 306 308 309 309 309 308 308 313 317 316 316 317 317 311 307 308 323 333 336 336 335 334 332 331 332 334 339 340 340 339 336 335 334 334 334 333 333 331 330
306 307 306 306 306 305 308 308 307 308 306 307 309 309 307 309 317 317 315 314 314 315 316 317 316 308 313 332 336 335 335 334 333 333 334 336 336 338 337 337 336 336 334 331 332 332 331 329 329
304 305 307 307 307 306 308 309 309 308 308 308 308 310 320 319 317 315 313 312 312 312 313 313 316 317 315 324 333 334 334 334 335 334 334 333 333 333 335 335 334 334 333 330 330 330 329 329 328
307 308 308 309 308 308 308 310 309 309 307 314 320 319 316 313 313 312 311 310 309 309 309 310 312 314 317 320 331 335 335 335 335 334 334 334 333 332 333 334 333 333 332 330 332 330 330 328 328
309 306 307 308 309 310 308 310 310 310 310 319 320 316 313 311 309 308 308 307 306 306 306 307 308 311 314 319 328 334 334 334 334 335 335 335 335 333 333 333 333 332 333 332 331 331 330 328 328
308 307 308 309 309 309 309 310 310 309 310 318 319 316 312 308 306 305 305 303 304 303 303 304 305 308 312 315 321 334 335 334 335 337 336 335 334 333 332 333 333 333 333 332 331 329 329 329 328
307 308 308 308 310 312 310 310 309 309 311 319 319 314 309 306 304 303 302 301 302 302 301 301 302 304 308 312 317 329 334 334 335 335 336 334 332 332 333 333 333 333 334 332 330 329 329 328 327
308 310 310 311 313 311 309 310 310 313 320 319 316 311 307 304 303 302 301 300 299 299 298 298 299 301 305 309 315 324 334 333 334 334 335 333 332 333 332 333 332 334 334 332 329 328 328 327 327
306 310 311 312 312 312 311 313 311 318 315 314 311 308 306 304 301 300 299 298 297 296 296 296 297 299 303 306 311 325 332 333 333 334 334 332 331 331 331 332 332 333 332 329 328 328 327 327 326
307 311 308 311 312 311 310 310 318 316 315 314 310 307 303 301 299 297 297 296 296 294 294 295 296 298 301 305 310 331 333 333 332 333 333 332 330 330 330 331 332 331 330 329 328 327 327 325 326
304 302 306 313 309 306 305 310 312 315 315 313 309 304 300 299 298 296 296 294 294 293 293 294 295 297 300 303 308 327 334 333 331 331 332 331 330 330 329 329 329 328 327 328 327 327 326 326 325
300 300 304 309 312 308 304 307 314 314 309 308 305 301 298 298 297 296 294 293 292 292 292 293 294 295 298 300 305 322 331 331 329 329 329 329 328 327 327 327 327 327 326 325 326 325 324 324 325
301 305 306 304 303 308 309 306 312 309 307 304 302 299 298 296 295 294 293 292 291 291 291 292 292 294 296 298 303 321 326 328 328 327 327 326 326 326 326 325 327 326 325 325 325 325 324 324 322

GFSSGP_925_thetae_108.txt.gz
Theta_e
314 314 315 317 319 317 320 318 317 318 318 318 318 318 320 321 322 327 334 344 346 345 350 344 342 340 337 339 342 344 344 343 343 342 337 337 337 337 337 339 338 344 345 343 338 339 340 340 340
314 314 316 318 317 321 322 318 317 317 316 317 319 319 321 322 324 328 338 346 346 346 348 347 340 340 336 337 341 343 344 343 344 343 341 339 338 337 337 338 339 345 344 341 337 339 340 339 338
314 315 319 319 320 321 322 316 316 316 317 318 319 320 320 322 327 332 340 346 345 346 346 348 340 339 336 335 338 342 343 344 344 344 343 342 339 337 337 338 341 344 344 340 337 339 340 339 338
314 315 316 318 322 321 318 317 317 317 317 317 318 320 321 321 326 328 340 345 345 345 346 348 341 339 336 334 335 338 341 342 343 344 344 343 340 337 337 338 339 341 340 339 338 339 340 340 339
314 316 319 321 323 322 318 317 316 317 317 317 318 319 322 320 324 333 345 347 344 346 348 348 341 340 337 335 334 335 336 337 337 339 341 341 340 337 339 339 339 339 340 339 339 338 339 339 338
316 317 319 322 323 322 319 318 317 317 318 318 318 320 322 320 325 331 344 348 346 346 349 349 343 340 338 336 335 334 335 336 336 337 339 340 340 340 341 340 340 340 341 339 339 339 338 338 338
316 319 320 321 322 321 320 318 318 319 319 319 320 321 322 322 321 331 341 347 348 348 349 349 348 343 339 337 336 335 335 335 336 337 338 340 341 343 342 341 340 340 340 338 338 339 337 338 338
316 317 319 319 320 321 320 318 318 319 320 319 320 321 322 321 318 328 338 346 347 347 348 349 350 348 347 343 338 337 336 335 335 335 337 339 341 341 340 340 339 339 339 338 339 339 337 336 337
313 317 319 319 319 319 318 318 319 319 319 319 319 319 319 317 317 320 328 343 346 345 347 348 346 345 347 347 345 339 338 336 336 336 336 337 341 342 342 341 341 339 340 338 338 338 337 336 336
313 315 317 317 317 317 316 317 317 317 317 318 318 318 317 317 317 318 322 329 344 345 344 344 345 346 343 345 347 345 345 343 342 342 342 341 342 343 343 342 342 340 339 338 337 337 337 336 338
313 315 316 314 314 314 314 314 315 315 316 316 317 317 316 317 317 318 319 320 337 343 344 343 343 344 345 343 345 346 345 345 344 344 344 343 343 344 343 343 343 342 341 340 338 339 339 338 338
310 311 312 312 312 313 314 314 313 313 314 314 314 315 315 316 317 317 317 317 324 343 342 343 343 343 342 342 343 343 343 344 344 345 345 343 343 343 342 341 342 342 342 340 341 339 339 338 339
310 310 310 311 311 311 311 311 312 312 313 314 314 314 315 316 316 315 315 316 316 320 332 341 341 341 340 339 341 341 341 340 342 342 342 344 344 343 342 340 340 341 341 341 341 340 340 339 338
310 311 311 312 313 312 312 313 313 313 313 313 314 314 314 314 314 315 315 315 315 316 316 326 339 340 340 339 339 339 339 339 340 340 340 343 342 343 342 341 342 340 340 341 340 340 339 338 338
311 311 312 312 312 312 313 313 314 313 313 314 313 313 313 314 313 314 313 314 314 314 314 315 325 340 340 339 338 338 337 338 338 339 340 341 341 341 340 340 340 341 339 341 340 340 339 338 337
310 312 314 314 313 313 313 315 315 314 313 313 313 313 313 314 313 313 312 312 314 314 314 314 314 318 330 338 339 339 338 338 337 337 338 340 340 340 340 340 339 339 340 341 340 339 338 338 337
312 314 314 314 313 313 313 314 313 313 313 312 312 313 313 314 314 313 317 319 320 320 321 321 317 315 321 331 336 338 340 340 338 338 337 337 338 337 337 338 338 338 337 340 339 338 338 337 336
315 314 313 313 313 312 313 313 312 311 311 312 312 313 314 313 313 319 319 319 320 320 321 322 322 321 315 322 332 334 337 338 340 339 338 337 336 336 336 337 337 336 336 337 337 336 336 336 335
311 311 311 312 311 309 310 312 313 313 313 313 313 314 313 316 319 319 319 318 319 319 319 319 321 322 322 315 324 331 336 336 335 338 338 337 337 336 336 337 337 335 335 335 335 335 335 333 333
309 310 311 311 311 311 313 313 313 313 314 313 313 314 319 319 319 318 317 316 316 316 316 316 317 318 320 321 318 327 331 333 333 335 337 337 336 335 336 336 336 335 335 334 335 334 332 332 332
311 311 311 311 311 312 312 313 313 312 312 313 317 320 319 318 317 316 314 313 313 313 313 313 314 314 316 319 321 322 329 332 333 334 335 335 336 334 334 335 336 335 336 334 333 333 332 331 330
311 310 310 310 310 311 312 312 312 312 313 316 319 320 319 316 314 313 312 311 310 310 310 310 311 311 312 315 319 323 326 332 332 333 333 334 335 336 335 335 336 336 335 334 333 332 334 332 330
310 308 310 310 311 312 312 312 311 312 313 316 320 320 316 313 312 311 310 308 308 308 308 308 308 308 310 310 313 317 323 329 332 332 333 334 334 334 336 335 335 335 334 333 333 332 334 333 332
309 310 310 311 311 313 311 311 309 312 312 318 321 316 314 313 311 310 308 306 306 305 305 305 304 305 306 307 309 312 317 324 332 332 334 334 335 334 335 334 335 334 333 333 332 334 334 332 332
309 311 313 313 313 311 311 310 310 314 318 319 318 316 313 311 310 308 306 305 304 303 302 301 300 300 302 302 305 309 312 320 327 334 335 335 336 334 334 334 334 333 333 334 335 334 333 332 331
310 311 311 310 310 311 312 312 315 319 317 315 312 311 309 308 308 306 304 303 302 301 300 298 296 297 298 299 302 305 308 313 326 332 333 335 335 334 333 333 334 334 334 334 334 334 333 332 331
309 311 309 312 311 313 310 311 319 317 317 315 312 310 308 305 306 304 303 301 299 298 297 294 294 294 295 297 299 302 306 312 326 332 333 334 335 334 332 332 333 332 333 333 332 333 331 330 330
306 305 310 312 309 306 306 307 310 317 316 312 309 308 307 305 304 303 302 299 297 296 295 292 292 293 294 296 298 302 305 314 330 333 333 333 334 334 332 332 332 331 331 331 332 331 330 329 330
304 303 304 307 308 308 306 306 317 315 312 310 308 306 305 304 303 301 300 298 296 295 293 292 291 291 292 295 298 301 310 329 331 332 333 332 333 332 332 331 330 330 330 330 330 328 329 329 329
302 302 302 306 303 306 308 308 314 313 310 308 307 305 303 302 301 300 298 296 294 293 292 290 289 290 291 294 297 300 306 319 329 331 331 331 332 331 330 330 329 329 328 329 328 328 328 328 328

GFSSGP_925_thetae_111.txt.gz
Theta_e
310 315 318 319 322 322 323 324 322 321 321 321 321 320 322 322 324 328 335 346 346 343 353 344 342 341 340 338 338 340 342 343 343 340 334 335 336 336 337 337 339 342 344 345 344 344 343 339 340
319 317 318 322 321 324 325 324 321 321 320 319 320 321 322 324 324 328 335 341 347 345 352 348 342 341 339 338 339 341 343 344 344 340 335 335 336 337 336 338 340 344 346 345 341 340 340 340 341
317 318 322 323 324 325 325 322 321 320 319 319 320 321 322 324 327 329 331 340 347 347 349 350 343 341 338 338 340 342 343 344 342 342 336 337 338 338 337 339 339 345 345 342 339 341 340 340 339
317 319 320 323 325 326 325 323 320 320 320 319 320 320 322 324 325 330 339 343 347 347 347 349 343 340 337 337 341 343 343 343 344 343 341 339 339 338 337 339 339 343 345 342 340 343 341 339 339
318 321 323 324 325 325 325 323 321 320 320 320 320 320 322 323 324 331 340 346 347 346 347 349 342 340 337 337 340 342 343 344 344 344 343 342 341 339 337 338 340 342 344 342 340 343 341 340 339
320 321 324 325 326 326 325 323 322 322 321 321 320 321 321 323 323 330 337 348 348 346 348 353 345 340 337 336 338 339 340 341 343 344 344 343 342 339 337 338 339 340 340 340 339 340 340 340 339
319 323 324 325 325 325 325 323 322 322 322 322 321 322 323 323 322 324 335 348 351 348 349 351 349 343 338 336 336 335 336 337 337 339 341 342 342 340 338 339 339 339 340 340 338 338 339 338 338
318 320 322 324 325 325 324 322 321 322 322 323 322 323 324 324 321 321 326 344 351 351 351 351 351 348 346 340 336 335 335 335 336 337 339 341 341 339 341 341 340 340 340 340 338 340 339 338 338
316 318 322 323 324 324 323 321 322 321 321 322 322 322 322 321 320 320 322 334 349 350 350 351 351 349 349 347 343 337 336 335 335 336 338 341 345 346 346 343 344 340 339 338 338 340 339 337 337
317 319 321 322 320 321 321 320 320 320 320 321 320 321 320 319 319 320 322 324 336 349 349 350 349 347 348 349 348 344 343 341 340 341 342 343 343 344 344 343 342 342 339 339 339 339 339 337 339
317 319 320 320 319 317 317 317 318 318 318 319 319 319 319 318 318 320 321 322 323 341 348 347 347 345 346 347 348 347 346 344 344 344 344 343 342 343 343 343 343 342 341 342 340 340 340 339 339
316 317 316 317 317 316 316 317 317 317 318 317 317 316 316 317 318 319 319 320 321 335 345 348 347 348 347 346 347 345 344 346 344 344 344 344 343 342 343 339 343 342 341 341 341 340 340 339 339
315 316 316 315 314 314 314 314 314 315 315 315 315 315 316 316 317 317 317 318 319 320 335 344 346 346 347 347 344 344 343 344 344 345 344 343 341 341 340 340 339 343 341 341 341 340 340 339 338
315 315 314 315 315 315 315 315 315 316 315 315 315 315 315 316 316 316 317 317 318 318 318 322 339 344 344 344 344 342 342 341 343 343 342 343 342 341 341 340 339 338 341 341 341 340 340 339 339
315 316 317 317 316 316 316 316 316 316 316 316 315 315 316 315 314 316 316 317 316 316 316 317 320 333 341 342 342 341 339 340 340 341 341 342 342 343 343 342 339 338 337 341 340 339 340 340 339
314 315 317 318 319 317 316 317 318 317 317 317 316 316 316 316 315 315 315 315 317 319 320 320 318 318 331 339 339 341 339 338 338 338 340 340 342 341 343 342 341 341 339 339 340 340 339 339 339
317 318 320 321 318 316 316 318 318 317 316 316 316 316 316 316 316 316 317 320 321 321 323 323 324 324 319 321 329 337 340 341 340 339 339 340 341 341 341 343 341 341 340 339 340 339 339 339 338
319 320 320 319 318 317 316 317 317 316 315 315 315 315 315 316 316 318 320 321 321 321 322 322 323 324 326 324 320 330 334 337 339 340 341 340 340 341 341 341 341 340 340 340 340 340 339 339 337
316 317 318 317 317 316 316 315 315 315 315 315 315 315 316 316 318 320 320 321 321 321 321 321 321 322 323 324 323 320 330 333 336 338 339 342 341 340 340 340 339 339 339 339 339 339 337 337 337
315 315 315 315 314 314 314 314 315 316 316 316 316 316 316 317 320 320 319 318 318 318 318 317 318 319 320 321 323 324 322 327 330 334 336 339 341 340 340 339 338 339 337 338 337 337 337 337 337
313 314 314 314 314 315 315 314 314 314 315 315 316 316 320 320 319 318 317 316 315 315 315 314 315 315 316 317 319 322 324 323 328 333 333 335 339 341 340 338 339 338 337 337 337 336 335 335 336
314 314 314 313 313 314 313 314 316 315 314 314 317 320 320 318 317 316 316 315 314 313 313 312 313 313 313 314 316 318 321 325 323 330 331 333 336 339 339 339 337 339 337 337 336 335 336 335 332
313 313 312 312 313 313 313 314 315 315 314 316 320 321 318 317 316 315 314 312 311 311 310 310 310 310 310 310 312 314 316 319 324 326 332 333 334 337 337 337 337 338 337 337 336 335 335 334 333
312 311 311 311 311 313 313 314 315 314 314 317 322 319 318 316 315 314 311 310 310 309 308 308 307 306 306 306 307 308 310 312 317 322 328 335 334 336 336 336 335 336 338 336 337 336 334 334 334
310 311 313 313 314 314 313 313 314 316 321 321 321 318 316 314 313 313 311 310 308 307 306 305 304 303 303 303 303 304 305 308 311 316 323 329 334 336 336 334 336 336 337 336 336 336 334 334 335
311 310 312 319 318 316 314 313 316 321 320 317 316 314 312 311 311 310 309 307 306 304 304 303 301 300 299 300 300 300 300 303 307 312 318 326 333 334 336 334 335 335 336 336 336 335 334 333 335
310 313 311 314 315 315 316 316 321 319 318 316 314 312 311 310 309 309 307 306 304 303 302 300 298 297 297 296 296 296 298 301 304 308 314 321 330 333 337 334 334 335 335 336 336 335 336 335 334
307 308 314 311 311 312 310 311 312 321 318 314 312 311 309 308 308 307 306 304 302 301 300 298 296 295 294 294 293 294 297 300 303 306 310 320 331 333 336 336 334 334 335 335 335 336 336 335 334
307 307 307 308 310 313 313 312 319 319 316 314 311 308 307 307 306 306 304 302 300 298 297 295 293 293 292 291 291 294 297 300 304 312 316 324 332 332 334 335 334 333 334 334 334 334 334 333 332
306 307 307 311 308 308 307 307 316 315 313 310 308 307 305 305 305 304 303 300 298 296 294 293 291 290 289 289 291 293 296 298 303 310 326 328 329 331 332 334 333 332 333 332 332 333 333 331 331

GFSSGP_925_thetae_114.txt.gz
Theta_e
311 313 317 320 321 323 323 323 325 322 322 322 321 321 321 322 323 332 342 343 346 352 345 341 341 341 341 341 340 339 339 340 341 338 333 334 334 334 334 336 340 343 344 343 338 335 336 335 334
316 321 319 321 323 324 324 325 323 321 321 320 320 320 321 322 325 329 331 336 346 353 349 342 341 341 340 339 338 338 339 341 342 341 334 334 335 335 334 336 339 342 343 344 344 344 345 340 341
317 320 320 323 324 324 325 324 322 320 320 320 320 321 322 325 328 328 333 341 346 348 353 349 342 341 340 338 338 339 341 343 344 342 336 334 336 335 335 335 337 342 345 345 343 341 343 343 340
318 319 320 323 324 325 326 326 322 321 320 320 320 320 322 325 326 330 335 343 346 347 352 349 347 341 340 338 339 340 342 343 344 342 337 335 337 337 336 336 338 342 345 344 339 341 341 341 339
319 321 322 324 324 325 325 326 323 322 322 322 321 321 322 324 325 331 335 346 345 347 350 350 349 342 339 339 340 341 342 343 343 342 340 337 338 338 337 338 338 340 344 344 341 341 342 340 339
320 321 323 325 325 325 326 325 324 323 323 323 322 322 322 324 324 326 333 346 349 349 350 349 347 342 339 339 340 342 343 343 343 344 343 341 340 340 338 337 338 340 342 343 341 340 341 340 339
318 321 323 324 325 325 326 325 324 323 323 323 323 322 324 324 323 322 326 345 351 348 354 352 347 341 339 339 339 340 341 343 344 344 344 343 343 341 339 337 338 339 340 341 340 339 339 339 339
317 318 320 321 323 324 325 323 322 322 322 323 323 322 324 325 322 321 322 338 350 351 349 354 350 343 339 338 338 338 338 339 340 341 343 343 343 342 340 338 339 339 340 339 340 339 338 339 338
317 318 320 321 323 324 323 323 322 322 321 322 322 323 323 322 321 320 321 325 350 351 351 352 352 348 344 340 337 337 337 337 337 338 339 341 342 341 340 339 340 340 340 340 340 339 339 340 337
318 319 321 321 322 323 321 320 320 320 320 321 321 322 321 321 320 321 321 322 340 351 351 351 352 349 348 347 344 337 336 337 337 338 339 341 343 346 344 343 343 343 341 339 339 339 340 340 338
318 320 320 321 321 320 320 319 319 319 319 319 320 320 320 320 319 320 320 321 322 327 350 350 349 348 348 349 348 342 342 339 339 340 342 339 344 346 344 345 343 341 341 339 339 340 340 339 338
318 319 319 319 319 318 317 317 318 318 319 319 319 318 318 318 319 319 319 319 320 322 346 349 348 346 345 347 350 348 346 344 344 342 342 344 342 342 345 340 344 342 341 340 342 341 339 338 340
320 319 318 318 318 317 317 315 316 316 316 316 316 317 317 317 317 317 317 317 318 320 331 345 347 347 345 346 347 348 347 347 346 345 344 344 344 345 343 342 343 344 342 342 340 342 341 338 338
318 318 318 317 316 317 317 316 317 318 317 317 316 316 316 316 316 316 317 317 318 318 318 332 339 344 347 345 346 346 346 346 343 345 346 344 345 341 344 342 343 344 344 341 341 339 338 339 338
317 316 317 317 318 318 318 318 318 317 318 318 318 317 317 318 316 316 316 317 317 317 318 318 318 320 335 342 342 344 345 344 346 344 343 345 344 343 343 343 340 340 344 341 338 341 340 338 340
316 317 319 318 319 319 318 318 318 318 319 318 318 317 317 317 316 315 316 316 318 321 323 324 323 321 319 321 340 343 342 342 341 344 344 340 344 341 344 342 342 342 339 342 339 338 339 339 340
317 320 321 320 320 321 319 318 318 318 318 317 317 317 317 317 317 317 317 320 321 322 323 323 324 325 326 324 320 325 337 341 340 340 342 342 340 346 342 344 340 340 342 341 342 339 339 340 339
319 319 319 320 320 320 320 318 318 318 318 318 316 317 317 317 317 320 321 322 322 322 322 323 323 323 324 324 324 321 322 334 341 341 340 341 341 340 343 343 344 340 341 342 341 341 341 340 338
317 317 318 318 318 318 319 318 318 318 317 317 318 317 316 316 320 321 321 321 321 321 320 320 320 321 321 322 323 325 325 322 334 339 341 341 342 343 342 343 344 342 340 339 340 341 340 340 339
317 317 317 317 316 317 317 316 316 316 316 316 317 317 316 317 321 321 319 318 318 317 316 316 316 316 317 318 319 320 321 324 325 324 330 338 341 342 342 343 343 343 340 338 339 341 340 339 338
315 315 317 316 314 315 316 315 316 316 317 317 317 317 319 320 321 319 317 317 316 315 314 314 314 314 314 314 315 317 319 321 325 325 324 334 338 341 341 342 342 342 340 338 337 340 339 337 336
315 315 316 315 315 317 315 317 316 316 316 316 316 321 321 319 318 317 316 315 313 313 312 312 312 311 311 310 311 313 315 317 319 321 323 326 331 332 339 338 341 341 340 338 336 337 338 336 335
317 316 316 315 315 317 315 315 315 315 315 315 319 322 320 318 317 316 314 312 312 311 310 309 309 309 308 307 308 308 310 311 312 313 316 319 324 328 334 338 340 340 340 339 336 335 337 335 334
313 312 315 316 314 316 314 314 314 314 317 316 322 319 318 317 316 314 312 311 310 308 307 307 306 306 305 304 304 304 306 306 307 309 312 315 319 325 333 337 337 339 338 338 337 336 336 335 335
312 312 313 320 317 317 313 313 314 323 322 322 321 318 316 313 312 311 310 309 308 307 306 305 304 302 301 301 301 301 301 302 303 305 308 311 314 319 327 334 334 337 337 336 337 338 336 335 334
312 313 317 317 317 317 318 319 321 321 320 318 316 314 312 311 310 309 308 307 306 305 303 302 300 299 298 298 297 297 298 299 300 301 303 307 311 316 320 331 333 335 335 334 334 335 337 336 335
313 314 314 316 316 317 316 319 322 319 317 314 313 312 310 309 308 307 306 305 304 303 301 299 298 296 295 295 294 294 295 296 297 298 300 303 306 310 315 321 331 335 336 334 334 336 336 336 335
308 309 313 317 321 316 314 314 320 320 317 314 312 310 308 307 306 306 305 304 302 300 298 296 295 294 292 292 292 292 294 294 296 299 300 303 304 307 313 318 329 335 335 335 335 335 334 334 335
309 308 308 310 310 317 314 314 319 319 316 314 310 308 307 306 305 304 304 302 300 298 296 294 293 292 290 289 289 290 292 293 295 297 299 302 307 309 311 318 327 333 334 335 335 335 334 334 334
308 310 310 312 310 311 310 310 317 317 315 311 309 307 306 305 303 303 302 300 298 296 294 293 291 289 288 288 289 290 290 291 294 295 297 300 306 319 316 321 329 332 333 333 334 334 334 334 333

GFSSGP_925_thetae_117.txt.gz
Theta_e
311 313 315 316 315 314 317 318 319 316 317 317 318 318 318 318 325 345 340 344 349 346 343 344 342 340 341 341 341 340 339 339 339 336 333 333 333 332 331 332 334 336 338 338 337 336 336 334 332
312 317 320 313 316 318 318 319 316 316 317 318 318 319 319 325 327 328 337 343 347 349 343 343 341 340 340 341 340 339 338 338 339 338 333 333 334 333 332 333 336 340 342 341 339 336 339 338 336
314 318 315 314 315 318 318 319 315 317 317 318 318 320 320 328 326 330 341 343 347 352 344 341 341 341 340 340 339 338 338 339 340 340 334 334 335 334 333 333 336 338 343 344 342 341 343 343 340
317 314 312 316 318 318 320 321 316 317 318 318 318 318 323 326 327 333 340 344 344 352 349 344 341 341 340 339 338 338 339 341 342 341 336 334 335 335 334 333 336 339 345 345 341 337 338 340 339
319 313 316 317 318 319 320 320 319 320 320 320 317 319 321 326 330 332 337 347 347 351 351 348 342 341 340 339 339 339 340 341 343 342 339 335 336 336 335 334 336 339 344 344 340 339 340 339 339
313 313 316 317 318 320 320 320 322 322 321 321 320 320 320 323 324 328 335 339 349 349 350 349 348 342 340 339 339 340 341 342 343 341 339 335 337 338 337 335 336 337 341 343 341 339 339 339 338
314 313 316 317 319 319 321 320 321 321 320 322 321 321 321 321 321 321 339 341 348 352 349 349 347 344 341 338 339 340 341 342 342 342 342 339 338 339 339 336 337 337 340 341 341 339 339 338 337
312 311 315 315 317 318 320 320 320 320 321 322 321 321 321 321 321 320 324 344 340 351 353 351 349 344 340 338 339 341 342 342 342 343 343 343 341 341 340 338 337 338 340 340 340 339 339 338 337
310 311 312 314 316 318 319 316 318 317 319 320 320 320 320 321 320 320 320 343 351 348 353 353 352 348 340 338 339 340 341 341 342 343 343 343 343 342 341 339 337 338 339 339 339 340 339 338 338
309 311 313 315 317 319 318 315 316 316 316 318 319 320 320 321 318 318 318 318 350 351 351 351 352 350 342 339 338 338 339 339 339 339 341 342 341 341 341 339 338 339 339 339 340 340 338 338 338
312 313 314 316 318 317 314 315 315 315 317 316 317 318 317 317 316 316 317 318 318 327 350 351 352 350 346 342 339 337 337 337 338 337 338 339 340 340 341 339 339 340 341 340 340 340 338 337 337
313 314 315 315 316 316 317 314 314 314 315 315 313 314 316 315 315 316 316 317 318 322 347 351 351 350 347 346 347 345 336 336 336 337 337 339 340 344 345 343 342 342 341 340 339 338 338 338 336
315 315 315 315 315 314 313 314 314 314 312 312 312 313 313 314 314 315 316 316 316 318 345 346 348 348 347 347 349 348 343 339 337 337 339 339 340 342 346 345 345 343 342 341 340 338 339 339 337
315 315 315 315 315 315 315 315 313 315 312 313 313 312 311 312 312 314 315 315 316 320 336 330 344 346 345 344 345 346 347 345 344 342 341 341 342 342 342 343 344 341 342 342 340 340 340 340 338
314 313 313 313 313 314 315 315 316 315 314 315 314 313 312 313 313 312 315 315 322 323 324 324 324 323 321 337 340 341 341 342 343 344 346 343 342 344 343 343 343 342 342 342 341 340 340 341 338
313 313 314 314 315 316 314 317 316 314 313 314 313 313 312 313 312 314 315 321 322 323 323 323 324 324 325 324 324 330 336 339 340 340 343 346 345 343 345 342 344 341 343 343 343 341 340 340 337
312 313 315 315 316 317 316 317 317 314 314 314 315 315 313 312 311 314 321 322 322 322 322 322 322 322 323 323 323 324 324 328 337 340 342 343 344 345 343 343 343 342 342 342 343 341 340 340 337
315 315 314 315 314 315 315 315 314 314 314 314 312 313 313 312 315 320 321 321 321 320 319 319 319 319 320 320 321 322 324 324 322 327 338 339 340 341 341 344 342 343 342 342 342 341 340 339 338
314 315 316 315 315 315 314 314 313 313 312 312 311 311 311 318 319 320 318 317 317 316 316 315 315 315 315 315 316 316 317 320 322 323 326 335 338 340 341 342 342 342 341 340 342 342 340 340 338
316 315 314 313 313 314 313 313 312 313 312 311 311 310 310 319 319 317 316 316 315 314 314 313 312 312 312 312 312 313 314 317 318 321 324 325 326 328 338 340 341 340 341 339 339 341 340 340 340
315 314 313 313 313 313 313 313 311 313 313 313 312 313 313 319 317 316 314 313 312 311 311 310 310 310 309 308 308 309 311 313 314 316 317 320 322 324 329 337 337 339 339 339 337 338 340 339 339
313 315 317 316 317 317 313 317 315 314 313 313 313 317 317 316 314 312 310 309 309 308 308 308 307 306 305 305 304 304 306 308 308 309 310 313 316 318 321 324 334 337 337 336 335 335 336 338 337
315 317 312 312 315 317 315 314 313 312 313 315 318 317 315 313 311 309 308 308 307 306 306 305 304 303 302 301 301 301 302 303 304 305 306 308 311 313 314 317 323 333 336 336 335 334 336 336 336
316 314 311 310 313 317 316 314 314 312 315 321 319 316 313 311 309 307 307 306 305 304 303 303 301 300 299 298 298 298 298 299 300 301 302 303 306 309 311 313 316 322 335 335 336 335 335 336 336
316 312 315 314 315 314 313 315 313 322 320 320 316 312 310 308 307 306 305 303 303 301 300 299 297 296 296 295 296 295 296 296 297 298 300 301 302 304 308 310 313 318 327 334 335 334 335 335 335
315 312 315 319 317 315 314 317 320 318 315 313 311 309 308 306 305 304 302 301 300 298 297 296 295 294 293 292 292 293 293 294 295 296 297 299 300 302 303 305 309 313 319 330 333 333 332 335 335
313 312 312 315 315 315 313 318 315 314 314 312 310 309 308 306 305 303 301 300 298 297 295 294 293 292 291 290 290 290 291 292 293 294 295 296 298 300 302 304 306 310 314 321 332 332 331 334 336
310 308 314 315 318 318 314 314 322 318 315 313 310 308 305 303 302 302 300 298 296 295 293 292 292 290 289 288 289 289 290 291 292 293 294 296 298 299 301 303 305 307 312 318 330 330 330 332 334
308 308 308 314 313 316 316 315 318 317 315 312 309 306 303 301 300 299 298 297 294 293 292 291 290 290 288 288 288 289 290 290 291 292 293 295 296 298 300 303 307 308 310 316 329 330 329 331 332
308 310 310 309 309 309 310 310 317 316 314 311 307 305 301 300 298 297 296 294 292 291 291 290 289 289 288 288 288 289 289 289 290 290 291 293 294 295 299 304 308 312 311 316 327 333 331 331 331

GFSSGP_925_thetae_123.txt.gz
Theta_e
312 312 317 314 313 310 315 316 314 314 315 316 315 316 316 322 330 328 341 345 345 341 342 342 342 342 343 342 340 339 337 335 333 333 334 333 335 338 339 340 340 341 342 341 341 341 341 340 340
315 318 316 308 313 315 315 314 317 314 314 313 315 316 323 335 331 335 341 346 344 340 342 342 342 342 342 342 340 339 338 336 334 332 334 333 332 332 334 336 338 339 338 339 339 339 339 338 336
317 316 312 310 309 315 315 316 316 317 313 314 316 316 324 325 329 335 342 346 345 341 342 342 341 341 341 341 340 339 338 337 334 332 333 333 331 331 332 334 336 337 337 337 338 337 336 335 334
318 311 307 313 316 315 316 317 316 314 315 314 315 319 323 327 329 341 343 345 347 344 342 342 341 340 340 341 340 339 338 337 336 333 333 333 332 331 332 333 335 337 338 337 335 339 340 337 337
314 307 312 314 314 314 315 316 315 315 317 318 315 319 326 328 341 345 343 345 347 348 344 342 342 340 339 340 340 339 338 337 337 334 333 334 333 333 333 334 336 338 340 340 339 339 338 337 336
310 307 314 315 315 315 315 315 316 316 317 318 318 320 321 323 335 338 339 344 347 348 347 343 342 340 340 340 340 338 337 337 338 337 334 334 334 334 333 334 336 338 342 342 338 336 336 336 337
311 310 314 314 315 316 318 315 314 315 315 318 317 320 319 319 327 336 335 335 342 347 349 346 342 341 340 340 339 338 337 338 339 339 336 335 334 335 334 334 335 337 342 342 340 336 336 336 337
306 308 312 311 314 316 315 316 315 314 314 315 317 319 320 318 319 332 341 343 345 346 349 348 346 342 340 340 339 338 338 339 340 341 340 337 335 336 336 335 334 336 339 341 340 338 337 336 336
306 307 310 312 313 315 314 313 313 315 314 314 315 317 316 319 318 323 343 345 348 348 348 348 346 343 341 340 339 338 338 339 341 342 341 339 336 336 337 337 335 336 337 339 341 339 337 336 335
306 305 308 309 312 313 313 312 313 314 313 314 314 314 316 318 316 316 325 342 347 349 348 348 347 346 344 341 340 340 340 341 341 342 341 341 338 336 338 338 337 336 337 338 340 340 338 337 336
308 308 308 311 311 312 311 312 313 313 313 313 314 313 312 314 314 313 314 317 320 346 348 348 348 347 346 344 341 340 341 342 342 342 342 342 342 340 339 340 340 338 338 339 341 341 339 338 337
311 310 311 311 312 311 311 311 312 311 314 313 311 311 311 310 310 310 312 315 314 316 324 317 338 349 348 345 342 340 340 341 342 343 343 343 344 343 342 341 341 341 339 339 341 341 339 338 337
311 312 311 311 310 310 310 310 312 312 312 310 309 309 308 309 308 311 314 313 318 326 327 326 336 349 348 346 343 340 339 339 339 340 341 342 344 345 342 342 341 341 341 339 340 340 340 339 338
311 311 311 311 311 311 312 312 311 312 311 310 311 310 309 308 308 309 311 318 325 331 337 342 344 347 347 345 344 342 339 338 339 339 340 341 340 338 339 339 340 340 340 340 339 339 339 339 338
312 312 311 311 312 312 311 312 313 312 310 310 310 310 310 310 311 308 310 321 324 326 326 326 327 331 337 338 337 339 339 340 340 339 339 339 338 339 339 339 338 338 340 340 339 340 340 340 339
312 311 314 312 313 312 313 315 313 311 311 309 309 309 309 308 308 309 319 322 322 322 321 321 321 322 323 323 323 322 324 326 326 329 331 332 335 339 340 340 339 339 338 340 341 341 341 340 340
310 313 312 312 312 311 312 313 313 310 310 310 308 307 307 307 313 317 320 319 317 316 315 315 316 317 317 318 318 318 318 318 319 319 321 324 329 331 334 335 328 336 337 337 339 341 341 339 339
313 312 310 313 311 311 312 312 311 309 307 308 306 306 306 315 316 313 311 312 312 311 311 311 311 312 313 313 314 314 314 312 313 315 317 316 321 328 331 329 328 326 327 334 336 338 339 339 338
311 312 311 310 310 311 312 311 311 307 307 308 306 307 316 315 312 309 308 308 307 307 307 307 307 306 308 309 309 309 309 309 309 310 310 310 312 315 316 325 327 327 328 328 334 336 338 338 337
310 310 311 311 311 311 311 311 309 309 309 310 309 309 316 313 310 308 305 304 303 302 302 301 301 301 301 302 302 304 304 306 306 307 306 307 307 307 308 311 313 319 327 327 328 335 336 336 336
310 311 312 313 311 311 311 312 310 311 310 311 314 312 315 311 308 305 303 301 300 299 298 298 297 297 296 298 299 301 303 303 303 303 302 302 303 304 305 306 308 310 312 316 325 334 334 334 334
312 311 312 314 314 317 311 317 314 310 314 313 310 307 307 305 304 302 301 300 298 297 296 295 295 294 294 295 295 296 296 296 298 298 299 300 301 302 302 304 305 306 308 311 314 320 333 331 328
314 314 314 314 313 311 312 312 311 315 317 311 308 306 305 304 303 301 300 298 296 294 294 294 293 293 292 292 293 293 293 294 295 296 297 298 300 299 300 301 302 303 304 307 311 315 319 332 328
313 314 313 310 309 317 313 311 310 317 317 310 307 306 305 303 302 300 299 298 296 294 293 292 292 291 290 291 291 291 291 292 292 293 294 295 296 297 298 298 298 299 301 303 306 311 317 326 332
312 314 321 317 313 314 311 311 313 315 311 309 306 305 304 303 302 299 298 296 295 293 292 291 290 290 289 289 289 289 289 290 290 291 292 293 294 296 296 296 297 298 300 301 302 304 307 311 325
314 314 315 318 316 312 310 312 313 313 310 307 307 306 305 304 302 299 297 295 293 292 291 289 289 289 289 288 289 289 289 289 290 291 291 292 293 294 295 296 297 298 299 300 301 303 306 309 313
312 315 313 314 312 314 311 313 313 312 310 309 308 308 306 305 301 298 296 294 292 291 290 289 288 288 288 288 288 288 288 289 290 290 291 291 292 293 294 294 295 296 298 299 300 301 303 307 311
311 310 312 310 317 317 312 311 311 316 312 310 310 309 306 303 299 296 293 292 290 289 288 288 287 288 288 288 288 288 288 288 288 289 289 290 290 290 291 292 293 294 295 297 299 302 303 304 309
306 308 308 311 311 315 314 311 312 313 313 311 309 305 302 297 295 293 291 290 289 288 287 287 287 287 287 287 288 288 288 288 287 287 287 288 288 288 290 291 292 292 294 296 299 301 303 304 308
306 306 307 310 311 310 308 308 308 311 311 310 306 300 296 293 291 290 289 288 289 287 287 287 287 287 287 286 287 287 287 287 287 287 286 286 287 287 288 289 290 291 293 294 297 300 304 307 309